[[{"header":{"parameterUnit":"m.s-1","parameterCategory":1,"la1":30.6,"la2":29.2853,"lo1":-89.7004,"lo2":-87.6739,"dy":0.0162,"dx":0.0183,"nx":112,"ny":82,"refTime":"2024-10-01T06:00:00:Z","depth":0,"parameterNumber":2,"parameterNumberName":"U-component_of_WINDS"},"data":[0.0,0.0,0.0,0.0,0.0,0.0,0.0,0.0,0.0,0.0,0.0,0.0,0.0,0.0,0.0,0.0,0.0,0.0,0.0,0.0,0.0,0.0,0.0,0.0,0.0,0.0,0.0,0.0,0.0,0.0,0.0,0.0,0.0,0.0,0.0,0.0,0.0,0.0,0.0,0.0,0.0,0.0,0.0,0.0,0.0,0.0,0.0,0.0,0.0,0.0,0.0,0.0,0.0,0.0,0.0,0.0,0.0,0.0,0.0,0.0,0.0,0.0,0.0,0.0,0.0,0.0,0.0,0.0,0.0,0.0,0.0,0.0,0.0,0.0,0.0,0.0,0.0,0.0,0.0,0.0,0.0,0.0,0.0,0.0,0.0,0.0,0.0,0.0,0.0,0.0,1.6857,1.8334,1.9822,2.0686,2.0661,2.0458,1.9203,1.6569,0.0,0.0,0.0,0.0,0.0,0.0,0.0,0.0,0.0,0.0,0.0,0.0,0.0,0.0,0.0,0.0,0.0,0.0,0.0,0.0,0.0,0.0,0.0,0.0,0.0,0.0,0.0,0.0,0.0,0.0,0.0,0.0,0.0,0.0,0.0,0.0,0.0,0.0,0.0,0.0,0.0,0.0,0.0,0.0,0.0,0.0,0.0,0.0,0.0,0.0,0.0,0.0,0.0,0.0,0.0,0.0,0.0,0.0,0.0,0.0,0.0,0.0,0.0,0.0,0.0,0.0,0.0,0.0,0.0,0.0,0.0,0.0,0.0,0.0,0.0,0.0,0.0,0.0,0.0,0.0,0.0,0.0,0.0,0.0,0.0,0.0,0.0,0.0,0.0,0.0,0.0,0.0,0.0,0.0,0.0,0.0,0.0,0.0,0.0,0.0,0.0,0.0,0.0,0.0,1.6898,1.9991,2.0529,2.0636,2.0549,1.9946,1.8804,1.701,0.0,0.0,0.0,0.0,0.0,0.0,0.0,0.0,0.0,0.0,0.0,0.0,0.0,0.0,0.0,0.0,0.0,0.0,0.0,0.0,0.0,0.0,0.0,0.0,0.0,0.0,0.0,0.0,0.0,0.0,0.0,0.0,0.0,0.0,0.0,0.0,0.0,0.0,0.0,0.0,0.0,0.0,0.0,0.0,0.0,0.0,0.0,0.0,0.0,0.0,0.0,0.0,0.0,0.0,0.0,0.0,0.0,0.0,0.0,0.0,0.0,0.0,0.0,0.0,0.0,0.0,0.0,0.0,0.0,0.0,0.0,0.0,0.0,0.0,0.0,0.0,0.0,0.0,0.0,0.0,0.0,0.0,0.0,0.0,0.0,0.0,0.0,0.0,0.0,0.0,0.0,0.0,0.0,0.0,0.0,0.0,0.0,0.0,0.0,0.0,0.0,0.0,0.0,1.6474,1.7932,2.0437,2.0699,2.0636,2.0524,2.0103,1.9014,1.7108,1.5832,0.0,0.0,0.0,0.0,0.0,0.0,0.0,0.0,0.0,0.0,0.0,0.0,0.0,0.0,0.0,0.0,0.0,0.0,0.0,0.0,0.0,0.0,0.0,0.0,0.0,0.0,0.0,0.0,0.0,0.0,0.0,0.0,0.0,0.0,0.0,0.0,0.0,0.0,0.0,0.0,0.0,0.0,0.0,0.0,0.0,0.0,0.0,0.0,0.0,0.0,0.0,0.0,0.0,0.0,0.0,0.0,0.0,0.0,0.0,0.0,0.0,0.0,0.0,0.0,0.0,0.0,0.0,0.0,0.0,0.0,0.0,0.0,0.0,0.0,0.0,0.0,0.0,0.0,0.0,0.0,0.0,0.0,0.0,0.0,0.0,0.0,0.0,0.0,0.0,0.0,0.0,0.0,0.0,0.0,0.0,0.0,0.0,0.0,0.0,0.0,0.0,0.0,1.8166,1.9066,2.0529,2.0699,2.0624,2.0435,1.9861,1.8714,1.6854,1.5206,0.0,0.0,0.0,0.0,0.0,0.0,0.0,0.0,0.0,0.0,0.0,0.0,0.0,0.0,0.0,0.0,0.0,0.0,0.0,0.0,0.0,0.0,0.0,0.0,0.0,0.0,0.0,0.0,0.0,0.0,0.0,0.0,0.0,0.0,0.0,0.0,0.0,0.0,0.0,0.0,0.0,0.0,0.0,0.0,0.0,0.0,0.0,0.0,0.0,0.0,0.0,0.0,0.0,0.0,0.0,0.0,0.0,0.0,0.0,0.0,0.0,0.0,0.0,0.0,0.0,0.0,0.0,0.0,0.0,0.0,0.0,0.0,0.0,0.0,0.0,0.0,0.0,0.0,0.0,0.0,0.0,0.0,0.0,0.0,0.0,0.0,0.0,0.0,0.0,0.0,0.0,0.0,0.0,0.0,0.0,0.0,0.0,0.0,0.0,0.0,0.0,0.0,1.8371,1.9955,2.0634,2.0699,2.0574,2.0233,1.8548,1.7032,1.5952,1.3627,0.0,0.0,0.0,0.0,0.0,0.0,0.0,0.0,0.0,0.0,0.0,0.0,0.0,0.0,0.0,0.0,0.0,0.0,0.0,0.0,0.0,0.0,0.0,0.0,0.0,0.0,0.0,0.0,0.0,0.0,0.0,0.0,0.0,0.0,0.0,0.0,0.0,0.0,0.0,0.0,0.0,0.0,0.0,0.0,0.0,0.0,0.0,0.0,0.0,0.0,0.0,0.0,0.0,0.0,0.0,0.0,0.0,0.0,0.0,0.0,0.0,0.0,0.0,0.0,0.0,0.0,0.0,0.0,0.0,0.0,0.0,0.0,0.0,0.0,0.0,0.0,0.0,0.0,0.0,0.0,0.0,0.0,0.0,0.0,0.0,0.0,0.0,0.0,0.0,0.0,0.0,0.0,0.0,0.0,0.0,0.0,0.0,0.0,0.0,0.0,0.0,0.0,1.8072,1.958,0.0,2.0574,2.0309,1.963,1.8648,1.7254,1.5431,0.0,0.0,0.0,0.0,0.0,0.0,0.0,0.0,0.0,0.0,0.0,0.0,0.0,0.0,0.0,0.0,0.0,0.0,0.0,0.0,0.0,0.0,0.0,0.0,0.0,0.0,0.0,0.0,0.0,0.0,0.0,0.0,0.0,0.0,0.0,0.0,0.0,0.0,0.0,0.0,0.0,0.0,0.0,0.0,0.0,0.0,0.0,0.0,0.0,0.0,0.0,0.0,0.0,0.0,0.0,0.0,0.0,0.0,0.0,0.0,0.0,0.0,0.0,0.0,0.0,0.0,0.0,0.0,0.0,0.0,0.0,0.0,0.0,0.0,0.0,0.0,0.0,0.0,0.0,0.0,0.0,0.0,0.0,0.0,0.0,0.0,0.0,0.0,0.0,0.0,0.0,0.0,0.0,0.0,0.0,0.0,0.0,0.0,0.0,0.0,0.0,0.0,1.6461,1.8263,1.9676,0.0,2.0435,2.0156,1.95,1.8288,1.684,1.5069,0.0,0.0,0.0,0.0,0.0,0.0,0.0,0.0,0.0,0.0,0.0,0.0,0.0,0.0,0.0,0.0,0.0,0.0,0.0,0.0,0.0,0.0,0.0,0.0,0.0,0.0,0.0,0.0,0.0,0.0,0.0,0.0,0.0,0.0,0.0,0.0,0.0,0.0,0.0,0.0,0.0,0.0,0.0,0.0,0.0,0.0,0.0,0.0,0.0,0.0,0.0,0.0,0.0,0.0,0.0,0.0,0.0,0.0,0.0,0.0,0.0,0.0,0.0,0.0,0.0,0.0,0.0,0.0,0.0,0.0,0.0,0.0,0.0,0.0,0.0,0.0,0.0,0.0,0.0,0.0,0.0,0.0,0.0,0.0,0.0,0.0,0.0,0.0,0.0,0.0,0.0,0.0,0.0,0.0,0.0,0.0,0.0,0.0,0.0,0.0,0.0,0.0,1.7052,1.9144,2.0512,2.0473,2.0309,2.0144,1.999,1.73,1.5389,0.0,0.0,0.0,0.0,0.0,0.0,0.0,0.0,0.0,0.0,0.0,0.0,0.0,0.0,0.0,0.0,0.0,0.0,0.0,0.0,0.0,0.0,0.0,0.0,0.0,0.0,0.0,0.0,0.0,0.0,0.0,0.0,0.0,0.0,0.0,0.0,0.0,0.0,0.0,0.0,0.0,0.0,0.0,0.0,0.0,0.0,0.0,0.0,0.0,0.0,0.0,0.0,0.0,0.0,0.0,0.0,0.0,0.0,0.0,0.0,0.0,0.0,0.0,0.0,0.0,0.0,0.0,0.0,0.0,0.0,0.0,0.0,0.0,0.0,0.0,0.0,0.0,0.0,0.0,0.0,0.0,0.0,0.0,0.0,0.0,0.0,0.0,0.0,0.0,0.0,0.0,0.0,0.0,0.0,0.0,0.0,0.0,0.0,0.0,0.0,0.0,0.0,0.0,1.6897,1.8942,2.0258,2.0156,1.9746,1.9278,1.8712,1.6922,1.5197,1.3713,0.0,0.0,0.0,0.0,0.0,0.0,0.0,0.0,0.0,0.0,0.0,0.0,0.0,0.0,0.0,0.0,0.0,0.0,0.0,0.0,0.0,0.0,0.0,0.0,0.0,0.0,0.0,0.0,0.0,0.0,0.0,0.0,0.0,0.0,0.0,0.0,0.0,0.0,0.0,0.0,0.0,0.0,0.0,0.0,0.0,0.0,0.0,0.0,0.0,0.0,0.0,0.0,0.0,0.0,0.0,0.0,0.0,0.0,0.0,0.0,0.0,0.0,0.0,0.0,0.0,0.0,0.0,0.0,0.0,0.0,0.0,0.0,0.0,0.0,0.0,0.0,0.0,0.0,0.0,0.0,0.0,0.0,0.0,0.0,0.0,0.0,0.0,0.0,0.0,0.0,0.0,0.0,0.0,0.0,0.0,0.0,0.0,0.0,0.0,0.0,0.0,0.0,1.6541,1.8478,1.9682,1.9345,1.8977,1.8578,1.8133,1.6755,1.5242,1.3689,0.0,0.0,0.0,0.0,0.0,0.0,0.0,0.0,0.0,0.0,0.0,0.0,0.0,0.0,0.0,0.0,0.0,0.0,0.0,0.0,0.0,0.0,0.0,0.0,0.0,0.0,0.0,0.0,0.0,0.0,0.0,0.0,0.0,0.0,0.0,0.0,0.0,0.0,0.0,0.0,0.0,0.0,0.0,0.0,0.0,0.0,0.0,0.0,0.0,0.0,0.0,0.0,0.0,0.0,0.0,0.0,0.0,0.0,0.0,0.0,0.0,0.0,0.0,0.0,0.0,0.0,0.0,0.0,0.0,0.0,0.0,0.0,0.0,0.0,0.0,0.0,0.0,0.0,0.0,0.0,0.0,0.0,0.0,0.0,0.0,0.0,0.0,0.0,0.0,0.0,0.0,0.0,0.0,0.0,0.0,0.0,0.0,0.0,0.0,0.0,0.0,0.0,1.6086,1.7946,1.8964,1.8421,1.8161,1.8011,1.8011,1.6708,1.5416,1.4336,0.0,0.0,0.0,0.0,0.0,0.0,0.0,0.0,0.0,0.0,0.0,0.0,0.0,0.0,0.0,0.0,0.0,0.0,0.0,0.0,0.0,0.0,0.0,0.0,0.0,0.0,0.0,0.0,0.0,0.0,0.0,0.0,0.0,0.0,0.0,0.0,0.0,0.0,0.0,0.0,0.0,0.0,0.0,0.0,0.0,0.0,0.0,0.0,0.0,0.0,0.0,0.0,0.0,0.0,0.0,0.0,0.0,0.0,0.0,0.0,1.6104,0.0,0.0,0.0,0.0,0.0,0.0,0.0,0.0,0.0,0.0,0.0,0.0,0.0,0.0,0.0,0.0,0.0,0.0,0.0,0.0,0.0,0.0,0.0,0.0,0.0,0.0,0.0,0.0,0.0,0.0,0.0,0.0,0.0,0.0,0.0,0.0,0.0,0.0,0.0,0.0,0.0,1.6534,1.8056,1.8988,1.8855,1.7984,1.7385,1.7385,1.6385,1.5283,1.4203,1.285,0.0,0.0,0.0,0.0,0.0,0.0,0.0,0.0,0.0,0.0,0.0,0.0,0.0,0.0,0.0,0.0,0.0,0.0,0.0,0.0,0.0,0.0,0.0,0.0,0.0,0.0,0.0,0.0,0.0,0.0,0.0,0.0,0.0,0.0,0.0,0.0,0.0,0.0,0.0,0.0,0.0,0.0,0.0,0.0,0.0,0.0,0.0,0.0,0.0,0.0,0.0,0.0,0.0,0.0,0.0,0.0,0.0,0.0,0.0,0.0,1.7339,0.0,0.0,0.0,0.0,0.0,0.0,0.0,0.0,0.0,0.0,0.0,0.0,0.0,0.0,0.0,0.0,0.0,0.0,0.0,0.0,0.0,0.0,0.0,0.0,0.0,0.0,0.0,0.0,0.0,0.0,0.0,0.0,0.0,0.0,0.0,0.0,0.0,0.0,0.0,0.0,1.6228,1.7396,1.8025,1.7774,1.7193,1.6814,1.6814,1.6133,1.5356,1.4582,1.331,0.0,0.0,0.0,0.0,0.0,0.0,0.0,0.0,0.0,0.0,0.0,0.0,0.0,0.0,0.0,0.0,0.0,0.0,0.0,0.0,0.0,0.0,0.0,0.0,0.0,0.0,0.0,0.0,0.0,0.0,0.0,0.0,0.0,0.0,0.0,0.0,0.0,0.0,0.0,0.0,0.0,0.0,0.0,0.0,0.0,0.0,0.0,0.0,0.0,0.0,0.0,0.0,0.0,2.1957,2.256,2.3917,2.3478,2.3316,2.3312,2.0911,1.9874,1.9828,0.0,0.0,0.0,0.0,0.0,0.0,0.0,0.0,0.0,0.0,0.0,0.0,0.0,0.0,0.0,0.0,0.0,0.0,0.0,0.0,0.0,0.0,0.0,0.0,0.0,1.8356,1.8159,0.0,0.0,0.0,0.0,0.0,0.0,0.0,0.0,0.0,0.0,0.0,0.0,1.5881,1.6716,1.7031,1.6581,1.6459,1.6388,1.6388,1.6036,1.5621,1.5152,1.396,1.2823,0.0,0.0,0.0,0.0,0.0,0.0,0.0,0.0,0.0,0.0,0.0,0.0,0.0,0.0,0.0,0.0,0.0,0.0,0.0,0.0,0.0,0.0,0.0,0.0,0.0,0.0,0.0,0.0,0.0,0.0,0.0,0.0,1.5705,1.6886,0.0,0.0,0.0,0.0,0.0,0.0,0.0,0.0,0.0,0.0,0.0,0.0,0.0,2.19,2.2632,2.3728,2.3932,2.324,2.454,2.4785,2.4092,2.4528,2.4736,2.473,2.4335,0.0,2.1348,2.0713,0.0,0.0,0.0,0.0,0.0,0.0,0.0,0.0,0.0,0.0,0.0,0.0,0.0,0.0,0.0,0.0,0.0,0.0,0.0,0.0,0.0,0.0,2.0858,2.0936,2.0951,2.0876,0.0,1.8256,1.6042,1.5172,1.424,0.0,0.0,0.0,0.0,0.0,0.0,0.0,1.6446,1.6904,1.7163,1.7101,1.668,1.6388,1.6388,1.6346,1.6098,1.5642,1.5049,1.4126,1.277,1.2234,0.0,0.0,0.0,0.0,0.0,0.0,0.0,0.0,0.0,0.0,0.0,0.0,0.0,0.0,0.0,0.0,0.0,0.0,0.0,0.0,0.0,0.0,0.0,0.0,0.0,0.0,0.0,0.0,0.0,1.6254,1.7829,1.8293,1.8501,1.8265,0.0,0.0,0.0,0.0,0.0,0.0,0.0,0.0,0.0,2.195,2.2826,2.3595,2.4255,2.5022,2.5365,2.5247,2.596,2.6216,2.6018,2.6279,2.6399,2.6399,2.6399,2.5672,2.4411,2.3259,2.2128,2.1014,0.0,0.0,0.0,0.0,1.9623,1.9759,2.0924,2.0702,0.0,1.9784,0.0,0.0,0.0,0.0,0.0,0.0,0.0,0.0,0.0,0.0,0.0,2.1356,2.1059,2.0665,2.0643,1.944,1.8007,0.0,1.6031,1.5149,1.3887,0.0,0.0,0.0,0.0,1.5997,1.6894,1.7276,1.7379,1.7125,1.6892,1.6643,1.6409,1.6388,1.6305,1.6098,1.5663,1.5124,1.4511,1.3538,1.2513,0.0,0.0,0.0,0.0,0.0,0.0,0.0,0.0,0.0,0.0,0.0,0.0,0.0,0.0,0.0,0.0,0.0,0.0,0.0,0.0,0.0,0.0,0.0,0.0,0.0,0.0,0.0,0.0,1.7761,1.929,1.9561,2.0013,1.9872,0.0,0.0,0.0,0.0,0.0,0.0,2.2019,2.238,2.3098,2.4216,2.4966,2.5592,2.6091,2.6504,2.6922,2.7373,2.7373,2.7566,2.7951,2.7794,2.7742,2.7715,2.7585,2.7271,2.6781,2.5304,2.4087,2.3103,2.2141,2.1823,2.1954,2.2313,2.2432,2.2604,2.3826,2.3678,2.2862,2.256,0.0,2.076,1.9359,0.0,0.0,0.0,0.0,2.1197,2.2152,2.1882,2.1506,2.2099,2.1421,2.0662,2.0657,2.0323,1.9608,0.0,1.7563,1.674,1.5051,0.0,0.0,0.0,0.0,1.6429,1.7284,1.7591,1.7564,1.7234,1.7177,1.7048,1.6746,1.6622,1.6539,1.6539,1.6139,1.5829,1.5704,1.4697,1.3795,1.308,0.0,0.0,0.0,0.0,0.0,0.0,0.0,0.0,0.0,0.0,0.0,0.0,0.0,0.0,0.0,0.0,0.0,0.0,0.0,0.0,0.0,0.0,0.0,0.0,0.0,0.0,0.0,0.0,0.0,2.0763,2.1651,0.0,0.0,0.0,0.0,2.1834,2.2796,2.3526,2.3852,2.5078,2.6007,2.651,2.7609,2.8481,2.9083,2.9109,2.9135,2.9161,2.9161,2.9188,2.9188,2.8612,2.8351,2.8324,2.7742,2.7464,2.7359,2.62,2.5457,2.5003,2.4355,2.419,2.4317,2.4214,2.4157,2.4168,2.4117,2.4058,2.4099,2.4652,2.449,2.3972,2.3286,2.3102,0.0,0.0,2.3543,2.4047,2.4678,2.4239,2.3795,2.4401,2.333,2.2172,2.2185,2.1231,2.0058,0.0,1.8356,1.7981,1.7736,0.0,1.7238,1.7678,1.7766,1.7758,1.7687,1.7683,1.7688,1.7668,1.7668,1.7668,1.7626,1.7234,1.6986,1.6986,1.6581,1.616,1.5725,1.5642,1.4945,1.3576,1.2649,0.0,0.0,0.0,0.0,0.0,0.0,0.0,0.0,0.0,0.0,0.0,0.0,0.0,0.0,0.0,0.0,0.0,0.0,0.0,0.0,0.0,0.0,0.0,0.0,0.0,0.0,0.0,0.0,2.2493,2.3272,0.0,2.208,2.2736,2.3447,2.3969,2.4628,2.5549,2.6781,2.7295,2.7966,2.8839,2.9283,2.9797,3.0391,3.0391,3.0189,2.9805,2.9805,2.964,2.9292,2.9083,2.8978,2.8978,2.8752,2.8647,2.8595,2.7785,2.6971,2.6128,2.5918,2.5645,2.5371,2.5708,2.5824,2.5902,2.619,2.6044,2.5683,2.5175,2.4891,2.4711,2.4487,2.4434,2.4498,2.485,2.472,2.4553,2.4731,2.3911,2.306,2.3149,2.228,2.1429,2.1302,2.0818,2.0296,1.9906,1.9134,1.8313,1.7589,1.7506,1.7524,1.7444,1.7893,1.8197,1.8165,1.8402,1.8501,1.8175,1.8154,1.7982,1.7605,1.7139,1.6812,1.6678,1.6302,1.6011,1.5849,1.5829,1.5321,1.4256,1.3338,1.2018,0.0,0.0,0.0,0.0,0.0,0.0,0.0,0.0,0.0,0.0,0.0,0.0,0.0,0.0,0.0,0.0,0.0,0.0,0.0,0.0,0.0,0.0,0.0,0.0,0.0,0.0,2.3165,2.4042,2.4795,2.501,2.4443,2.4919,2.5625,2.6458,2.6798,2.7497,2.8638,2.8874,2.9327,3.0074,3.0302,3.0607,3.0992,3.1182,3.1059,3.0675,3.0876,3.079,3.0443,3.0241,3.0137,3.0111,2.9745,2.9562,2.951,2.8952,2.8246,2.754,2.7148,2.6739,2.6435,2.6817,2.6974,2.7027,2.7376,2.7271,2.6811,2.579,2.5478,2.5431,2.5167,2.5087,2.5189,2.5528,2.5285,2.4904,2.4904,2.397,2.2987,2.2848,2.2076,2.1283,2.1006,2.0785,2.0599,2.0434,1.9822,1.9094,1.8406,1.8455,1.8501,1.8135,1.8545,1.8828,1.8662,1.8911,1.8994,1.8683,1.8577,1.8376,1.7956,1.7323,1.687,1.6733,1.6206,1.5839,1.5707,1.5707,1.5278,1.4371,1.3314,1.2199,1.1065,0.0,0.0,0.0,0.0,0.0,0.0,0.0,0.0,0.0,0.0,0.0,0.0,0.0,0.0,0.0,0.0,0.0,0.0,0.0,0.0,0.0,0.0,0.0,2.0578,2.2764,2.4648,2.539,2.6233,2.704,2.7689,2.8157,2.8682,2.9266,2.9318,2.9318,2.9344,2.9857,3.0127,3.0153,3.0738,3.1044,3.1044,3.1582,3.1823,3.1823,3.2411,3.2646,3.262,3.2052,3.1771,3.1745,3.0623,3.0153,3.0127,2.9588,2.9371,2.9266,2.8003,2.7516,2.7516,2.7516,2.749,2.7456,2.7456,2.744,2.7306,2.6586,2.6363,2.6225,2.5511,2.53,2.5282,2.5282,2.5264,2.5229,2.5229,2.451,2.3745,2.3745,2.2902,2.1956,2.1495,2.1264,2.0992,2.0537,2.0454,2.0434,2.0413,2.0413,2.0268,1.9886,1.9824,0.0,1.9202,1.9139,1.9123,1.9119,1.8935,1.8801,1.8801,1.7825,1.721,1.7195,1.6352,1.5693,1.5325,1.5285,1.4868,1.3942,1.262,1.1894,1.1831,0.0,0.0,0.0,0.0,0.0,0.0,0.0,0.0,0.0,0.0,0.0,0.0,0.0,0.0,0.0,0.0,0.0,0.0,0.0,0.0,0.0,2.2978,2.4581,2.3538,2.4912,2.6269,2.6862,2.7998,2.8759,2.8847,2.9057,2.9398,2.9831,2.9884,3.0066,3.0521,3.066,3.0928,3.1327,3.1484,3.179,3.2247,3.2385,3.2235,3.1797,3.1954,3.1843,3.1463,3.1287,3.1425,3.1771,3.1484,3.1582,3.194,3.1346,3.1111,3.0928,2.8935,2.815,2.8098,2.7663,2.7171,2.6688,2.6688,2.6346,2.5861,2.5669,2.5599,2.5564,2.5353,2.5187,2.5075,2.5075,2.4559,2.3981,2.3981,2.3401,2.2756,2.2606,2.2327,2.2002,2.1765,2.1648,2.1569,2.1445,2.1406,2.1199,2.0516,2.0413,2.0372,2.0248,2.0245,0.0,2.0058,1.9918,1.9777,1.962,1.9428,1.9097,1.862,1.7773,1.7143,1.6865,1.5758,1.5186,1.5378,1.5082,1.482,1.4556,1.3325,1.2696,0.0,0.0,0.0,0.0,0.0,0.0,0.0,0.0,0.0,0.0,0.0,0.0,0.0,0.0,0.0,0.0,0.0,0.0,0.0,0.0,0.0,0.0,2.5249,2.6694,2.6716,2.7409,2.8069,2.8551,2.9275,2.9914,3.032,3.021,3.0333,3.0798,3.0615,3.0634,3.0992,3.1209,3.1477,3.1797,3.2052,3.2339,3.2698,3.2698,3.2515,3.2182,3.2182,3.2019,3.1705,3.1705,3.1888,0.0,3.1902,3.198,3.228,3.1686,3.1241,0.0,0.0,0.0,0.0,0.0,2.6881,2.65,2.629,2.5951,2.5517,2.4957,2.4797,2.4725,2.4425,2.4186,2.4036,2.4036,2.3544,2.3032,2.3032,2.2662,2.2233,2.212,2.2044,2.193,2.1816,2.1797,2.1797,2.1797,2.1797,0.0,2.1075,2.0992,2.093,2.0723,2.063,2.0494,2.0309,2.0109,1.9918,1.9815,1.9471,1.9093,1.8694,1.7842,0.0,0.0,0.0,1.5172,1.4749,1.4335,0.0,0.0,0.0,0.0,0.0,0.0,0.0,0.0,1.3137,1.3415,0.0,0.0,0.0,0.0,0.0,0.0,0.0,0.0,0.0,0.0,0.0,0.0,0.0,0.0,0.0,0.0,2.713,2.7951,2.96,2.9795,2.9864,3.0085,3.0153,3.0623,3.1693,3.1373,3.1339,3.1954,3.1575,3.1332,3.1384,0.0,0.0,0.0,0.0,3.2881,3.2881,3.2881,3.2881,3.2881,3.2829,3.2771,3.2698,3.262,3.2554,3.2429,3.1915,3.1649,3.1578,3.1124,3.042,2.9651,2.9772,2.9349,2.8474,2.7187,2.668,2.6581,2.6113,0.0,0.0,2.4466,2.4045,2.389,2.3216,2.2839,2.2628,2.2628,2.2496,2.2327,2.2327,2.2195,2.2063,2.2063,2.193,2.1797,2.1797,2.1797,2.1797,2.1797,2.1778,2.1759,2.1759,2.1759,2.1635,2.1203,2.0974,2.0683,2.0276,2.0054,1.9907,1.9865,0.0,0.0,1.8993,1.798,1.7187,1.6751,1.622,1.5283,1.3871,1.3502,1.3205,1.2911,1.293,1.3284,1.3907,1.3958,1.4345,1.5001,1.3848,1.4408,0.0,0.0,0.0,0.0,0.0,0.0,0.0,0.0,0.0,0.0,0.0,0.0,0.0,0.0,0.0,2.6905,2.8819,3.0175,3.0073,3.0566,3.0742,3.0189,3.0511,3.1059,3.1745,3.1693,3.2104,3.3169,3.3143,3.3294,3.3718,3.3849,3.3901,3.3901,3.4005,3.4058,3.4058,3.4058,3.4058,3.4058,0.0,0.0,3.2672,3.2208,3.1623,3.0987,3.0866,3.0708,3.0491,3.0413,2.9976,2.9306,2.8407,2.7902,2.7584,2.6942,2.6556,2.6312,2.5847,2.5282,2.4723,2.4261,2.3839,2.3474,2.317,2.2662,0.0,2.2214,2.2063,2.1911,2.1911,2.1892,2.1854,2.1854,2.1816,2.1797,2.1797,2.1797,2.1797,2.1797,2.1684,2.157,2.157,2.157,2.1529,2.1447,2.1236,2.1082,2.1002,2.081,2.0614,2.0385,2.0118,1.9827,1.949,1.8046,1.7067,1.6873,1.5561,1.4507,1.3821,1.4092,1.4231,1.4155,1.4361,1.4547,1.4681,1.4967,1.5371,1.5845,1.4949,1.4926,0.0,0.0,0.0,0.0,0.0,0.0,0.0,0.0,0.0,0.0,0.0,2.3879,2.4992,0.0,2.7937,2.9128,3.0317,3.1209,3.1529,3.1806,3.1742,3.1033,3.1216,3.1738,3.2626,3.2705,3.3044,3.3927,3.4005,3.411,3.4371,3.4685,3.4842,3.4842,3.5103,3.526,3.526,3.4972,3.4842,3.4842,3.3761,3.3074,3.2746,3.1694,3.0864,3.0245,2.9995,2.9671,2.9261,2.8875,2.8527,2.8163,2.714,2.6975,2.7208,2.6417,2.6066,2.5856,2.5269,2.4814,2.443,2.4073,2.3797,2.3584,2.3486,2.3139,2.2751,2.252,2.2303,2.2108,2.1859,2.1797,2.1797,2.1797,2.1797,2.1797,2.1797,2.1702,2.1665,2.1665,2.1493,2.1204,2.076,2.0605,2.0741,2.1282,2.1186,2.0896,2.0469,2.0216,1.9885,1.931,1.8989,1.8728,1.8525,1.7333,1.6581,1.651,1.5514,1.4714,1.416,1.439,1.4414,1.4255,1.4393,1.453,1.4702,1.4877,1.5144,1.5493,1.5091,1.5442,0.0,0.0,0.0,0.0,0.0,0.0,0.0,2.1408,2.2185,2.437,2.5447,2.6509,2.821,2.8876,2.9699,3.1362,3.1611,3.1913,3.2817,3.2817,3.2568,3.2189,3.2052,3.2444,3.3639,3.3764,3.4058,3.4842,3.4894,3.4946,3.5077,3.5547,3.5809,3.5809,3.6227,3.6462,3.6462,3.6018,3.5809,3.5809,3.4165,3.3333,3.3164,3.1622,3.0551,2.9875,2.9114,2.8466,2.7867,2.7126,2.6816,2.6734,2.6031,2.6198,2.6713,2.5905,2.5613,2.5571,2.487,2.4637,2.4573,2.415,2.396,2.3855,2.3835,2.363,2.3363,2.2986,2.2763,2.2522,2.2066,2.1942,2.1921,2.1818,2.1797,2.1778,2.174,2.1473,2.1243,2.1204,2.0896,2.0411,1.9708,1.9412,1.9608,2.0508,2.0469,2.0079,1.9373,1.9154,1.8776,1.8078,1.772,1.742,1.7195,1.6503,1.5968,1.5718,1.5314,1.488,1.4387,1.435,1.4248,1.3967,1.4021,1.42,1.4462,1.45,1.464,1.4866,1.4866,1.5619,2.0217,1.9607,1.9745,2.1819,2.1654,2.2227,0.0,2.6969,2.6465,2.7884,2.9242,3.004,2.9469,3.0939,3.2171,3.2042,3.2614,3.2985,3.2771,3.2718,3.2855,3.3326,3.2934,3.3038,3.4188,3.4319,3.4972,3.6593,3.6724,3.6959,3.7482,3.756,3.7612,3.7612,3.7665,3.7717,3.7717,3.7639,3.7612,3.759,3.5915,3.4858,3.4362,3.276,3.1287,2.9896,2.8055,2.6846,2.6152,2.5636,2.5422,2.5401,2.5338,2.5337,2.5443,2.5549,2.5722,2.5807,2.5296,2.5126,2.5062,2.4851,2.4493,2.4136,2.395,2.3577,2.3224,2.3162,2.3142,2.2998,2.2542,2.2418,2.2315,2.1901,2.1797,2.174,2.157,2.0915,2.0294,2.0119,1.9275,1.8581,1.8501,1.8301,1.8278,1.8581,1.8459,1.8278,1.8198,1.8158,1.8118,1.8017,1.7963,1.7493,1.6428,1.6071,1.5481,1.4394,1.4122,1.3958,1.388,1.388,1.3869,1.3819,1.4101,1.4275,1.4318,1.4564,1.4698,1.4726,1.4726,1.5039,2.2498,2.2339,2.2471,2.3834,2.4368,2.5178,2.7676,2.8033,2.8306,2.9901,3.096,3.158,3.1536,3.2277,3.2906,0.0,3.3527,3.3869,3.3712,3.3692,3.3666,3.3613,3.3064,3.3404,3.5208,3.5391,3.5992,3.7429,3.7534,3.7639,3.79,3.79,3.79,3.79,3.79,3.79,3.79,3.7271,3.6968,3.6968,3.5039,3.3934,3.348,3.1909,3.0485,2.9186,2.8002,2.7363,2.7015,2.6614,2.6252,2.5998,2.5721,2.5381,2.5041,2.5147,2.5253,2.5273,2.4913,2.4786,2.4786,2.4679,2.4533,2.4366,2.426,2.4115,2.3908,2.366,2.3619,2.3453,2.2857,2.2271,2.1767,2.1429,2.0775,2.0205,2.0125,1.958,1.9078,1.8998,1.8501,1.796,1.7455,1.7293,1.7107,1.6694,1.7391,1.7816,1.731,1.7249,1.7005,1.6386,1.6304,1.6037,1.5373,1.5251,1.5002,1.4485,1.4369,1.4308,1.4308,1.4308,1.4308,1.4308,1.4454,1.4524,1.4524,1.465,1.4699,1.4699,1.4699,1.4803,2.3795,2.4143,2.4677,2.5662,2.677,2.7825,2.8581,2.9214,3.005,3.1476,3.2222,3.2711,3.3093,3.3364,3.3561,3.3785,3.4329,3.4643,3.4424,3.4397,3.4188,3.3666,3.3064,3.3404,3.5234,3.5704,3.6384,3.756,3.7821,3.79,3.79,3.79,3.7762,3.7482,3.7459,3.7266,3.6831,3.6034,3.5558,3.5339,3.3571,3.2565,3.2268,3.0971,2.9867,2.8936,2.8425,2.8079,2.7883,2.7467,2.711,2.6772,2.6413,2.5987,2.554,2.5268,2.5016,2.4764,2.4551,2.4507,2.4507,2.4507,2.4507,2.4507,2.4507,2.4507,2.436,2.3735,2.3569,2.3342,2.2359,2.1617,2.1016,2.0694,1.9916,1.9223,1.9161,1.8662,1.8172,1.8029,1.7683,1.7196,1.6484,1.6345,1.6098,1.5423,1.6386,1.6964,1.6329,1.6185,1.585,1.5054,1.4985,1.4908,1.472,1.4657,1.4636,1.4636,1.4573,1.4531,1.4531,1.4531,1.4531,1.4531,1.4531,1.4531,1.4531,1.4531,1.4531,1.4531,1.4531,1.4572,2.345,2.4276,2.5739,2.7336,2.859,2.9768,3.1086,3.1859,3.2406,3.2842,3.3436,3.3798,3.3622,3.4211,3.4662,3.4413,3.5037,3.5284,3.4518,3.4397,3.4188,3.3666,3.3064,3.296,0.0,3.4685,3.5809,3.6933,3.756,3.79,3.79,3.79,3.7413,3.638,3.6356,3.5631,3.4147,3.4076,3.3717,3.3002,3.1946,3.1325,3.1035,3.0392,2.9952,2.964,2.9178,2.8543,2.7862,2.7475,2.7292,2.7292,2.7247,2.7247,2.7123,2.621,2.5275,2.4508,2.4507,2.4507,2.4507,2.4507,2.4507,2.4507,2.4507,2.4507,2.425,2.3086,2.2739,2.238,2.0797,2.0341,2.0231,1.9756,1.9625,1.9523,1.9328,1.8605,1.7862,1.7334,1.656,1.5846,1.5503,1.5444,1.5361,1.5131,1.5152,1.5194,1.5152,1.4929,1.4762,1.472,1.472,1.472,1.4699,1.4517,1.4412,1.4412,1.4229,1.4124,1.4124,1.4124,1.4124,1.4124,1.4124,1.4124,1.4124,1.4124,1.4124,1.4124,1.4124,1.4263,2.5175,2.6123,2.7315,2.9407,3.0472,3.1363,3.2614,3.3343,3.356,3.2922,3.2975,3.2961,3.2489,3.2633,3.2909,3.3215,3.446,3.5162,3.4497,3.5051,3.4894,3.3195,3.2803,0.0,0.0,0.0,0.0,3.6332,3.6959,3.7482,3.7874,3.725,3.6662,3.6307,3.5642,3.4823,3.3791,3.3098,3.236,3.1615,3.0412,2.9753,2.9652,2.9615,2.9515,2.9439,2.961,2.9512,2.927,2.8794,2.8442,2.8131,2.7821,2.7534,2.7268,2.6957,2.6623,2.6165,2.4942,2.4507,2.4507,2.4507,2.4507,2.4358,2.3541,2.3302,2.3042,2.1858,2.1525,2.1355,2.0673,2.0012,1.9417,1.9144,1.8434,1.7786,1.7719,1.7305,1.6887,1.6694,1.6417,1.614,1.5843,1.5655,1.5375,1.4894,1.4824,1.4824,1.4824,1.4762,1.4657,1.4517,1.4496,1.4447,1.4313,1.425,1.4208,1.4208,1.4145,1.4103,1.4103,1.4103,1.4103,1.4103,1.4103,1.4103,1.4103,1.4103,1.4188,1.4376,1.4376,1.4536,2.7252,2.8194,2.91,3.1594,3.2646,3.3201,3.377,3.4136,3.4084,3.2934,3.2542,3.2182,3.1634,3.1503,3.1764,3.2568,3.3979,3.492,3.4737,3.5521,3.5495,3.3822,3.343,3.3169,0.0,0.0,0.0,3.5735,3.6389,3.6885,3.7176,3.6166,3.5378,3.4921,3.4288,3.3465,3.2419,3.1553,3.0688,2.9761,2.8843,2.8463,2.8606,2.8744,2.898,2.9332,2.9622,2.9849,2.9973,2.9684,2.9373,2.9033,2.8299,2.7864,2.751,2.667,2.6355,2.6191,2.4816,2.4369,2.4221,2.3466,2.3214,2.3084,2.2277,2.2057,2.1813,2.0589,2.0251,2.0133,1.9565,1.8941,1.8411,1.8288,1.765,1.7041,1.7041,1.6826,1.6569,1.6453,1.6371,1.6194,1.5901,1.5643,1.5358,1.4976,1.4744,1.4634,1.4608,1.4531,1.4447,1.43,1.43,1.4237,1.4103,1.4103,1.4103,1.4103,1.4103,1.4103,1.4103,1.4103,1.4103,1.4103,1.4188,1.4242,1.4242,1.437,1.4517,1.4683,1.4683,1.4865,2.9431,3.0323,3.1149,3.3817,3.4894,3.5155,3.458,3.4397,3.4005,3.2803,3.2078,3.1432,3.0843,3.0809,3.1227,3.2352,3.3561,3.4607,3.5208,3.5809,3.5966,0.0,0.0,0.0,0.0,0.0,0.0,3.5055,0.0,3.607,3.5831,3.48,3.365,3.2451,3.235,3.1598,3.01,2.9586,2.8764,2.7591,2.7381,2.7513,2.7858,2.7879,2.84,2.9228,2.929,2.9534,2.9874,2.9895,2.9863,2.9685,2.8535,2.8089,2.7806,2.5559,2.4762,2.4677,2.4191,2.399,2.364,2.1608,2.0917,2.0881,2.0814,2.0792,2.0544,1.936,1.8993,1.8757,1.7606,1.7302,1.7302,1.7302,1.7302,1.7302,1.7279,1.7129,1.6893,1.6555,1.6292,1.5997,1.5667,1.5447,1.529,1.5277,1.4855,1.4494,1.4418,1.4229,1.4103,1.4103,1.4103,1.4103,1.4103,1.4103,1.4103,1.4103,1.4103,1.4103,1.4103,1.4095,1.4129,1.4129,1.4389,1.4527,1.4527,1.4852,1.5022,1.5035,1.5035,1.516,3.0451,3.2038,3.3732,3.5286,3.5495,3.526,3.5103,3.4397,3.3221,3.119,2.998,2.883,2.7376,2.8177,2.9318,3.0051,3.2561,3.4607,3.5208,3.6541,0.0,3.5469,0.0,3.4142,3.309,3.2912,0.0,0.0,3.374,3.4342,3.4679,3.3552,3.273,3.2426,3.1633,3.0752,2.98,2.8802,2.8133,2.781,2.7475,2.7348,2.7472,2.7779,2.8024,2.8293,2.9001,2.889,2.8238,2.8529,2.8009,2.6996,2.668,2.6436,2.62,2.5594,2.537,2.5138,2.3435,2.2668,2.2362,2.1837,2.1308,2.0724,1.9821,1.9565,1.9314,1.8102,1.7754,1.7684,1.7372,1.7302,1.7302,1.7302,1.7302,1.727,1.7106,1.705,1.6927,1.6631,1.6359,1.6076,1.5796,1.5536,1.5308,1.5102,1.4963,1.478,1.4507,1.4258,1.4103,1.4103,1.4103,1.4103,1.4103,1.4103,1.4103,1.4103,1.4103,1.4103,1.4103,1.4295,1.4402,1.4402,1.4718,1.4865,1.4865,1.4946,1.5093,1.5307,1.5307,1.5444,3.2803,3.4162,3.5443,3.6593,3.6279,3.5391,3.4371,3.3294,3.1653,2.8813,2.7689,2.6817,2.5338,2.6478,2.8011,2.9109,3.1751,3.411,3.5469,3.6635,3.6904,0.0,3.5225,0.0,3.3225,3.2747,3.245,0.0,3.2729,3.3102,3.3279,3.2174,3.1483,3.1355,3.0754,3.0155,2.952,2.8848,2.8396,2.8189,2.7966,2.7759,2.7552,2.78,2.79,2.7896,0.0,2.7685,2.7124,2.6905,2.6334,2.5568,2.5043,2.4847,2.4765,2.3961,2.3662,2.3442,2.1954,2.1133,2.076,2.076,2.0394,1.9844,1.9168,1.876,1.8387,1.7696,1.7419,1.7302,1.7302,1.7302,1.7302,1.7302,1.7232,1.7129,1.7026,1.6815,1.6579,1.6305,1.614,1.5981,1.5828,1.5685,1.5524,1.5364,1.5253,1.512,1.4923,1.4656,1.4491,1.4491,1.4491,1.4491,1.4491,1.4349,1.4282,1.4282,1.4282,1.4282,1.4282,1.4563,1.4665,1.4555,1.4833,1.4946,1.4832,1.5101,1.5246,1.5264,1.5404,1.546,3.5395,3.6227,3.6541,3.7456,3.675,3.5286,3.2986,3.1489,2.9588,2.6253,2.5506,2.5077,2.3876,2.5212,2.7017,2.8664,3.0902,3.3259,3.5609,3.6111,3.6134,3.5875,3.5402,3.4703,3.375,3.273,3.2123,3.2072,3.2072,3.1996,3.1793,3.0862,3.0235,3.002,2.9994,2.9808,2.9394,2.9332,2.9104,2.8711,2.8624,2.84,2.7983,2.7836,2.7721,2.7562,2.6611,0.0,2.5944,2.5071,2.4632,2.4426,2.3434,2.3184,2.3234,2.1643,2.108,2.0979,2.0395,1.9872,1.9415,1.9327,1.9078,1.8789,1.8789,1.8423,1.7999,1.7955,1.7682,1.7434,1.7434,1.7352,1.727,1.729,1.7135,1.6932,1.6909,1.6508,1.6082,1.5855,1.5808,1.5808,1.5808,1.5689,1.5594,1.5594,1.5277,1.505,1.505,1.5027,1.4941,1.4806,1.4793,1.4726,1.4591,1.4303,1.4103,1.4103,1.406,1.406,1.406,1.4353,1.444,1.4179,1.4457,1.4456,1.4235,1.4777,1.489,1.4688,1.4914,1.489,3.5835,3.6828,3.7403,3.6619,3.5547,3.4084,3.181,2.964,2.7402,2.492,2.4006,2.3184,2.159,2.3474,2.5698,2.6955,2.9358,3.1999,3.4727,3.4673,3.4672,3.5471,3.402,3.278,3.2353,3.1381,0.0,0.0,3.0417,3.0495,3.0655,3.0287,3.0047,2.9994,2.9994,2.9953,2.987,2.9497,2.927,2.9187,2.8794,2.8566,2.8454,2.7512,2.6766,2.619,2.5486,0.0,2.2987,2.3178,2.2548,2.1441,2.1267,2.1024,2.0796,2.0477,2.038,2.0365,2.0225,2.0137,1.9947,1.9447,1.9078,1.8789,1.8789,1.8891,1.899,1.8701,1.8379,1.813,1.813,1.7606,1.7107,1.7318,1.7008,1.6612,1.639,1.6092,1.5855,1.5808,1.5808,1.5808,1.5808,1.5105,1.4556,1.4556,1.3765,1.3178,1.3178,1.4236,1.4658,1.3777,1.3687,1.3347,1.2506,1.2177,1.2008,1.2008,1.1815,1.1691,1.1691,1.1958,1.2085,1.2038,1.2294,1.2421,1.2373,1.2463,1.2509,1.246,1.2509,1.2509,3.5966,3.6985,3.7612,3.641,3.5025,3.3143,2.9928,2.7628,2.538,2.2465,2.1629,2.1198,2.0374,2.2087,2.4207,2.5955,2.7464,2.9554,3.2832,3.2452,3.2219,3.3213,3.2522,3.1691,3.1043,3.0495,3.0151,3.002,2.9994,3.0073,3.0183,3.0073,2.9994,2.9994,2.9994,2.9994,2.9994,2.9766,2.9663,2.9663,2.8822,2.8193,2.7773,2.6645,2.5726,2.4959,2.3947,0.0,2.195,2.1454,2.0825,2.0231,2.0231,2.0227,2.0196,2.0047,1.9989,1.9974,1.9798,1.974,1.9681,1.94,1.9312,1.9327,1.9327,1.9092,1.8788,1.8629,1.8254,1.7885,1.7885,1.7558,1.7276,1.7418,1.7026,1.6577,1.6313,1.5604,1.501,1.501,1.4567,1.4184,1.4184,1.38,1.3463,1.3463,1.3028,1.2702,1.2702,1.3223,1.345,1.3075,1.2899,1.2617,1.2157,1.1737,1.1501,1.1501,1.1375,1.1318,1.1318,1.1562,1.1658,1.1538,1.1672,1.1682,1.1536,1.1682,1.1682,1.1536,1.1682,1.1717,3.5913,3.6985,3.756,3.6096,3.4554,3.2333,2.8264,2.5929,2.3695,2.0466,1.9708,1.9603,1.9603,2.0936,2.2794,2.5077,2.5825,2.7358,3.0873,3.0489,3.0192,3.1096,3.1229,0.0,3.0073,2.9994,0.0,2.9994,2.9994,2.9994,2.9994,2.9994,2.9994,2.9994,2.9994,2.9994,2.9994,2.9685,2.9527,2.9527,2.8249,2.7336,2.6748,2.5576,2.4622,2.3867,2.2475,0.0,0.0,2.0093,1.9654,1.9679,1.9679,1.9813,1.9976,1.9781,1.9679,1.9649,1.9386,1.9246,1.9194,1.9194,1.9427,1.9675,1.9675,1.9199,1.8605,1.8534,1.8099,1.7694,1.7694,1.756,1.7324,1.705,1.665,1.6219,1.5763,1.4814,1.4014,1.4014,1.3303,1.2702,1.2702,1.2509,1.2387,1.2387,1.2169,1.2023,1.195,1.1755,1.1682,1.1853,1.1877,1.1804,1.156,1.1106,1.0834,1.0834,1.0786,1.0738,1.0738,1.0954,1.0999,1.0828,1.0828,1.073,1.0509,1.073,1.0732,1.058,1.0802,1.0852,3.5809,3.6985,3.7351,3.5129,3.3666,3.1751,2.7697,2.5029,2.2674,2.0297,1.9356,1.8976,1.8976,2.002,2.159,2.3876,2.5008,2.6587,2.9495,2.9586,2.9761,3.0822,3.0461,3.0125,3.002,2.9994,2.9994,2.9994,2.9994,2.9994,2.9994,2.9994,2.9994,2.9994,2.9994,2.9994,2.9994,2.8668,2.8009,2.7982,2.6544,2.5801,2.5701,2.4482,2.3607,2.2944,2.1457,0.0,0.0,1.9508,1.9338,1.9342,1.9342,1.9371,1.9386,1.9356,1.9342,1.9342,1.9312,1.9156,1.8947,1.8947,1.911,1.9368,1.9368,1.9323,1.9246,1.8938,1.8576,1.8312,1.8312,1.7728,1.6814,1.5531,1.5179,1.4877,1.3812,1.3348,1.311,1.311,1.2877,1.2702,1.2702,1.195,1.1341,1.1341,1.0502,0.9797,0.955,0.9501,0.9402,0.9196,1.0002,1.0165,0.9213,0.8859,0.8679,0.8679,0.8456,0.8308,0.8308,0.8347,0.8361,0.8336,0.8336,0.8311,0.8287,0.8311,0.8407,0.858,0.8605,0.8657,3.3744,3.4894,3.5495,3.4214,3.2777,3.0712,2.7,2.4607,2.2439,1.98,1.9081,1.8898,1.8898,1.9589,2.0884,2.3196,2.3152,2.3729,2.6229,2.6198,2.6533,2.8128,2.8568,2.9083,0.0,0.0,2.9994,2.9994,2.9863,2.9764,2.9764,2.9764,2.9764,2.9764,2.89,2.8448,2.8448,2.7131,2.649,2.6463,2.5123,2.445,2.4239,2.3059,2.2307,2.1816,2.1052,0.0,0.0,1.9723,1.9474,1.9298,1.9298,1.9298,1.9298,1.9298,1.9208,1.9052,1.9052,1.8855,1.8593,1.8593,1.8573,1.8539,1.8724,1.8649,1.8532,1.8381,1.7636,1.6896,1.6896,1.6099,1.5144,1.4594,1.4324,1.4082,1.3642,1.2828,1.2177,1.2063,1.1475,1.0974,1.0864,1.0502,1.0183,1.001,0.9624,0.9253,0.9006,0.8808,0.8684,0.8577,0.8949,0.9015,0.8602,0.8311,0.8162,0.8162,0.8063,0.7988,0.7988,0.7988,0.7988,0.7988,0.7988,0.806,0.818,0.818,0.8255,0.8423,0.8423,0.8505,3.2045,3.3273,3.3979,3.3247,3.1888,2.9823,2.6347,2.4204,2.2243,1.9696,1.9017,1.8938,1.9121,1.9513,2.0415,2.2332,2.1916,2.2013,2.3898,2.403,2.4531,2.6009,2.6972,2.8007,2.927,2.9668,2.9889,2.9889,2.9606,2.9317,2.8953,2.8873,2.8847,2.8953,2.7599,2.6879,2.6879,2.559,2.4958,2.4913,2.3659,2.2946,2.2733,2.193,2.1403,2.1189,2.0839,0.0,0.0,1.9913,1.9591,1.9298,1.9298,1.9246,1.9182,1.9182,1.9,1.8764,1.8764,1.8318,1.7779,1.7779,1.7358,1.6882,1.7081,1.7252,1.7292,1.6935,1.6127,1.537,1.537,1.4754,1.403,1.3679,1.3448,1.3228,1.2883,1.2013,1.1236,1.1042,1.0382,0.9772,0.9551,0.951,0.9444,0.9189,0.9157,0.9067,0.8733,0.8503,0.8361,0.8287,0.8287,0.8287,0.8287,0.8113,0.7988,0.7988,0.7988,0.7988,0.7988,0.7988,0.8033,0.8081,0.8081,0.818,0.8355,0.8355,0.8437,0.8547,0.8547,0.8628,3.1171,3.2679,3.3326,3.2111,3.0962,2.9204,2.5788,2.3657,2.1904,2.0152,1.9316,1.9081,1.967,1.9812,2.0129,2.116,2.1708,2.2305,2.3179,2.4045,2.4742,2.5155,2.6041,2.6975,2.7838,2.8937,2.9606,2.9606,2.929,0.0,2.7465,2.7123,2.7096,2.7411,2.6264,2.5617,2.5617,2.4156,2.3403,2.3419,2.1915,2.1232,2.1203,2.1203,2.1203,0.0,0.0,0.0,0.0,1.9913,1.9591,1.9298,1.9298,1.9156,1.8895,1.8895,1.8698,1.8396,1.8396,1.749,1.6326,1.6326,1.5316,1.4137,1.4137,1.4969,1.5675,1.4486,1.4137,1.4137,1.4137,1.411,1.3814,1.2689,1.2417,1.2091,1.0962,1.055,1.0321,1.0064,0.9852,0.9612,0.935,0.9298,0.9265,0.9126,0.9104,0.8943,0.845,0.8404,0.8311,0.8038,0.8013,0.8013,0.8013,0.7988,0.7988,0.7988,0.7988,0.7988,0.7988,0.7988,0.8088,0.8294,0.8294,0.8362,0.8505,0.8505,0.856,0.871,0.871,0.8764,2.7402,2.8281,2.8795,2.8412,2.7715,2.6566,2.4308,2.3341,2.2348,2.0231,1.9981,2.0072,1.9839,2.0065,2.0682,2.192,2.2179,2.2305,2.2637,2.3709,2.464,2.5155,2.7407,2.8971,0.0,0.0,2.9501,2.929,2.8215,2.7446,2.7068,2.5251,2.4744,2.5872,2.455,2.3827,2.3827,2.2523,2.1887,2.1887,2.1432,2.1203,2.1203,2.1203,2.1203,0.0,0.0,0.0,0.0,2.0017,1.9591,1.9276,1.8862,1.8146,1.7411,1.7411,1.6711,1.5808,1.5808,1.5343,1.4808,1.4808,1.4486,1.3949,1.3166,1.376,1.4433,1.3248,1.295,1.276,1.1982,1.1773,1.1692,1.1309,1.1227,1.1154,1.077,1.0511,1.0276,1.0042,0.9758,0.9504,0.932,0.9306,0.9231,0.8997,0.8964,0.8839,0.8505,0.8472,0.8446,0.8343,0.8343,0.8262,0.8008,0.7988,0.7988,0.7988,0.814,0.8201,0.8201,0.8289,0.8364,0.8437,0.8444,0.8512,0.8635,0.8635,0.8716,0.8838,0.8838,0.8865,2.4659,2.5589,2.6065,2.6065,2.5589,2.4711,2.2961,2.24,2.1721,1.9865,1.9893,2.0169,1.978,1.9923,2.0404,2.1374,2.1352,2.1417,2.1919,2.3107,2.4341,2.5454,2.763,0.0,0.0,2.87,2.8482,2.8269,2.6888,2.5882,2.5443,2.3883,2.3199,2.3676,2.2821,2.2312,2.2312,2.1575,2.1203,2.1203,2.1203,2.1203,2.1203,2.1203,2.1117,0.0,0.0,0.0,0.0,1.996,1.955,1.9126,1.8727,1.8019,1.7134,1.6711,1.5941,1.5034,1.4567,1.3976,1.3464,1.3464,1.3166,1.2689,1.1955,1.2254,1.2662,1.1955,1.1773,1.161,1.088,1.0688,1.0688,1.0688,1.0688,1.0669,1.0586,1.0421,1.0198,0.9845,0.9605,0.9387,0.9185,0.9144,0.9069,0.8846,0.8812,0.8739,0.8519,0.8505,0.8505,0.8505,0.8505,0.8404,0.8196,0.8182,0.8182,0.8182,0.8296,0.8376,0.8376,0.8457,0.8532,0.8567,0.8567,0.8642,0.877,0.877,0.8818,0.8912,0.8912,0.8912,0.0,2.4061,2.4573,2.4573,2.4178,2.3353,2.1681,2.0949,0.0,1.9121,1.9265,1.9621,1.9687,1.9548,1.9538,2.0034,1.9801,2.0003,2.1215,2.2559,2.4154,2.6169,2.7117,0.0,2.7763,2.7247,2.6861,2.6752,2.5416,2.4117,2.3059,2.2918,2.2369,2.1232,2.1203,2.1203,2.1203,2.1203,2.1203,2.1203,2.1203,2.1203,2.1203,2.1175,2.0988,0.0,0.0,0.0,0.0,1.978,1.9389,1.8779,1.8737,1.8263,1.7477,1.6405,1.5808,1.537,1.4245,1.3166,1.2282,1.2282,1.1555,1.0688,1.0688,1.0688,1.0688,1.0688,1.0688,1.0688,1.0688,1.0688,1.0688,1.0696,1.0669,1.0614,1.0312,1.0257,1.0064,0.952,0.9375,0.9272,0.8968,0.8912,0.8865,0.8723,0.8723,0.8676,0.8533,0.8539,0.8539,0.8539,0.8539,0.8539,0.8539,0.8519,0.8505,0.8505,0.8519,0.8526,0.8526,0.8532,0.8581,0.8723,0.8723,0.877,0.8912,0.8912,0.8912,0.8912,0.8912,0.8912,1.7826,0.0,2.0335,2.0335,2.057,2.0584,0.0,1.976,1.98,1.9002,1.9255,1.9855,2.0605,1.9921,1.9848,2.1736,2.1083,2.0775,2.204,2.4114,2.6241,2.8342,2.8655,2.8402,2.7579,2.7117,2.6427,2.5306,2.4106,2.3283,2.3002,2.2129,2.1489,2.1218,2.1203,2.1203,2.1203,2.1203,2.1203,2.1203,2.1203,2.1203,2.1175,2.0931,2.0773,0.0,0.0,0.0,2.0144,1.968,1.8839,1.7772,1.7159,1.5693,1.3902,1.3481,1.2716,1.1882,1.161,1.1309,1.1099,1.1099,1.0907,1.0688,1.0688,1.0688,1.0688,1.0688,1.0688,1.0688,1.0688,1.0688,1.0633,1.0449,1.0394,1.0312,0.9981,0.9761,0.9568,0.943,0.9189,0.8995,0.8912,0.8912,0.8899,0.8865,0.8858,0.8845,0.8811,0.8804,0.8804,0.8804,0.8804,0.8804,0.8804,0.8615,0.8505,0.8505,0.8594,0.8655,0.8655,0.8743,0.8825,0.8858,0.8858,0.8879,0.8912,0.8912,0.8912,0.8912,0.8912,0.8912,1.5375,1.7323,1.921,1.921,1.9652,1.99,1.9281,1.9227,1.9109,1.8424,1.8656,1.9246,2.0007,1.9484,1.947,2.1182,2.1021,2.1523,2.3866,2.5795,2.7337,2.8309,2.8364,2.7761,0.0,2.5526,2.4782,2.3994,2.2833,2.2171,2.2171,2.1546,2.1203,2.1203,2.1203,2.1203,2.1203,2.1203,2.1203,2.1203,2.1031,2.096,2.096,2.0673,2.0443,0.0,0.0,0.0,1.9,1.867,1.7683,1.6362,1.5914,1.4837,1.3414,1.2772,1.2092,1.1419,1.088,1.0688,1.0688,1.0688,1.0688,1.0688,1.0688,1.0688,1.0688,1.0688,1.0688,1.0688,1.0688,1.0614,1.0476,1.0339,1.0174,0.9981,0.9678,0.9513,0.9355,0.9217,0.9023,0.8912,0.8912,0.8912,0.8912,0.8912,0.8912,0.8912,0.8912,0.8912,0.8912,0.8912,0.8912,0.8912,0.8912,0.8757,0.8689,0.8689,0.8743,0.8791,0.8791,0.8865,0.8912,0.8912,0.8912,0.8912,0.8912,0.8912,0.8912,0.8912,0.9008,0.9035,1.4676,1.7159,1.9458,1.9236,1.9726,2.0076,1.9424,1.8887,1.8377,1.7792,1.7994,1.8444,1.9073,1.8993,1.9188,2.0368,2.1036,2.2533,2.5773,2.6995,2.7507,2.7412,2.7168,0.0,2.4671,2.3603,2.2918,2.2736,2.1788,2.1203,2.1203,2.1203,2.1203,2.1203,2.1203,2.1203,2.1203,2.1203,2.1175,2.1117,2.0845,2.0687,2.063,2.0141,1.9766,1.949,0.0,0.0,1.722,1.722,1.6301,1.489,1.4848,1.4461,1.3798,1.2804,1.2303,1.201,1.1044,1.0688,1.0688,1.0688,1.0669,1.0641,1.0641,1.0606,1.0559,1.0559,1.0606,1.0641,1.0586,1.0394,1.0202,1.0174,0.9954,0.9651,0.9375,0.9327,0.9244,0.8968,0.8912,0.8912,0.8912,0.8912,0.8912,0.8912,0.8912,0.8912,0.8912,0.8912,0.8912,0.8912,0.8912,0.8912,0.8912,0.8912,0.8912,0.8912,0.8912,0.8912,0.8912,0.8912,0.8912,0.8912,0.8912,0.8912,0.8912,0.8933,0.8946,0.8946,0.9152,0.9248,1.6,1.7835,1.8885,1.7632,1.8438,1.9388,1.8763,1.8241,1.7785,1.7568,1.7855,1.8529,1.9858,1.993,2.0515,2.2764,2.3717,2.4728,2.6249,0.0,2.631,2.727,0.0,2.4727,2.3682,2.3239,2.2595,2.1546,2.1289,2.1203,2.1203,2.1203,2.1203,2.1203,2.1203,2.1203,2.1203,2.1203,2.106,2.0773,2.0716,2.0572,2.0328,1.89,1.8231,1.8115,0.0,1.6101,1.5895,1.5895,1.5104,1.3896,1.3722,1.2835,1.1674,1.136,1.1129,1.0935,1.077,1.0688,1.0688,1.0688,1.0559,1.0366,1.0366,1.0174,0.9926,0.9926,1.0147,1.0312,1.0009,0.9899,0.9816,0.9596,0.9485,0.9375,0.9051,0.8968,0.8968,0.8912,0.8912,0.8912,0.8912,0.8912,0.8912,0.8912,0.8912,0.8912,0.8912,0.8912,0.8912,0.8912,0.8912,0.8912,0.8912,0.8912,0.8912,0.8912,0.8912,0.8912,0.8912,0.8912,0.8912,0.8912,0.8912,0.8912,0.8912,0.9062,0.9152,0.9152,0.9301,0.9376,1.5127,1.6816,1.8114,1.7575,1.9189,2.065,1.9597,1.9203,1.901,1.8895,1.9001,1.9377,2.0148,2.0544,2.1509,2.3846,2.4859,2.5508,2.6013,2.6148,2.5972,0.0,0.0,2.3531,2.2325,2.2085,2.1788,2.1232,2.1203,2.1203,2.1203,2.1203,2.1203,2.1203,2.1031,2.0931,2.0931,2.0802,2.0701,2.0687,2.0385,1.9795,1.8971,1.8085,1.7296,1.6621,0.0,1.5213,1.456,1.456,1.3824,1.2655,1.2567,1.1997,1.1163,1.0923,1.0789,1.0688,1.0688,1.0688,1.0696,1.0531,1.0394,1.0257,1.0091,0.9926,0.9761,0.9623,0.9789,0.9981,0.9844,0.9678,0.9541,0.943,0.9272,0.9078,0.894,0.8912,0.8912,0.8912,0.8912,0.8912,0.8912,0.8912,0.8912,0.8912,0.8912,0.8912,0.8912,0.8912,0.8912,0.8912,0.8912,0.8912,0.8912,0.8912,0.8629,0.7959,0.8546,0.8602,0.7965,0.7931,0.7931,0.7931,0.7931,0.7995,0.8096,0.8834,0.9226,0.9308,0.9435,0.9503,1.4717,1.6296,1.7761,1.8202,1.998,2.1415,2.061,2.0202,2.0056,2.0258,2.0238,2.0283,2.0575,2.1488,2.2797,2.4675,2.5405,2.5757,2.5748,2.5784,2.519,2.3499,2.3055,2.2438,2.1318,2.1203,2.1203,2.1203,2.1203,2.1203,2.1203,2.1117,2.1089,2.1089,2.0788,2.0601,2.0601,2.0026,1.9997,2.0486,1.9708,1.8797,1.7793,1.6973,1.6072,1.5154,1.4827,1.4143,1.3255,1.3255,1.2694,1.1806,1.1758,1.1484,1.1126,1.081,1.0688,1.0688,1.0688,1.0669,1.0586,1.0366,1.0202,1.0036,0.9789,0.9651,0.9541,0.9348,0.943,0.9596,0.9596,0.943,0.9292,0.9292,0.9078,0.8912,0.8912,0.8912,0.8912,0.8912,0.8912,0.8912,0.8912,0.8912,0.8912,0.8912,0.8912,0.8912,0.8912,0.8912,0.8912,0.8912,0.8912,0.8912,0.8912,0.8629,0.8076,0.7154,0.7709,0.7681,0.6733,0.6705,0.6705,0.6705,0.6702,0.6927,0.7408,0.8362,0.9025,0.9442,0.9591,0.9659,1.656,1.7695,1.8351,1.9263,1.9728,2.0213,2.1176,2.0353,1.972,2.0947,2.0961,2.0948,2.1569,2.3268,2.4808,2.5588,2.5646,2.5663,2.5847,0.0,2.3195,2.3059,2.2029,2.1318,2.1203,2.1203,2.1203,2.1203,2.1203,2.1203,2.1203,2.0902,2.0745,2.0745,2.0472,2.0328,2.0328,1.8813,1.868,1.9837,1.8622,1.7852,1.7455,1.5055,1.3934,1.3784,1.2573,1.201,1.1927,1.1927,1.1897,1.179,1.1589,1.1305,1.0992,1.0789,1.0688,1.0688,1.0688,1.0531,1.0339,1.0312,0.9926,0.9465,0.943,0.9217,0.8968,0.894,0.894,0.8968,0.8968,0.894,0.894,0.894,0.8912,0.8912,0.8912,0.8912,0.8912,0.8912,0.8912,0.8912,0.8912,0.8912,0.8912,0.8912,0.8912,0.8912,0.8912,0.8912,0.8912,0.8912,0.8912,0.8912,0.8912,0.7875,0.7182,0.7099,0.62,0.5611,0.5528,0.5528,0.5528,0.5528,0.5528,0.6147,0.7408,0.761,0.8355,0.9598,0.971,0.9771,1.5011,1.6403,1.76,1.8267,1.9162,2.008,2.0681,2.1055,2.1589,2.2685,2.3102,2.3409,2.3793,2.3487,2.3625,2.5004,2.4736,2.4298,2.4124,2.3454,2.2736,2.1959,2.1489,2.1203,2.1203,2.1203,2.1203,2.1203,2.1203,2.1117,2.0902,2.0773,2.063,2.0472,1.9377,1.8826,1.8826,1.7237,1.6709,1.7191,1.6691,1.6002,1.5114,1.4143,1.3285,1.2483,1.201,1.1741,1.1606,1.1606,1.1533,1.1411,1.124,1.1114,1.0976,1.0761,1.0688,1.0696,1.0504,1.0394,1.0229,0.9871,0.9596,0.9355,0.9161,0.8995,0.8912,0.8912,0.8912,0.8912,0.8912,0.8912,0.8912,0.8912,0.8912,0.8912,0.8912,0.8912,0.8912,0.8912,0.8912,0.8912,0.8912,0.8912,0.8912,0.8912,0.8912,0.8912,0.8912,0.8912,0.8912,0.8912,0.8912,0.8912,0.8912,0.7792,0.7099,0.7099,0.6033,0.5723,0.6422,0.5778,0.5723,0.645,0.6581,0.6932,0.7524,0.8408,0.9144,0.971,0.9765,0.9792,1.4414,1.5749,1.7159,1.7779,1.891,2.0073,2.0762,2.1806,2.2878,2.3885,2.4453,2.4846,2.4977,2.3775,2.3244,0.0,2.3957,2.3161,2.3035,2.268,2.2129,2.1289,2.1203,2.1203,2.1203,2.1203,2.1203,2.1203,2.1089,2.0931,2.0716,2.0515,2.0328,2.0155,1.8984,1.8185,1.7793,1.6326,1.5391,1.5006,1.46,1.4143,1.3695,1.3285,1.2599,1.1717,1.1717,1.1581,1.1411,1.1411,1.1305,1.1135,1.1041,1.096,1.0894,1.0737,1.0633,1.0559,1.0366,1.0174,0.9954,0.9541,0.932,0.9189,0.8968,0.8912,0.8912,0.8912,0.8912,0.8912,0.8912,0.8912,0.8912,0.8912,0.8912,0.8912,0.8912,0.8912,0.8912,0.8912,0.8912,0.8912,0.8912,0.8912,0.8912,0.8912,0.8912,0.8912,0.8912,0.8912,0.8912,0.8912,0.8912,0.8912,0.8912,0.7792,0.7265,0.7654,0.6144,0.5644,0.6533,0.581,0.5778,0.6538,0.6734,0.7075,0.7595,0.8593,0.9329,0.9792,0.9792,0.9792,1.5347,1.6273,1.7315,1.8179,1.8997,2.0058,2.1732,2.2473,2.3144,2.4285,2.468,2.4802,2.4811,2.4367,2.418,2.4782,2.3417,2.2439,2.2927,2.1959,2.1203,2.1203,2.1203,2.1203,2.1203,2.1203,2.1203,2.1203,2.0902,2.0687,2.0687,2.0126,1.9809,1.9809,1.9504,1.8765,1.7484,1.622,1.4917,1.3665,1.2401,1.2453,1.3635,1.2363,1.1701,1.15,1.15,1.1386,1.1195,1.1187,1.1118,1.0992,1.0992,1.0878,1.0688,1.0688,1.0531,1.0312,1.0284,0.9899,0.941,0.941,0.9161,0.8912,0.8912,0.8912,0.8912,0.8912,0.8912,0.8912,0.8912,0.8912,0.8912,0.8912,0.8912,0.8912,0.8912,0.8912,0.8912,0.8912,0.8912,0.8912,0.8912,0.8912,0.8912,0.8912,0.8912,0.8912,0.8912,0.8912,0.8912,0.8912,0.8912,0.8912,0.8885,0.7792,0.7626,0.883,0.6399,0.5087,0.5417,0.5417,0.5417,0.5417,0.557,0.6278,0.7624,0.7802,0.8562,0.9792,0.9792,0.9792,1.4644,1.5623,1.6954,1.7488,1.9189,2.0968,2.189,2.3241,2.4751,2.6484,2.624,2.554,2.4982,2.3995,0.0,2.2912,2.1904,2.13,2.1686,2.1432,2.1203,2.1203,2.1203,2.1203,2.1203,2.0988,2.0845,2.0845,2.0587,2.0328,2.0068,1.9895,1.9707,1.9504,1.7701,1.6544,1.6161,1.4003,1.2724,1.2371,1.1988,1.2018,1.2333,1.1817,1.1549,1.1492,1.1362,1.1208,1.1065,1.0899,1.0818,1.0805,1.0805,1.0745,1.0696,1.0504,1.0366,1.0229,0.9816,0.9541,0.9355,0.9134,0.8995,0.8912,0.8912,0.8912,0.8912,0.8912,0.8912,0.8912,0.8912,0.8912,0.8912,0.8912,0.8912,0.8912,0.8912,0.8912,0.8912,0.8912,0.8912,0.8912,0.8912,0.8912,0.8912,0.8912,0.8912,0.8912,0.8912,0.8912,0.8912,0.8912,0.8912,0.8823,0.8629,0.8291,0.8125,0.8269,0.7515,0.7232,0.7565,0.6755,0.6763,0.7697,0.7864,0.8166,0.8645,0.8817,0.897,0.9159,0.9366,0.9457,1.5494,1.6312,1.745,1.856,1.994,2.1511,2.3274,2.4361,2.5415,2.6948,2.6153,2.5096,2.4844,2.3486,0.0,2.2161,2.1428,2.0955,2.1174,2.1203,2.1203,2.1203,2.1203,2.1146,2.1003,2.0816,2.0658,2.0558,2.027,2.0011,1.9809,1.9707,1.9562,1.9401,1.7906,1.6586,1.5488,1.3956,1.2625,1.1557,1.1557,1.1557,1.1557,1.1516,1.1459,1.1378,1.1118,1.0956,1.0878,1.0737,1.0688,1.0688,1.0586,1.0531,1.0504,1.0202,1.0036,0.9899,0.9513,0.9327,0.9161,0.8968,0.8912,0.8912,0.8912,0.8912,0.8912,0.8912,0.8912,0.8912,0.8912,0.8912,0.8912,0.8912,0.8912,0.8912,0.8912,0.8912,0.8912,0.8912,0.8912,0.8912,0.8912,0.8912,0.8912,0.8912,0.8912,0.8912,0.8912,0.8912,0.8857,0.874,0.874,0.8629,0.8318,0.8341,0.8295,0.8099,0.8035,0.8088,0.8285,0.7594,0.7628,0.847,0.8637,0.8776,0.8915,0.9053,0.9068,0.8915,0.9068,0.919,1.7139,1.7736,1.8435,2.0584,2.1053,2.1865,2.5191,2.5447,2.5275,2.6275,2.5107,2.4017,2.4379,2.2936,2.1783,2.2061,2.1588,2.1131,2.113,2.1115,2.1087,2.1087,2.1058,2.0944,2.0601,2.0544,2.043,2.0186,1.987,1.9683,1.9683,1.9452,1.9321,1.9321,1.9192,1.7894,1.5286,1.5142,1.3769,1.1195,1.1195,1.1195,1.1195,1.1378,1.1354,1.113,1.0834,1.0688,1.0688,1.0688,1.0688,1.0669,1.0394,1.0312,1.0257,0.9899,0.9596,0.941,0.9355,0.9161,0.8912,0.8912,0.8912,0.8912,0.8912,0.8912,0.8912,0.8912,0.8912,0.8912,0.8912,0.8912,0.8912,0.8912,0.8912,0.8912,0.8912,0.8912,0.8912,0.8912,0.8912,0.8912,0.8912,0.8912,0.8912,0.8912,0.8912,0.8912,0.8912,0.8885,0.8774,0.8532,0.8504,0.8344,0.8023,0.811,0.8182,0.8125,0.8031,0.795,0.795,0.7986,0.8061,0.8201,0.8315,0.8442,0.8575,0.8763,0.8824,0.8824,0.8854,0.8976,1.6347,1.7195,1.85,2.0023,2.1529,2.2971,2.4444,2.445,2.4727,2.678,2.5799,2.4343,2.3494,2.2779,2.1951,2.0833,2.0742,2.0707,2.0459,2.0415,2.0332,2.0124,2.0096,1.9986,1.9709,1.9445,1.9278,1.9222,1.8957,1.8789,1.8789,1.8733,1.8677,1.8677,1.7725,1.6492,1.4991,1.3984,1.2716,0.0,1.1195,1.1195,1.1187,1.1126,1.1008,1.0802,1.0729,1.0688,1.0688,1.0688,1.0688,1.0669,1.0394,1.0312,1.0229,0.9678,0.9465,0.9355,0.9106,0.8968,0.8912,0.8912,0.8912,0.8912,0.8912,0.8912,0.8912,0.8912,0.8912,0.8912,0.8912,0.8912,0.8912,0.8912,0.8912,0.8912,0.8912,0.8912,0.8912,0.8912,0.8912,0.8912,0.8912,0.8912,0.8912,0.8912,0.8912,0.8912,0.8912,0.8712,0.8613,0.8646,0.8433,0.8193,0.8008,0.8043,0.7939,0.7655,0.7619,0.7606,0.7606,0.787,0.8078,0.8207,0.8177,0.8253,0.8447,0.8477,0.8366,0.8116,0.8397,0.8549,1.6461,1.742,1.8648,2.0544,2.2231,2.3591,2.4235,2.4051,2.411,2.554,2.4416,2.3031,2.2521,2.1761,2.1,2.0319,2.0356,2.0345,2.0061,2.0004,1.9922,1.9648,1.9621,1.9484,1.9195,1.9002,1.8837,1.8726,1.8574,1.849,1.849,1.849,1.849,1.849,1.7297,1.6039,1.477,1.3565,1.228,1.0964,1.0964,1.0964,1.0964,1.1,1.0894,1.0688,1.0688,1.0688,1.0688,1.0559,1.0504,1.0476,1.0036,0.9871,0.9816,0.932,0.9161,0.9134,0.8968,0.8912,0.8912,0.8912,0.8912,0.8912,0.8912,0.8912,0.8912,0.8912,0.8912,0.8912,0.8912,0.8912,0.8912,0.8912,0.8912,0.8912,0.8912,0.8912,0.8912,0.8912,0.8912,0.8877,0.8805,0.8708,0.865,0.8579,0.8566,0.854,0.847,0.841,0.8339,0.8266,0.8161,0.7997,0.7775,0.7808,0.7783,0.7606,0.7655,0.7687,0.7687,0.7866,0.7961,0.7967,0.7937,0.7999,0.8152,0.8152,0.8055,0.7903,0.8086,0.8244,1.6337,1.7563,1.887,2.1388,2.2793,2.3647,2.3951,2.3556,2.3172,2.3404,2.2358,2.147,2.1676,2.0712,1.9942,2.0093,2.0068,1.9945,1.9682,1.9586,1.945,1.9192,1.9165,1.9029,1.87,1.8673,1.8577,1.8358,1.833,1.833,1.833,1.833,1.8248,1.8055,1.7091,1.5809,1.4236,1.3272,1.21,1.0688,1.0688,1.0688,1.0696,1.0823,1.0806,1.0688,1.0688,1.0669,1.0614,1.0394,1.0257,1.0174,0.9623,0.941,0.9355,0.9023,0.8912,0.8912,0.8912,0.8912,0.8912,0.8912,0.8912,0.8912,0.8912,0.8912,0.8912,0.8912,0.8912,0.8912,0.8912,0.8912,0.8912,0.8912,0.8912,0.8912,0.8912,0.8912,0.8912,0.8912,0.8877,0.882,0.8713,0.8538,0.8363,0.8247,0.8211,0.815,0.8041,0.8092,0.8057,0.7846,0.791,0.785,0.7578,0.7671,0.7731,0.7731,0.7848,0.7903,0.7903,0.7903,0.7859,0.7731,0.7731,0.7774,0.7903,0.7881,0.787,0.787,0.7848,0.8005,1.4187,1.6434,1.918,2.1777,2.2559,2.2674,2.2594,2.2013,2.1373,2.0999,2.1162,2.1407,2.1454,2.0742,2.0064,1.9898,1.9613,1.9325,1.9053,1.8773,1.8496,1.8219,1.8193,1.8087,1.7808,1.7782,1.7755,1.7729,1.7729,1.7729,1.7729,1.7729,1.7264,1.6264,1.6077,1.4952,1.2727,1.2537,1.1873,1.0688,1.0688,1.0688,1.0696,1.05,1.05,1.0688,1.0688,1.0586,1.0339,1.0312,1.0119,0.9844,0.9513,0.941,0.9355,0.9023,0.8912,0.8912,0.8912,0.8912,0.8912,0.8912,0.8912,0.8912,0.8912,0.8912,0.8912,0.8912,0.8912,0.8912,0.8912,0.8912,0.8912,0.8912,0.8912,0.8912,0.8912,0.8912,0.8912,0.8912,0.8818,0.8706,0.8697,0.8538,0.8393,0.8375,0.8272,0.8187,0.8168,0.7982,0.7886,0.7974,0.7836,0.7774,0.7848,0.787,0.7881,0.7881,0.7892,0.7903,0.7903,0.7903,0.7892,0.7881,0.7881,0.7886,0.7903,0.7774,0.7725,0.772,0.7616,0.7651,1.5102,1.729,1.9435,2.1308,2.175,2.1698,2.1636,2.0842,2.0069,1.9846,1.9862,2.0009,2.0191,1.9926,1.9603,1.9338,1.9159,1.892,1.8466,1.8279,1.8095,1.7793,1.778,1.7714,1.7608,1.7608,1.7608,1.7608,1.7608,1.7608,1.7608,1.7608,1.7371,1.6882,1.6234,1.5076,1.3356,1.2716,1.1828,1.0688,1.0559,1.0476,1.0476,1.0174,1.0202,1.0476,1.0284,1.0119,1.0009,0.9844,0.9706,0.9541,0.9244,0.9134,0.9106,0.8968,0.8912,0.8912,0.8912,0.8912,0.8912,0.8912,0.8912,0.8912,0.8912,0.8912,0.8912,0.8912,0.8912,0.8912,0.8912,0.8912,0.8912,0.8912,0.8912,0.8912,0.8912,0.8912,0.8857,0.8712,0.8587,0.8481,0.8331,0.8213,0.8086,0.8018,0.7961,0.7869,0.7726,0.7714,0.774,0.7723,0.7777,0.7848,0.7897,0.7903,0.7903,0.7903,0.7903,0.7903,0.7903,0.7903,0.7903,0.7903,0.7903,0.7903,0.7903,0.7758,0.7703,0.7698,0.7578,0.7516,1.5342,1.7042,1.8366,1.9985,2.042,2.0428,2.0289,1.9625,1.898,1.8723,1.8559,1.8513,1.876,1.9028,1.9115,1.886,1.8738,1.8502,1.8044,1.7938,1.7832,1.7608,1.7608,1.7608,1.7608,1.7608,1.7608,1.7608,1.7608,1.7608,1.7608,1.7608,1.7477,1.7173,1.634,1.5316,1.411,1.2896,1.1746,1.0586,1.0312,1.0174,1.0174,0.9844,0.9844,1.0064,0.9871,0.9761,0.9678,0.9485,0.9355,0.9244,0.8995,0.8912,0.8912,0.8912,0.8912,0.8912,0.8912,0.8912,0.8912,0.8912,0.8912,0.8912,0.8912,0.8912,0.8912,0.8912,0.8912,0.8919,0.8953,0.894,0.8919,0.896,0.894,0.8885,0.8823,0.8795,0.8725,0.848,0.8343,0.823,0.8055,0.7941,0.7875,0.7758,0.772,0.7633,0.7424,0.7589,0.7665,0.7573,0.7747,0.7903,0.7903,0.7903,0.7903,0.7903,0.7903,0.7886,0.7859,0.7886,0.7886,0.7859,0.7886,0.7903,0.7903,0.7725,0.7655,0.7649,0.7497,0.7442,1.3251,1.4122,1.4979,1.7528,1.8447,1.8597,1.8097,1.8181,1.8094,1.722,1.7263,1.747,1.7485,1.8268,1.8831,1.8567,1.824,1.803,1.799,1.7766,1.7608,1.7608,1.7608,1.7608,1.7608,1.7608,1.7608,1.7608,1.7608,1.7608,1.7608,1.7608,1.7094,1.6021,1.5941,1.5316,1.411,1.2706,1.1446,1.0312,0.9981,0.9816,0.9816,0.9541,0.943,0.9465,0.9706,0.9651,0.941,0.941,0.9217,0.8912,0.8912,0.8912,0.8912,0.8912,0.8912,0.8912,0.8912,0.8912,0.8912,0.8912,0.8912,0.8912,0.8912,0.8912,0.8912,0.8912,0.8912,0.894,0.9138,0.9042,0.8946,0.9138,0.9035,0.8823,0.8567,0.8512,0.8468,0.8241,0.8123,0.8049,0.8082,0.8002,0.7903,0.7892,0.7769,0.7698,0.7687,0.7693,0.7698,0.7693,0.7832,0.7903,0.7903,0.7903,0.7903,0.7903,0.7903,0.7853,0.7714,0.7842,0.7848,0.7714,0.7848,0.7903,0.7903,0.7638,0.75,0.7495,0.7313,0.7264,1.2748,1.3639,1.459,1.6663,1.7207,1.728,1.7392,1.711,1.6795,1.6654,1.6609,1.6589,1.6633,1.7427,1.7958,1.7648,1.7555,1.7429,1.7201,1.7072,1.7021,1.7021,1.722,1.7327,1.7327,1.7501,1.7608,1.7608,1.7608,1.7608,1.7608,1.7608,1.7424,1.6988,1.6988,1.5994,1.3857,1.1901,1.0606,0.9981,0.9678,0.9541,0.9541,0.921,0.9078,0.9078,0.9189,0.9154,0.9078,0.9078,0.9023,0.8912,0.8912,0.8912,0.8912,0.8912,0.8912,0.8912,0.8912,0.8912,0.8912,0.8912,0.8912,0.8912,0.8912,0.8912,0.8912,0.8912,0.8912,0.8926,0.9001,0.8953,0.8926,0.9001,0.8752,0.8463,0.8235,0.8255,0.8245,0.7982,0.802,0.8029,0.7872,0.7887,0.7903,0.7903,0.7864,0.7785,0.7709,0.7763,0.778,0.7709,0.7832,0.7903,0.7903,0.7903,0.7903,0.7903,0.7903,0.7881,0.7842,0.7881,0.7881,0.7842,0.7881,0.7903,0.7903,0.7633,0.7489,0.7484,0.7297,0.7204,1.1945,1.2734,1.3711,1.5594,1.5785,1.5765,1.6788,1.6319,1.5727,1.6122,1.5993,1.5874,1.6043,1.6494,1.6839,1.6815,1.6933,1.6953,1.674,1.67,1.67,1.67,1.6899,1.7033,1.7033,1.7287,1.7461,1.7461,1.7555,0.0,1.7608,1.7608,1.7556,1.7463,1.7067,1.5796,1.3599,1.1574,1.0249,0.9651,0.9375,0.9237,0.9217,0.8995,0.8912,0.8912,0.8912,0.8912,0.8912,0.8912,0.8912,0.8912,0.8912,0.8912,0.8912,0.8912,0.8912,0.8912,0.8912,0.8912,0.8912,0.8912,0.8912,0.8912,0.8912,0.8912,0.8912,0.8912,0.8912,0.8919,0.8967,0.9008,0.8967,0.8809,0.8463,0.8131,0.7909,0.7983,0.8006,0.7761,0.785,0.7918,0.7782,0.7853,0.7903,0.7903,0.7903,0.7875,0.7769,0.7853,0.7875,0.7769,0.7853,0.7903,0.7903,0.7903,0.7903,0.7903,0.7903,0.7886,0.7848,0.7881,0.7881,0.7842,0.7881,0.7903,0.7903,0.7633,0.7489,0.7484,0.7297,0.7226,0.0,0.0,0.0,1.4194,1.4082,1.4011,1.6125,1.5688,1.4983,1.546,1.5391,1.5349,1.5705,1.5552,1.5578,1.6163,1.6486,1.6673,1.6673,1.6673,1.6673,1.6673,1.6687,1.6687,1.6687,1.6993,1.7192,1.7192,1.7421,1.7582,1.7595,1.7582,1.745,1.7146,1.5968,1.4674,1.3268,1.1792,1.0488,0.9375,0.9051,0.8912,0.8912,0.8912,0.8912,0.8912,0.8912,0.8912,0.8912,0.8912,0.8912,0.8912,0.8912,0.8912,0.8912,0.8912,0.8912,0.8912,0.8912,0.8912,0.8912,0.8912,0.8912,0.8912,0.8912,0.8912,0.8912,0.8912,0.8912,0.8946,0.9138,0.9172,0.9053,0.86,0.8235,0.7909,0.766,0.7702,0.7738,0.7526,0.7622,0.7741,0.7881,0.7903,0.7903,0.7903,0.7903,0.7903,0.7903,0.7903,0.7903,0.7903,0.7903,0.7903,0.7903,0.7903,0.7903,0.7903,0.7903,0.7853,0.7709,0.7842,0.7848,0.7709,0.7842,0.7903,0.7903,0.7633,0.7489,0.7484,0.7297,0.7313,1.0694,0.0,0.0,0.0,0.0,0.0,1.3915,1.361,1.3383,1.4376,1.4227,1.4205,1.5066,1.5151,1.516,1.532,1.5752,1.6048,1.6048,1.6048,1.6048,1.6048,1.6259,1.6417,1.6417,1.6685,1.6834,0.0,1.6901,1.7048,1.7313,1.7318,1.6869,1.5941,1.4594,1.3176,1.171,1.0488,0.9596,0.9051,0.894,0.8912,0.8912,0.8912,0.8912,0.8912,0.8912,0.8912,0.8912,0.8912,0.8912,0.8912,0.8912,0.8912,0.8912,0.8912,0.8912,0.8912,0.8912,0.8912,0.8912,0.8912,0.8912,0.8912,0.8912,0.8912,0.8912,0.8912,0.8912,0.8919,0.896,0.8827,0.8675,0.8519,0.8103,0.7687,0.761,0.7505,0.7458,0.7497,0.7682,0.7864,0.7897,0.7903,0.7903,0.7903,0.7903,0.7903,0.7903,0.7903,0.7903,0.7903,0.7903,0.7903,0.7903,0.7903,0.7903,0.7903,0.7903,0.7886,0.7853,0.7886,0.7886,0.7853,0.7886,0.7903,0.7903,0.7633,0.7489,0.7484,0.7297,0.7313,1.1632,0.0,0.0,0.0,0.0,0.0,1.3896,1.3284,1.2718,1.3575,1.3434,1.3453,1.4445,1.4625,1.4705,1.4968,1.5267,1.5511,1.5631,1.5728,1.5808,1.5808,1.5979,1.6086,1.6086,1.6353,1.6526,1.6526,1.6633,1.6783,1.6987,1.6547,1.5911,1.5102,1.3329,1.1928,1.0945,0.9781,0.9106,0.8912,0.8912,0.8912,0.8912,0.8912,0.8912,0.8912,0.8912,0.8912,0.8912,0.8912,0.8912,0.8912,0.8912,0.8912,0.8912,0.8912,0.8912,0.8912,0.8912,0.8912,0.8912,0.8912,0.8912,0.8912,0.8912,0.8912,0.8912,0.8912,0.8823,0.874,0.874,0.8519,0.8263,0.8159,0.7854,0.7566,0.7505,0.7414,0.7403,0.7473,0.7671,0.7848,0.7892,0.7903,0.7903,0.7903,0.7903,0.7903,0.7903,0.7903,0.7903,0.7903,0.7903,0.7903,0.7903,0.7903,0.7903,0.7903,0.7903,0.7903,0.7903,0.7903,0.7903,0.7903,0.7903,0.7875,0.7832,0.766,0.7511,0.7408,0.7269,0.7313,1.3176,0.0,0.0,0.0,0.0,0.0,1.4792,1.3785,1.2632,1.2831,1.2684,1.2808,1.3688,1.3862,1.4049,1.4598,1.4772,1.4959,1.5297,1.5565,1.5728,1.5755,1.5755,1.5768,1.5808,1.6072,1.6244,1.6244,1.6486,1.6668,1.6652,1.558,1.4785,1.4406,1.2218,1.0891,1.0507,0.9423,0.8912,0.8912,0.8912,0.8912,0.8912,0.8912,0.8912,0.8912,0.8912,0.8912,0.8912,0.8912,0.8912,0.8912,0.8912,0.8912,0.8912,0.8912,0.8912,0.8912,0.8912,0.8912,0.8912,0.8912,0.8912,0.8912,0.8912,0.8912,0.8885,0.8857,0.8685,0.8484,0.8457,0.8208,0.7909,0.766,0.7576,0.7499,0.734,0.7392,0.7479,0.7506,0.7627,0.7736,0.7881,0.7892,0.7886,0.7903,0.7903,0.7903,0.7903,0.7903,0.7903,0.7903,0.7903,0.7903,0.7903,0.7903,0.7903,0.7903,0.7903,0.7903,0.7903,0.7903,0.7903,0.7903,0.7903,0.7853,0.772,0.7709,0.7584,0.7327,0.7275,0.7346,1.427,0.0,0.0,0.0,0.0,0.0,1.2741,1.2473,1.2311,1.155,1.1152,1.1231,1.2163,1.2342,1.243,1.2759,1.3427,1.4154,1.4959,1.512,1.524,1.5458,1.5484,1.5555,1.5781,1.5861,1.5888,1.5888,1.6192,1.6388,1.639,1.5315,1.4217,1.3173,1.1619,1.0296,0.9265,0.9023,0.8912,0.8912,0.8912,0.8912,0.8912,0.8912,0.8912,0.8912,0.8912,0.8912,0.8912,0.8912,0.8912,0.8912,0.8912,0.8912,0.8912,0.8912,0.8912,0.8912,0.8912,0.8912,0.8912,0.8912,0.8912,0.8912,0.8912,0.8912,0.8857,0.8629,0.854,0.8429,0.8152,0.7881,0.766,0.761,0.7438,0.7271,0.7307,0.7327,0.7403,0.7627,0.7687,0.7736,0.7881,0.7826,0.7763,0.7886,0.7903,0.7903,0.7903,0.7903,0.7903,0.7903,0.7903,0.7903,0.7903,0.7903,0.7903,0.7903,0.7903,0.7903,0.7903,0.7903,0.7903,0.7903,0.7903,0.7892,0.787,0.7747,0.7627,0.7452,0.7459,0.7524,0.0,0.0,0.0,1.5547,0.0,0.0,0.0,1.2549,1.1968,1.1617,1.0955,1.0782,1.189,1.1748,1.1641,1.2211,1.2799,1.3367,1.3842,1.4539,1.5039,1.5186,1.52,1.532,1.5555,1.5595,1.5601,1.5652,1.5822,1.5607,1.4946,1.389,1.2802,1.1684,1.044,0.9506,0.8912,0.8912,0.8912,0.8912,0.8912,0.8912,0.8912,0.8912,0.8912,0.8912,0.8912,0.8912,0.8912,0.8912,0.8912,0.8912,0.8912,0.8912,0.8912,0.8912,0.8912,0.8912,0.8912,0.8912,0.8912,0.8912,0.8912,0.8912,0.8912,0.8795,0.8685,0.854,0.8291,0.802,0.7854,0.7604,0.741,0.741,0.6849,0.6504,0.7245,0.644,0.6002,0.7496,0.7195,0.693,0.7684,0.7785,0.7785,0.7785,0.7864,0.7903,0.7903,0.7903,0.7903,0.7903,0.7903,0.7903,0.7903,0.7903,0.7903,0.7903,0.7903,0.7903,0.7903,0.7903,0.7903,0.7903,0.7903,0.7903,0.7903,0.7842,0.7725,0.7611,0.7516,0.7584,0.0,0.0,0.0,0.0,0.0,1.4953,0.0,0.0,0.0,0.0,0.0,0.0,1.172,0.0,0.0,1.1757,0.0,0.0,0.0,1.3548,0.0,1.4625,1.4745,1.4932,1.5204,1.5177,1.5192,1.5326,1.5277,1.4696,1.3489,1.2501,1.1504,1.0519,0.9425,0.8879,0.8912,0.8912,0.8912,0.8912,0.8912,0.8912,0.8912,0.8912,0.8912,0.8912,0.8912,0.8912,0.8912,0.8912,0.8912,0.8912,0.8912,0.8912,0.8912,0.8912,0.8912,0.8912,0.8912,0.8912,0.8912,0.8912,0.8857,0.8823,0.8823,0.8629,0.8401,0.8346,0.7798,0.7243,0.7188,0.6849,0.651,0.651,0.5759,0.5442,0.6825,0.5364,0.4591,0.7337,0.65,0.585,0.7434,0.778,0.7837,0.7714,0.7826,0.7903,0.7903,0.7903,0.7903,0.7903,0.7903,0.7903,0.7903,0.7903,0.7903,0.7903,0.7903,0.7903,0.7903,0.7903,0.7903,0.7903,0.7903,0.7903,0.7903,0.7903,0.7853,0.7731,0.7633,0.7638,0.0,0.0,0.0,0.0,1.7375,0.0,0.0,0.0,1.2492,1.0915,0.0,0.0,0.0,0.0,0.0,0.0,0.0,0.0,1.0881,1.1658,1.2537,1.332,1.3889,1.4295,1.4589,1.4389,1.4382,1.4666,1.4425,1.3942,1.3197,1.2302,1.1427,1.0545,0.9343,0.8777,0.8912,0.8912,0.8912,0.8912,0.8912,0.8912,0.8912,0.8912,0.8912,0.8912,0.8912,0.8912,0.8912,0.8912,0.8912,0.8912,0.8912,0.8912,0.8912,0.8912,0.8912,0.8912,0.8912,0.8912,0.8912,0.8912,0.874,0.854,0.854,0.8318,0.802,0.7771,0.6877,0.595,0.5704,0.484,0.3999,0.3999,0.3916,0.4161,0.5435,0.4709,0.4578,0.7215,0.5752,0.4855,0.7295,0.7714,0.772,0.7703,0.7826,0.7903,0.7903,0.7903,0.7903,0.7903,0.7903,0.7903,0.7903,0.7903,0.7903,0.7903,0.7903,0.7903,0.7903,0.7903,0.7903,0.7903,0.7903,0.7903,0.7903,0.7903,0.7892,0.7881,0.787,0.787,0.0,0.0,0.0,0.0,0.0,0.0,1.3799,0.0,1.2083,0.0,0.0,0.0,0.0,0.0,0.0,0.0,1.0312,0.0,0.0,0.0,1.1182,0.0,0.0,0.0,1.3893,1.4055,1.417,1.4304,1.3918,1.3101,1.177,1.1473,1.0719,0.938,0.893,0.8757,0.8912,0.8912,0.8912,0.8912,0.8912,0.8912,0.8912,0.8912,0.8912,0.8912,0.8912,0.8912,0.8912,0.8912,0.8912,0.8912,0.8912,0.8912,0.8912,0.8912,0.8912,0.8912,0.8912,0.8912,0.8885,0.8712,0.8595,0.8346,0.7476,0.6977,0.6566,0.5727,0.5027,0.4501,0.439,0.3971,0.3608,0.3608,0.3078,0.2923,0.4227,0.297,0.2358,0.4994,0.4591,0.438,0.6127,0.6473,0.6753,0.7362,0.7649,0.7774,0.7774,0.7859,0.7875,0.778,0.7774,0.7741,0.7671,0.7731,0.7774,0.7774,0.7864,0.7903,0.7903,0.7903,0.7903,0.7903,0.7903,0.7903,0.7903,0.7903,0.7903,0.7903,0.7903,0.7903,1.818,0.0,0.0,0.0,0.0,0.0,0.0,0.0,0.0,0.0,0.0,0.0,0.0,0.0,0.0,0.0,0.0,1.0074,0.0,0.9725,0.0,0.0,0.0,0.0,0.0,1.33,1.3446,1.361,1.3182,1.2216,1.0629,1.0735,1.0077,0.8402,0.8547,0.8723,0.8845,0.8892,0.8912,0.8912,0.8912,0.8912,0.8912,0.8912,0.8912,0.8912,0.8912,0.8912,0.8912,0.8912,0.8912,0.8912,0.8912,0.8912,0.8912,0.8912,0.8912,0.8912,0.8912,0.8857,0.8768,0.8567,0.8374,0.7986,0.6589,0.595,0.5449,0.4219,0.3522,0.3106,0.3106,0.2854,0.2602,0.2602,0.1931,0.1658,0.2985,0.1545,0.0778,0.3376,0.3279,0.3245,0.4768,0.5689,0.645,0.7195,0.7484,0.7649,0.7649,0.7725,0.7741,0.766,0.7649,0.7616,0.7495,0.76,0.7649,0.7649,0.7763,0.7853,0.7853,0.7886,0.7903,0.7903,0.7903,0.7903,0.7903,0.7903,0.7903,0.7903,0.7903,0.7903,0.0,0.0,0.0,1.6126,0.0,0.0,0.0,0.0,1.2224,0.0,0.0,0.0,0.0,0.0,0.0,0.0,0.0,0.0,0.0,0.0,0.0,0.0,0.0,0.0,0.0,1.1819,1.177,1.2414,1.1961,1.1214,1.0173,1.0303,0.9686,0.807,0.8336,0.856,0.8716,0.8838,0.8912,0.8912,0.8912,0.8912,0.8912,0.8912,0.8912,0.8912,0.8912,0.8912,0.8912,0.8912,0.8912,0.8912,0.8912,0.8912,0.8912,0.8912,0.8912,0.8912,0.8912,0.874,0.8512,0.8512,0.8103,0.741,0.6177,0.562,0.5174,0.3943,0.277,0.1847,0.1847,0.0981,0.0112,0.0112,0.0084,0.0393,0.1597,0.088,0.0747,0.3301,0.1804,0.0907,0.3423,0.5842,0.7422,0.7327,0.7414,0.7495,0.7495,0.75,0.75,0.7495,0.7495,0.7495,0.7489,0.7495,0.7495,0.7495,0.7638,0.7709,0.7709,0.7842,0.7903,0.7903,0.7903,0.7903,0.7903,0.7903,0.7903,0.7903,0.7903,0.7903,0.0,0.0,1.6943,1.5147,0.0,0.0,0.0,0.0,0.0,0.0,0.0,0.0,0.0,0.0,0.0,0.0,0.0,0.0,0.0,0.0,0.0,0.0,0.0,0.0,0.0,0.0,0.0,1.1708,1.0985,1.0395,1.0046,0.9589,0.8925,0.8024,0.833,0.8554,0.871,0.8831,0.8912,0.8912,0.8912,0.8912,0.8912,0.8912,0.8912,0.8912,0.8912,0.8912,0.8912,0.8912,0.8912,0.8912,0.8912,0.8912,0.8912,0.8912,0.8912,0.8885,0.8685,0.8436,0.8125,0.7965,0.7238,0.6149,0.4752,0.372,0.277,0.1567,0.0924,0.0616,0.0616,0.0308,0.0,0.0,0.0,0.0112,0.0532,0.0281,0.0254,0.113,0.122,0.1479,0.2316,0.4507,0.6101,0.6041,0.6118,0.647,0.7255,0.7441,0.7457,0.7376,0.737,0.7338,0.7313,0.735,0.7403,0.7484,0.7527,0.7578,0.7578,0.7693,0.7758,0.7758,0.7864,0.7903,0.7903,0.7903,0.7903,0.7903,0.7903,0.7903,1.6485,1.6422,0.0,1.4734,1.411,0.0,1.2477,0.0,0.0,0.0,0.0,0.0,0.0,0.0,0.0,0.0,0.0,0.0,0.0,0.8297,0.0,0.0,0.0,0.0,0.0,0.0,1.0805,1.1219,1.0197,0.9583,0.0,0.9022,0.8398,0.7818,0.8194,0.8505,0.8628,0.875,0.8858,0.8912,0.8912,0.8912,0.8912,0.8912,0.8912,0.8912,0.8912,0.8912,0.8912,0.8912,0.8912,0.8912,0.8912,0.8912,0.8912,0.8912,0.883,0.8712,0.8429,0.8125,0.7771,0.7154,0.6371,0.531,0.3497,0.2407,0.1539,0.0336,0.0,0.0,0.0,0.0,0.0,0.0,0.0,0.0,0.0,0.0,0.0,0.0,0.0625,0.1308,0.1781,0.3134,0.442,0.5262,0.5812,0.6388,0.7156,0.7339,0.7361,0.7279,0.7274,0.7241,0.7215,0.7253,0.7307,0.7383,0.7432,0.7424,0.7424,0.7573,0.7638,0.7638,0.7709,0.7747,0.7747,0.7821,0.7842,0.7842,0.7881,0.7903]},{"header":{"parameterUnit":"m.s-1","parameterCategory":1,"la1":30.6,"la2":29.2853,"lo1":-89.7004,"lo2":-87.6739,"dy":0.0162,"dx":0.0183,"nx":112,"ny":82,"refTime":"2024-10-01T06:00:00:Z","depth":0,"parameterNumber":3,"parameterNumberName":"V-component_of_WINDS"},"data":[0.0,0.0,0.0,0.0,0.0,0.0,0.0,0.0,0.0,0.0,0.0,0.0,0.0,0.0,0.0,0.0,0.0,0.0,0.0,0.0,0.0,0.0,0.0,0.0,0.0,0.0,0.0,0.0,0.0,0.0,0.0,0.0,0.0,0.0,0.0,0.0,0.0,0.0,0.0,0.0,0.0,0.0,0.0,0.0,0.0,0.0,0.0,0.0,0.0,0.0,0.0,0.0,0.0,0.0,0.0,0.0,0.0,0.0,0.0,0.0,0.0,0.0,0.0,0.0,0.0,0.0,0.0,0.0,0.0,0.0,0.0,0.0,0.0,0.0,0.0,0.0,0.0,0.0,0.0,0.0,0.0,0.0,0.0,0.0,0.0,0.0,0.0,0.0,0.0,0.0,1.862,2.0339,2.1943,2.2899,2.2922,2.2947,2.1658,1.8564,0.0,0.0,0.0,0.0,0.0,0.0,0.0,0.0,0.0,0.0,0.0,0.0,0.0,0.0,0.0,0.0,0.0,0.0,0.0,0.0,0.0,0.0,0.0,0.0,0.0,0.0,0.0,0.0,0.0,0.0,0.0,0.0,0.0,0.0,0.0,0.0,0.0,0.0,0.0,0.0,0.0,0.0,0.0,0.0,0.0,0.0,0.0,0.0,0.0,0.0,0.0,0.0,0.0,0.0,0.0,0.0,0.0,0.0,0.0,0.0,0.0,0.0,0.0,0.0,0.0,0.0,0.0,0.0,0.0,0.0,0.0,0.0,0.0,0.0,0.0,0.0,0.0,0.0,0.0,0.0,0.0,0.0,0.0,0.0,0.0,0.0,0.0,0.0,0.0,0.0,0.0,0.0,0.0,0.0,0.0,0.0,0.0,0.0,0.0,0.0,0.0,0.0,0.0,0.0,1.8583,2.2106,2.2725,2.2944,2.3074,2.2669,2.1489,1.9269,0.0,0.0,0.0,0.0,0.0,0.0,0.0,0.0,0.0,0.0,0.0,0.0,0.0,0.0,0.0,0.0,0.0,0.0,0.0,0.0,0.0,0.0,0.0,0.0,0.0,0.0,0.0,0.0,0.0,0.0,0.0,0.0,0.0,0.0,0.0,0.0,0.0,0.0,0.0,0.0,0.0,0.0,0.0,0.0,0.0,0.0,0.0,0.0,0.0,0.0,0.0,0.0,0.0,0.0,0.0,0.0,0.0,0.0,0.0,0.0,0.0,0.0,0.0,0.0,0.0,0.0,0.0,0.0,0.0,0.0,0.0,0.0,0.0,0.0,0.0,0.0,0.0,0.0,0.0,0.0,0.0,0.0,0.0,0.0,0.0,0.0,0.0,0.0,0.0,0.0,0.0,0.0,0.0,0.0,0.0,0.0,0.0,0.0,0.0,0.0,0.0,0.0,0.0,1.8176,1.9807,2.2598,2.2888,2.2944,2.3097,2.2948,2.1825,1.9443,1.8172,0.0,0.0,0.0,0.0,0.0,0.0,0.0,0.0,0.0,0.0,0.0,0.0,0.0,0.0,0.0,0.0,0.0,0.0,0.0,0.0,0.0,0.0,0.0,0.0,0.0,0.0,0.0,0.0,0.0,0.0,0.0,0.0,0.0,0.0,0.0,0.0,0.0,0.0,0.0,0.0,0.0,0.0,0.0,0.0,0.0,0.0,0.0,0.0,0.0,0.0,0.0,0.0,0.0,0.0,0.0,0.0,0.0,0.0,0.0,0.0,0.0,0.0,0.0,0.0,0.0,0.0,0.0,0.0,0.0,0.0,0.0,0.0,0.0,0.0,0.0,0.0,0.0,0.0,0.0,0.0,0.0,0.0,0.0,0.0,0.0,0.0,0.0,0.0,0.0,0.0,0.0,0.0,0.0,0.0,0.0,0.0,0.0,0.0,0.0,0.0,0.0,0.0,2.0175,2.1152,2.2725,2.2888,2.2955,2.3123,2.2848,2.1671,1.9303,1.7784,0.0,0.0,0.0,0.0,0.0,0.0,0.0,0.0,0.0,0.0,0.0,0.0,0.0,0.0,0.0,0.0,0.0,0.0,0.0,0.0,0.0,0.0,0.0,0.0,0.0,0.0,0.0,0.0,0.0,0.0,0.0,0.0,0.0,0.0,0.0,0.0,0.0,0.0,0.0,0.0,0.0,0.0,0.0,0.0,0.0,0.0,0.0,0.0,0.0,0.0,0.0,0.0,0.0,0.0,0.0,0.0,0.0,0.0,0.0,0.0,0.0,0.0,0.0,0.0,0.0,0.0,0.0,0.0,0.0,0.0,0.0,0.0,0.0,0.0,0.0,0.0,0.0,0.0,0.0,0.0,0.0,0.0,0.0,0.0,0.0,0.0,0.0,0.0,0.0,0.0,0.0,0.0,0.0,0.0,0.0,0.0,0.0,0.0,0.0,0.0,0.0,0.0,2.0358,2.2138,2.2841,2.2888,2.3,2.3249,2.1813,2.023,1.8739,1.6458,0.0,0.0,0.0,0.0,0.0,0.0,0.0,0.0,0.0,0.0,0.0,0.0,0.0,0.0,0.0,0.0,0.0,0.0,0.0,0.0,0.0,0.0,0.0,0.0,0.0,0.0,0.0,0.0,0.0,0.0,0.0,0.0,0.0,0.0,0.0,0.0,0.0,0.0,0.0,0.0,0.0,0.0,0.0,0.0,0.0,0.0,0.0,0.0,0.0,0.0,0.0,0.0,0.0,0.0,0.0,0.0,0.0,0.0,0.0,0.0,0.0,0.0,0.0,0.0,0.0,0.0,0.0,0.0,0.0,0.0,0.0,0.0,0.0,0.0,0.0,0.0,0.0,0.0,0.0,0.0,0.0,0.0,0.0,0.0,0.0,0.0,0.0,0.0,0.0,0.0,0.0,0.0,0.0,0.0,0.0,0.0,0.0,0.0,0.0,0.0,0.0,0.0,2.0049,2.1793,0.0,2.3,2.3235,2.376,2.2798,2.1212,1.912,0.0,0.0,0.0,0.0,0.0,0.0,0.0,0.0,0.0,0.0,0.0,0.0,0.0,0.0,0.0,0.0,0.0,0.0,0.0,0.0,0.0,0.0,0.0,0.0,0.0,0.0,0.0,0.0,0.0,0.0,0.0,0.0,0.0,0.0,0.0,0.0,0.0,0.0,0.0,0.0,0.0,0.0,0.0,0.0,0.0,0.0,0.0,0.0,0.0,0.0,0.0,0.0,0.0,0.0,0.0,0.0,0.0,0.0,0.0,0.0,0.0,0.0,0.0,0.0,0.0,0.0,0.0,0.0,0.0,0.0,0.0,0.0,0.0,0.0,0.0,0.0,0.0,0.0,0.0,0.0,0.0,0.0,0.0,0.0,0.0,0.0,0.0,0.0,0.0,0.0,0.0,0.0,0.0,0.0,0.0,0.0,0.0,0.0,0.0,0.0,0.0,0.0,1.8241,2.035,2.2021,0.0,2.3123,2.3367,2.3867,2.2838,2.1195,1.886,0.0,0.0,0.0,0.0,0.0,0.0,0.0,0.0,0.0,0.0,0.0,0.0,0.0,0.0,0.0,0.0,0.0,0.0,0.0,0.0,0.0,0.0,0.0,0.0,0.0,0.0,0.0,0.0,0.0,0.0,0.0,0.0,0.0,0.0,0.0,0.0,0.0,0.0,0.0,0.0,0.0,0.0,0.0,0.0,0.0,0.0,0.0,0.0,0.0,0.0,0.0,0.0,0.0,0.0,0.0,0.0,0.0,0.0,0.0,0.0,0.0,0.0,0.0,0.0,0.0,0.0,0.0,0.0,0.0,0.0,0.0,0.0,0.0,0.0,0.0,0.0,0.0,0.0,0.0,0.0,0.0,0.0,0.0,0.0,0.0,0.0,0.0,0.0,0.0,0.0,0.0,0.0,0.0,0.0,0.0,0.0,0.0,0.0,0.0,0.0,0.0,0.0,1.8918,2.1449,2.3108,2.309,2.3235,2.3378,2.3509,2.1627,1.9653,0.0,0.0,0.0,0.0,0.0,0.0,0.0,0.0,0.0,0.0,0.0,0.0,0.0,0.0,0.0,0.0,0.0,0.0,0.0,0.0,0.0,0.0,0.0,0.0,0.0,0.0,0.0,0.0,0.0,0.0,0.0,0.0,0.0,0.0,0.0,0.0,0.0,0.0,0.0,0.0,0.0,0.0,0.0,0.0,0.0,0.0,0.0,0.0,0.0,0.0,0.0,0.0,0.0,0.0,0.0,0.0,0.0,0.0,0.0,0.0,0.0,0.0,0.0,0.0,0.0,0.0,0.0,0.0,0.0,0.0,0.0,0.0,0.0,0.0,0.0,0.0,0.0,0.0,0.0,0.0,0.0,0.0,0.0,0.0,0.0,0.0,0.0,0.0,0.0,0.0,0.0,0.0,0.0,0.0,0.0,0.0,0.0,0.0,0.0,0.0,0.0,0.0,0.0,1.9057,2.1576,2.3279,2.3367,2.3664,2.4047,2.4441,2.3291,2.1404,1.8766,0.0,0.0,0.0,0.0,0.0,0.0,0.0,0.0,0.0,0.0,0.0,0.0,0.0,0.0,0.0,0.0,0.0,0.0,0.0,0.0,0.0,0.0,0.0,0.0,0.0,0.0,0.0,0.0,0.0,0.0,0.0,0.0,0.0,0.0,0.0,0.0,0.0,0.0,0.0,0.0,0.0,0.0,0.0,0.0,0.0,0.0,0.0,0.0,0.0,0.0,0.0,0.0,0.0,0.0,0.0,0.0,0.0,0.0,0.0,0.0,0.0,0.0,0.0,0.0,0.0,0.0,0.0,0.0,0.0,0.0,0.0,0.0,0.0,0.0,0.0,0.0,0.0,0.0,0.0,0.0,0.0,0.0,0.0,0.0,0.0,0.0,0.0,0.0,0.0,0.0,0.0,0.0,0.0,0.0,0.0,0.0,0.0,0.0,0.0,0.0,0.0,0.0,1.9367,2.1924,2.3717,2.3943,2.4235,2.4542,2.4873,2.3985,2.2229,1.9504,0.0,0.0,0.0,0.0,0.0,0.0,0.0,0.0,0.0,0.0,0.0,0.0,0.0,0.0,0.0,0.0,0.0,0.0,0.0,0.0,0.0,0.0,0.0,0.0,0.0,0.0,0.0,0.0,0.0,0.0,0.0,0.0,0.0,0.0,0.0,0.0,0.0,0.0,0.0,0.0,0.0,0.0,0.0,0.0,0.0,0.0,0.0,0.0,0.0,0.0,0.0,0.0,0.0,0.0,0.0,0.0,0.0,0.0,0.0,0.0,0.0,0.0,0.0,0.0,0.0,0.0,0.0,0.0,0.0,0.0,0.0,0.0,0.0,0.0,0.0,0.0,0.0,0.0,0.0,0.0,0.0,0.0,0.0,0.0,0.0,0.0,0.0,0.0,0.0,0.0,0.0,0.0,0.0,0.0,0.0,0.0,0.0,0.0,0.0,0.0,0.0,0.0,1.9645,2.2361,2.4246,2.4612,2.4853,2.4962,2.4962,2.4113,2.2536,2.0098,0.0,0.0,0.0,0.0,0.0,0.0,0.0,0.0,0.0,0.0,0.0,0.0,0.0,0.0,0.0,0.0,0.0,0.0,0.0,0.0,0.0,0.0,0.0,0.0,0.0,0.0,0.0,0.0,0.0,0.0,0.0,0.0,0.0,0.0,0.0,0.0,0.0,0.0,0.0,0.0,0.0,0.0,0.0,0.0,0.0,0.0,0.0,0.0,0.0,0.0,0.0,0.0,0.0,0.0,0.0,0.0,0.0,0.0,0.0,0.0,1.5149,0.0,0.0,0.0,0.0,0.0,0.0,0.0,0.0,0.0,0.0,0.0,0.0,0.0,0.0,0.0,0.0,0.0,0.0,0.0,0.0,0.0,0.0,0.0,0.0,0.0,0.0,0.0,0.0,0.0,0.0,0.0,0.0,0.0,0.0,0.0,0.0,0.0,0.0,0.0,0.0,0.0,1.9423,2.2322,2.4276,2.438,2.4981,2.5354,2.5354,2.4991,2.3703,2.1282,1.9834,0.0,0.0,0.0,0.0,0.0,0.0,0.0,0.0,0.0,0.0,0.0,0.0,0.0,0.0,0.0,0.0,0.0,0.0,0.0,0.0,0.0,0.0,0.0,0.0,0.0,0.0,0.0,0.0,0.0,0.0,0.0,0.0,0.0,0.0,0.0,0.0,0.0,0.0,0.0,0.0,0.0,0.0,0.0,0.0,0.0,0.0,0.0,0.0,0.0,0.0,0.0,0.0,0.0,0.0,0.0,0.0,0.0,0.0,0.0,0.0,1.6909,0.0,0.0,0.0,0.0,0.0,0.0,0.0,0.0,0.0,0.0,0.0,0.0,0.0,0.0,0.0,0.0,0.0,0.0,0.0,0.0,0.0,0.0,0.0,0.0,0.0,0.0,0.0,0.0,0.0,0.0,0.0,0.0,0.0,0.0,0.0,0.0,0.0,0.0,0.0,0.0,2.0333,2.3086,2.4952,2.5179,2.5579,2.583,2.583,2.5385,2.4397,2.2807,2.107,0.0,0.0,0.0,0.0,0.0,0.0,0.0,0.0,0.0,0.0,0.0,0.0,0.0,0.0,0.0,0.0,0.0,0.0,0.0,0.0,0.0,0.0,0.0,0.0,0.0,0.0,0.0,0.0,0.0,0.0,0.0,0.0,0.0,0.0,0.0,0.0,0.0,0.0,0.0,0.0,0.0,0.0,0.0,0.0,0.0,0.0,0.0,0.0,0.0,0.0,0.0,0.0,0.0,2.2126,2.2683,2.3813,2.3478,2.3804,2.4513,2.1891,2.0829,2.0872,0.0,0.0,0.0,0.0,0.0,0.0,0.0,0.0,0.0,0.0,0.0,0.0,0.0,0.0,0.0,0.0,0.0,0.0,0.0,0.0,0.0,0.0,0.0,0.0,0.0,2.0477,2.0391,0.0,0.0,0.0,0.0,0.0,0.0,0.0,0.0,0.0,0.0,0.0,0.0,2.1584,2.4012,2.564,2.6026,2.615,2.6194,2.6194,2.5631,2.4969,2.4249,2.2368,2.0546,0.0,0.0,0.0,0.0,0.0,0.0,0.0,0.0,0.0,0.0,0.0,0.0,0.0,0.0,0.0,0.0,0.0,0.0,0.0,0.0,0.0,0.0,0.0,0.0,0.0,0.0,0.0,0.0,0.0,0.0,0.0,0.0,1.5002,1.6253,0.0,0.0,0.0,0.0,0.0,0.0,0.0,0.0,0.0,0.0,0.0,0.0,0.0,2.1686,2.3106,2.4438,2.5109,2.5169,2.6839,2.7197,2.6349,2.6797,2.7084,2.7195,2.6762,0.0,2.3195,2.2505,0.0,0.0,0.0,0.0,0.0,0.0,0.0,0.0,0.0,0.0,0.0,0.0,0.0,0.0,0.0,0.0,0.0,0.0,0.0,0.0,0.0,0.0,2.3165,2.3252,2.4074,2.4551,0.0,2.0409,1.8092,1.8323,1.737,0.0,0.0,0.0,0.0,0.0,0.0,0.0,2.2429,2.431,2.5505,2.5594,2.5963,2.6194,2.6194,2.6128,2.5731,2.5002,2.4083,2.2633,2.0486,1.9531,0.0,0.0,0.0,0.0,0.0,0.0,0.0,0.0,0.0,0.0,0.0,0.0,0.0,0.0,0.0,0.0,0.0,0.0,0.0,0.0,0.0,0.0,0.0,0.0,0.0,0.0,0.0,0.0,0.0,1.4523,1.6391,1.704,1.7046,1.6609,0.0,0.0,0.0,0.0,0.0,0.0,0.0,0.0,0.0,2.3005,2.3897,2.4891,2.6039,2.698,2.762,2.7886,2.8768,2.9116,2.8927,2.9218,2.9319,2.9319,2.9319,2.8449,2.6904,2.5523,2.4122,2.2758,0.0,0.0,0.0,0.0,2.1066,2.1259,2.2735,2.2568,0.0,2.1661,0.0,0.0,0.0,0.0,0.0,0.0,0.0,0.0,0.0,0.0,0.0,2.4757,2.5518,2.6038,2.5606,2.4167,2.2512,0.0,1.9841,1.8896,1.8098,0.0,0.0,0.0,0.0,2.2608,2.4127,2.5947,2.6953,2.6559,2.6708,2.6634,2.6227,2.6194,2.6062,2.5731,2.5035,2.4174,2.3222,2.1665,2.0049,0.0,0.0,0.0,0.0,0.0,0.0,0.0,0.0,0.0,0.0,0.0,0.0,0.0,0.0,0.0,0.0,0.0,0.0,0.0,0.0,0.0,0.0,0.0,0.0,0.0,0.0,0.0,0.0,1.6292,1.8147,1.8543,1.92,1.9065,0.0,0.0,0.0,0.0,0.0,0.0,2.2776,2.3404,2.4661,2.6659,2.7455,2.8206,2.8913,2.9435,2.99,3.0335,3.0335,3.0582,3.1076,3.0902,3.0844,3.0815,3.067,3.0321,2.9711,2.7888,2.646,2.5295,2.4163,2.366,2.3645,2.4164,2.4373,2.4587,2.6116,2.6039,2.5197,2.4891,0.0,2.278,2.115,0.0,0.0,0.0,0.0,2.3438,2.4576,2.5283,2.5858,2.6483,2.7233,2.7765,2.7476,2.7433,2.665,0.0,2.2811,2.1965,2.0835,0.0,0.0,0.0,0.0,2.4821,2.6082,2.7513,2.8177,2.7647,2.759,2.7348,2.68,2.6601,2.6468,2.6468,2.5797,2.53,2.5102,2.352,2.2103,2.0984,0.0,0.0,0.0,0.0,0.0,0.0,0.0,0.0,0.0,0.0,0.0,0.0,0.0,0.0,0.0,0.0,0.0,0.0,0.0,0.0,0.0,0.0,0.0,0.0,0.0,0.0,0.0,0.0,0.0,2.2192,2.2642,0.0,0.0,0.0,0.0,2.1363,2.3709,2.5063,2.4862,2.6981,2.8568,2.9378,3.0596,3.1597,3.2264,3.2293,3.2322,3.2351,3.2351,3.238,3.238,3.1742,3.1452,3.1423,3.0844,3.0569,3.0452,2.913,2.8118,2.7316,2.6638,2.6312,2.6248,2.6396,2.6449,2.6491,2.6696,2.6749,2.6765,2.7318,2.6991,2.6247,2.5551,2.5349,0.0,0.0,2.6004,2.6707,2.7347,2.7945,2.8578,2.9242,3.0301,3.087,2.9845,2.9526,2.9015,0.0,2.6677,2.6224,2.6202,0.0,2.5407,2.6147,2.637,2.6893,2.81,2.8333,2.8376,2.8343,2.8343,2.8343,2.8276,2.7647,2.7249,2.7249,2.6535,2.583,2.5135,2.5002,2.3918,2.1779,2.0194,0.0,0.0,0.0,0.0,0.0,0.0,0.0,0.0,0.0,0.0,0.0,0.0,0.0,0.0,0.0,0.0,0.0,0.0,0.0,0.0,0.0,0.0,0.0,0.0,0.0,0.0,0.0,0.0,2.3242,2.4443,0.0,2.342,2.4037,2.4762,2.5397,2.6759,2.8034,2.913,2.9984,3.0957,3.2064,3.2558,3.3093,3.3715,3.3715,3.3529,3.3138,3.3138,3.2919,3.2497,3.2264,3.2148,3.2148,3.1932,3.1816,3.1758,3.0858,2.9856,2.8828,2.8596,2.8264,2.7932,2.8364,2.8523,2.861,2.9087,2.8956,2.8492,2.7898,2.7523,2.7265,2.7046,2.6989,2.7089,2.7508,2.8095,2.8653,2.8861,2.9594,3.036,3.0685,3.1417,3.1957,3.1619,3.1565,3.144,3.0948,2.8839,2.7086,2.6956,2.715,2.7278,2.6958,2.7784,2.8563,2.8999,2.945,2.9572,2.9085,2.9052,2.8883,2.8519,2.7797,2.7402,2.7484,2.6798,2.6289,2.6022,2.5989,2.5155,2.3379,2.1926,1.9757,0.0,0.0,0.0,0.0,0.0,0.0,0.0,0.0,0.0,0.0,0.0,0.0,0.0,0.0,0.0,0.0,0.0,0.0,0.0,0.0,0.0,0.0,0.0,0.0,0.0,0.0,2.4491,2.4896,2.6444,2.7204,2.6558,2.7075,2.7965,2.916,2.9697,3.0539,3.1771,3.2032,3.2571,3.3474,3.369,3.3993,3.4382,3.4632,3.4532,3.4143,3.4329,3.4196,3.3773,3.3587,3.347,3.3441,3.3035,3.2832,3.2774,3.2119,3.1336,3.0553,3.0117,2.9697,2.9392,2.9784,2.9958,3.0016,3.0437,3.0321,2.9842,2.9182,2.8988,2.903,2.9208,2.9276,2.9395,2.9824,3.0234,3.0549,3.0549,3.1238,3.1968,3.2068,3.2652,3.3127,3.2933,3.2981,3.3006,3.274,3.0816,2.9193,2.9032,2.9463,2.9572,2.8741,2.9499,3.0059,2.9794,3.0191,3.0323,2.9827,2.9801,2.9696,2.9266,2.8372,2.787,2.7952,2.7038,2.6393,2.6108,2.6108,2.5363,2.3858,2.2214,2.0378,1.837,0.0,0.0,0.0,0.0,0.0,0.0,0.0,0.0,0.0,0.0,0.0,0.0,0.0,0.0,0.0,0.0,0.0,0.0,0.0,0.0,0.0,0.0,0.0,2.1614,2.4492,2.6899,2.7437,2.8785,2.9899,3.0417,3.1101,3.1785,3.2468,3.2526,3.2526,3.2555,3.3196,3.3532,3.3561,3.4138,3.4441,3.4441,3.5113,3.5421,3.5421,3.5996,3.6257,3.6228,3.5636,3.5363,3.5334,3.4084,3.3561,3.3532,3.2861,3.2584,3.2468,3.1134,3.0627,3.0627,3.0627,3.0598,3.0628,3.0628,3.0643,3.0762,3.1335,3.1523,3.1637,3.2216,3.2382,3.2396,3.2396,3.241,3.2437,3.2437,3.2935,3.3443,3.3443,3.4073,3.4505,3.378,3.3742,3.3635,3.2906,3.2774,3.274,3.2707,3.2707,3.2475,3.1747,3.1648,0.0,3.0654,3.0555,3.0566,3.0522,3.0636,3.0719,3.0719,2.9484,2.8714,2.8723,2.7315,2.6117,2.538,2.5313,2.4653,2.3204,2.1081,1.9968,1.996,0.0,0.0,0.0,0.0,0.0,0.0,0.0,0.0,0.0,0.0,0.0,0.0,0.0,0.0,0.0,0.0,0.0,0.0,0.0,0.0,0.0,2.4399,2.6216,2.5159,2.7187,2.9016,2.9638,3.0823,3.1662,3.1898,3.2024,3.2401,3.3167,3.3226,3.3429,3.386,3.4051,3.4387,3.4869,3.5043,3.5346,3.5775,3.5967,3.5839,3.5392,3.5566,3.5404,3.4905,3.4748,3.4939,3.5363,3.5043,3.5113,3.5473,3.4852,3.4591,3.4387,3.2135,3.1264,3.1206,3.0757,3.0881,3.1248,3.1248,3.1537,3.1936,3.209,3.2146,3.2174,3.2341,3.242,3.2458,3.2458,3.285,3.3274,3.3274,3.3732,3.4218,3.4317,3.4546,3.4661,3.458,3.4561,3.4518,3.4319,3.4298,3.3967,3.2873,3.2707,3.2641,3.2442,3.2398,0.0,3.21,3.2187,3.1999,3.136,3.1434,3.1316,3.0874,2.947,2.8708,2.8918,2.6986,2.6008,2.6303,2.5797,2.5317,2.4929,2.2707,2.1581,0.0,0.0,0.0,0.0,0.0,0.0,0.0,0.0,0.0,0.0,0.0,0.0,0.0,0.0,0.0,0.0,0.0,0.0,0.0,0.0,0.0,0.0,2.6928,2.8626,2.8712,2.9879,3.0969,3.1744,3.2407,3.3041,3.3674,3.3405,3.3504,3.4242,3.4039,3.4022,3.4382,3.4661,3.4997,3.5392,3.5636,3.5956,3.6315,3.6315,3.6112,3.5781,3.5781,3.5561,3.5212,3.5212,3.5415,0.0,3.5508,3.5595,3.5851,3.5229,3.5156,0.0,0.0,0.0,0.0,0.0,3.2464,3.2725,3.2393,3.2515,3.2807,3.2746,3.272,3.2774,3.3047,3.3174,3.3235,3.3235,3.3585,3.3986,3.3986,3.428,3.4606,3.4679,3.4727,3.4799,3.4871,3.4883,3.4883,3.4883,3.4883,0.0,3.3768,3.3635,3.3536,3.3204,3.3216,3.3117,3.2818,3.2895,3.2783,3.2296,3.2049,3.1775,3.1422,3.0065,0.0,0.0,0.0,2.6512,2.6438,2.5729,0.0,0.0,0.0,0.0,0.0,0.0,0.0,0.0,2.3131,2.2745,0.0,0.0,0.0,0.0,0.0,0.0,0.0,0.0,0.0,0.0,0.0,0.0,0.0,0.0,0.0,0.0,2.8966,3.0337,3.1951,3.2302,3.2663,3.3412,3.3561,3.4084,3.5276,3.4881,3.4806,3.5566,3.5067,3.476,3.4818,0.0,0.0,0.0,0.0,3.6519,3.6519,3.6519,3.6519,3.6519,3.646,3.6356,3.6315,3.6228,3.6235,3.6294,3.5758,3.5577,3.5692,3.5103,3.5149,3.5494,3.4211,3.4061,3.4542,3.4526,3.4575,3.4602,3.3877,0.0,0.0,3.3598,3.3517,3.3532,3.4097,3.4303,3.4349,3.4349,3.4436,3.4546,3.4546,3.4631,3.4715,3.4715,3.4799,3.4883,3.4883,3.4883,3.4883,3.4883,3.4894,3.4906,3.4906,3.4906,3.4707,3.4056,3.406,3.3918,3.3251,3.3294,3.3337,3.3225,0.0,0.0,3.2244,3.1026,2.9995,2.9345,2.8523,2.7571,2.6469,2.5868,2.6021,2.6993,2.707,2.7811,2.9158,2.9263,3.0074,3.1406,2.5773,2.4924,0.0,0.0,0.0,0.0,0.0,0.0,0.0,0.0,0.0,0.0,0.0,0.0,0.0,0.0,0.0,2.8695,3.0703,3.2323,3.3107,3.3503,3.366,3.3529,3.3923,3.4532,3.5334,3.5276,3.5694,3.6838,3.6809,3.6936,3.7447,3.7593,3.7651,3.7651,3.7767,3.7825,3.7825,3.7825,3.7825,3.7825,0.0,0.0,3.6286,3.581,3.5861,3.6361,3.6259,3.68,3.7737,3.7599,3.7349,3.6884,3.5553,3.5156,3.5306,3.4718,3.5161,3.5926,3.525,3.5322,3.5763,3.5842,3.5467,3.5007,3.5255,3.498,0.0,3.4618,3.4715,3.4811,3.4811,3.4823,3.4847,3.4847,3.4871,3.4883,3.4883,3.4883,3.4883,3.4883,3.4999,3.5069,3.5069,3.5069,3.5003,3.487,3.4953,3.5,3.4866,3.4936,3.4779,3.4052,3.3984,3.3702,3.3129,3.1978,3.1271,3.1198,3.0213,2.9257,2.8376,2.8852,2.9219,2.9429,3.0067,3.0541,3.0823,3.1422,3.2225,3.3081,3.065,3.0226,0.0,0.0,0.0,0.0,0.0,0.0,0.0,0.0,0.0,0.0,0.0,2.4998,2.6365,0.0,2.944,3.127,3.2618,3.3762,3.4634,3.5016,3.5021,3.4503,3.4707,3.5288,3.6275,3.6362,3.674,3.768,3.7767,3.7883,3.8173,3.8522,3.8696,3.8696,3.8986,3.916,3.916,3.8841,3.8696,3.8696,3.8455,3.8173,3.7836,3.7605,3.7483,3.7433,3.7082,3.7093,3.7368,3.7716,3.7686,3.7374,3.7014,3.6748,3.6478,3.6527,3.6969,3.7402,3.681,3.6788,3.6998,3.6718,3.6339,3.6058,3.6122,3.5974,3.5712,3.535,3.5349,3.5379,3.4982,3.4883,3.4883,3.4883,3.4883,3.4883,3.4883,3.4942,3.5011,3.5011,3.5116,3.5246,3.5464,3.5554,3.5521,3.5245,3.5303,3.5475,3.5678,3.5822,3.5828,3.5565,3.5294,3.4946,3.4568,3.3342,3.263,3.2666,3.1765,3.1153,3.0894,3.1304,3.1766,3.235,3.2759,3.3168,3.3562,3.3911,3.4519,3.5262,3.45,3.413,0.0,0.0,0.0,0.0,0.0,0.0,0.0,2.2658,2.3429,2.5878,2.6903,2.7995,2.9988,3.0596,3.1537,3.3779,3.4347,3.4865,3.5892,3.6208,3.617,3.5828,3.5636,3.6072,3.736,3.7458,3.7825,3.8696,3.8754,3.8812,3.8957,3.9479,3.977,3.977,4.0234,4.0495,4.0495,4.0002,3.977,3.977,3.9914,3.9901,3.9787,3.9933,3.968,3.9066,3.8417,3.7732,3.7107,3.7508,3.7682,3.774,3.8276,3.8162,3.7755,3.8361,3.8697,3.8772,3.8204,3.7983,3.7885,3.7321,3.7072,3.6954,3.6967,3.6959,3.6805,3.6211,3.6121,3.6042,3.5313,3.5114,3.5081,3.4916,3.4883,3.4894,3.4918,3.5083,3.5223,3.5246,3.543,3.5666,3.6015,3.6175,3.6114,3.5656,3.5678,3.5899,3.6196,3.6357,3.6553,3.686,3.6383,3.5964,3.5899,3.4844,3.4146,3.4047,3.3459,3.3226,3.3486,3.3501,3.3926,3.4844,3.5033,3.5424,3.6077,3.6229,3.6636,3.7261,3.7261,3.6909,2.1257,2.0866,2.1058,2.3398,2.307,2.355,0.0,2.842,2.7767,3.0132,3.1324,3.1968,3.2019,3.3106,3.4199,3.4853,3.5282,3.5683,3.6197,3.6297,3.6489,3.7012,3.6577,3.6693,3.797,3.8115,3.8841,4.0641,4.0786,4.1047,4.1628,4.1715,4.1773,4.1773,4.1831,4.1889,4.1889,4.1802,4.1773,4.1793,4.1912,4.1681,4.1179,4.1324,4.1378,4.129,4.063,4.0035,3.9465,3.887,3.8637,3.865,3.8738,3.8692,3.8623,3.86,3.9093,3.9645,3.8952,3.869,3.8685,3.8728,3.8354,3.7887,3.8005,3.7594,3.7077,3.6977,3.699,3.6804,3.6075,3.5876,3.5711,3.5048,3.4883,3.4918,3.5069,3.5373,3.5688,3.5787,3.6204,3.6565,3.6606,3.6706,3.6761,3.6565,3.6671,3.6761,3.6801,3.6821,3.6841,3.689,3.6829,3.6623,3.6257,3.6202,3.6034,3.5683,3.5623,3.5604,3.5634,3.5634,3.5722,3.5825,3.6554,3.6947,3.7057,3.7757,3.8166,3.8239,3.8239,3.8117,2.4312,2.4406,2.455,2.5897,2.6361,2.7208,3.0005,3.026,3.0487,3.2524,3.3566,3.4163,3.4416,3.4955,3.5597,0.0,3.683,3.7205,3.74,3.7418,3.7389,3.7331,3.6722,3.7099,3.9102,3.9305,3.9973,4.157,4.1686,4.1802,4.2092,4.2092,4.2092,4.2092,4.2092,4.2092,4.2092,4.2546,4.2809,4.2809,4.3804,4.4223,4.4078,4.4172,4.3841,4.3169,4.2457,4.2035,4.1748,4.1031,4.0474,4.0033,3.9607,3.9223,3.8931,3.8862,3.9073,3.9339,3.9152,3.9094,3.9094,3.9161,3.8976,3.8758,3.8825,3.8639,3.8308,3.7864,3.7752,3.7579,3.6937,3.6974,3.7092,3.6883,3.6673,3.6544,3.6588,3.644,3.6309,3.635,3.6606,3.6874,3.7116,3.7192,3.7321,3.755,3.7189,3.6988,3.7227,3.7255,3.7367,3.7685,3.7721,3.7666,3.7519,3.7569,3.7543,3.7369,3.7372,3.7395,3.7395,3.7395,3.7395,3.7395,3.7716,3.7898,3.7898,3.8226,3.8417,3.8417,3.8417,3.8377,2.6197,2.6725,2.7137,2.8036,2.9246,3.0399,3.119,3.1881,3.2758,3.4312,3.5165,3.5776,3.6274,3.645,3.6746,3.744,3.8001,3.8349,3.8231,3.8202,3.797,3.7389,3.6722,3.7099,3.9131,3.9654,4.0408,4.1715,4.2005,4.2092,4.2092,4.2092,4.2216,4.2412,4.2433,4.2447,4.2463,4.3039,4.3232,4.3108,4.4499,4.5288,4.55,4.597,4.5718,4.4879,4.4139,4.3758,4.3558,4.2805,4.2198,4.1672,4.1114,4.0644,4.0235,3.9806,3.941,3.9107,3.9242,3.9315,3.9315,3.9315,3.9315,3.9315,3.9315,3.9315,3.9222,3.8874,3.8746,3.8656,3.8149,3.8306,3.8505,3.8413,3.8207,3.8035,3.8067,3.7792,3.7466,3.7275,3.744,3.7624,3.7685,3.7703,3.7809,3.8174,3.7685,3.7386,3.7667,3.7729,3.7914,3.8279,3.8348,3.8336,3.8409,3.8433,3.8441,3.8441,3.8465,3.8481,3.8481,3.8481,3.8481,3.8481,3.8481,3.8481,3.8481,3.8481,3.8481,3.8481,3.8481,3.859,2.593,2.6551,2.7753,2.9734,3.1235,3.2486,3.3556,3.4277,3.4942,3.5762,3.6489,3.7006,3.7218,3.7581,3.791,3.8136,3.8572,3.8717,3.8252,3.8202,3.797,3.7389,3.6722,3.6606,0.0,3.8522,3.977,4.1018,4.1715,4.2092,4.2092,4.2092,4.2474,4.326,4.328,4.3273,4.3364,4.3371,4.3156,4.2623,4.3469,4.3967,4.4219,4.57,4.6454,4.6469,4.5745,4.5129,4.4589,4.3863,4.3517,4.3517,4.3499,4.3499,4.33,4.1844,4.0448,3.9269,3.9315,3.9315,3.9315,3.9315,3.9315,3.9315,3.9315,3.9315,3.9428,3.9986,4.0139,4.0117,3.995,3.9921,3.9758,3.9035,3.8883,3.889,3.9031,3.9338,3.9423,3.8762,3.9013,3.9098,3.831,3.8165,3.8199,3.829,3.8282,3.8266,3.8282,3.8328,3.8393,3.8409,3.8409,3.8409,3.8417,3.8444,3.8483,3.8483,3.8635,3.8673,3.8673,3.8673,3.8673,3.8673,3.8673,3.8673,3.8673,3.8673,3.8673,3.8673,3.8673,3.9122,2.7898,2.8885,3.0071,3.2445,3.3694,3.4679,3.5865,3.6627,3.6906,3.6324,3.6382,3.6447,3.6083,3.6164,3.6389,3.6849,3.8146,3.888,3.827,3.8928,3.8754,3.6867,3.6431,0.0,0.0,0.0,0.0,4.035,4.1047,4.1628,4.2063,4.2616,4.3021,4.3269,4.3819,4.3926,4.3593,4.4122,4.4134,4.3614,4.4509,4.4952,4.5065,4.6207,4.6779,4.6827,4.7043,4.7058,4.6841,4.6079,4.5516,4.5019,4.4522,4.4011,4.3532,4.3035,4.2553,4.1872,3.9965,3.9315,3.9315,3.9315,3.9315,3.9362,3.9765,3.9906,4.0011,4.0626,4.0803,4.0804,4.0848,4.1089,4.1287,4.1113,4.0922,4.0783,4.0812,4.0522,4.0148,3.9932,4.0004,4.0075,3.9899,3.9427,3.8908,3.8425,3.8368,3.8368,3.8368,3.8393,3.8433,3.8444,3.8452,3.8512,3.8604,3.8627,3.8643,3.8643,3.8666,3.8681,3.8681,3.8681,3.8681,3.8681,3.8681,3.8681,3.8681,3.8681,3.8982,3.9496,3.9496,3.9937,3.0233,3.1278,3.2249,3.505,3.6257,3.6914,3.7506,3.7912,3.7854,3.6577,3.6141,3.5781,3.5171,3.5026,3.5317,3.617,3.7738,3.8783,3.858,3.945,3.9421,3.7564,3.7128,3.6838,0.0,0.0,0.0,3.9731,4.1085,4.2105,4.2578,4.3388,4.3982,4.4346,4.4837,4.4969,4.4672,4.4906,4.4651,4.3864,4.452,4.4949,4.5228,4.5834,4.6378,4.6941,4.7404,4.7769,4.7968,4.7504,4.7007,4.6575,4.6293,4.5918,4.5447,4.5221,4.5134,4.4687,4.1506,4.0408,4.036,4.0036,3.9957,4.0032,4.0397,4.0518,4.065,4.124,4.1407,4.1508,4.1778,4.2108,4.2342,4.2438,4.2284,4.2112,4.2112,4.1778,4.1334,4.1044,4.1034,4.0979,4.0758,4.0355,3.9879,3.9398,3.911,3.8817,3.8493,3.8481,3.8512,3.8567,3.8567,3.859,3.8681,3.8681,3.8681,3.8681,3.8681,3.8681,3.8681,3.8681,3.8681,3.8681,3.8982,3.9129,3.9129,3.9415,3.9819,4.0341,4.0341,4.0773,3.2687,3.3566,3.4293,3.7516,3.8754,3.9044,3.8405,3.8202,3.7767,3.6431,3.5665,3.4985,3.4254,3.4179,3.4644,3.5891,3.7273,3.8434,3.9102,3.977,3.9944,0.0,0.0,0.0,0.0,0.0,0.0,3.9448,0.0,4.3417,4.3563,4.4392,4.5269,4.6184,4.6255,4.63,4.6405,4.5668,4.4664,4.3467,4.3553,4.3977,4.4637,4.467,4.545,4.6775,4.6874,4.7321,4.7983,4.8017,4.8082,4.8147,4.8746,4.896,4.8897,4.8259,4.8014,4.753,4.3981,4.2618,4.2321,4.1509,4.1162,4.1093,4.1127,4.1138,4.1262,4.1874,4.2041,4.219,4.2768,4.2892,4.2892,4.2892,4.2892,4.2892,4.2901,4.3003,4.2886,4.2096,4.2031,4.181,4.1016,4.0974,4.1033,4.0996,4.0402,3.962,3.869,3.8635,3.8681,3.8681,3.8681,3.8681,3.8681,3.8681,3.8681,3.8681,3.8681,3.8681,3.8681,3.8726,3.8755,3.8755,3.9533,3.9981,3.9981,4.0736,4.1132,4.1168,4.1168,4.158,3.3819,3.5543,3.7382,3.9189,3.9421,3.916,3.8986,3.8202,3.6896,3.4678,3.3296,3.2019,3.0437,3.1293,3.2526,3.3338,3.6123,3.8434,3.9102,4.0583,0.0,3.9392,0.0,4.0241,3.9391,4.1053,0.0,0.0,4.3088,4.3907,4.4437,4.5342,4.5939,4.6202,4.6843,4.696,4.6552,4.5428,4.4696,4.4344,4.3863,4.3712,4.3911,4.4456,4.4902,4.5333,4.6411,4.726,4.7879,4.8433,4.9006,4.9527,4.9653,4.9784,4.9864,4.9695,4.959,4.9402,4.785,4.5528,4.3187,4.2973,4.2103,4.1172,4.1614,4.1778,4.1895,4.2518,4.2664,4.2693,4.2863,4.2892,4.2892,4.2892,4.2892,4.2947,4.3012,4.3077,4.3041,4.2905,4.2967,4.2782,4.1969,4.19,4.1776,4.1144,4.0903,4.0471,3.9656,3.904,3.8681,3.8681,3.8681,3.8681,3.8681,3.8681,3.8681,3.8681,3.8681,3.8681,3.8681,3.9276,3.957,3.957,4.0369,4.0773,4.0773,4.0993,4.1397,4.1984,4.1984,4.2433,3.6431,3.7941,3.9363,4.0641,4.0292,3.9305,3.8173,3.6936,3.5154,3.2035,3.0786,2.9784,2.8172,2.9406,3.1075,3.2293,3.5224,3.7883,3.9392,4.0866,4.162,0.0,4.1934,0.0,4.2052,4.3408,4.4358,0.0,4.4687,4.5043,4.5543,4.6378,4.6896,4.6982,4.7471,4.7391,4.673,4.5999,4.5499,4.5167,4.4754,4.4423,4.4092,4.4489,4.4703,4.4752,0.0,4.6708,4.7397,4.8104,4.8819,4.9576,4.9887,5.0247,5.0635,5.0589,5.06,5.0487,4.9746,4.7674,4.5357,4.5357,4.4494,4.3543,4.3887,4.3468,4.2991,4.3322,4.3181,4.2892,4.2892,4.2892,4.2892,4.2892,4.292,4.3003,4.3086,4.3169,4.326,4.3322,4.3384,4.3318,4.2833,4.2803,4.2653,4.2213,4.1837,4.147,4.1001,4.0267,3.9745,3.9745,3.9745,3.9745,3.9745,3.9423,3.9239,3.9239,3.9239,3.9239,3.9239,4.001,4.043,4.047,4.1242,4.1699,4.174,4.2059,4.2463,4.2954,4.2904,4.3133,3.9354,4.0234,4.0583,4.1599,4.0815,3.9189,3.6635,3.4934,3.2861,2.9188,2.8389,2.7882,2.6546,2.797,2.9972,3.18,3.4358,3.7019,3.9634,4.0861,4.1982,4.3375,4.3963,4.4468,4.5146,4.5939,4.6413,4.6448,4.6448,4.6501,4.664,4.7354,4.7803,4.7984,4.8001,4.7703,4.704,4.6941,4.6576,4.5947,4.5863,4.545,4.4836,4.4927,4.4906,4.4867,4.5573,0.0,4.6985,4.7589,4.8344,4.9191,4.9758,5.0434,5.1056,5.0987,5.0969,5.0884,5.0321,4.9184,4.7978,4.7761,4.7145,4.6504,4.6504,4.5599,4.4548,4.444,4.3833,4.3218,4.3218,4.3082,4.2947,4.3065,4.3085,4.3123,4.3132,4.3287,4.3447,4.3489,4.3506,4.3506,4.3506,4.3549,4.3583,4.3583,4.2991,4.2574,4.2574,4.1711,4.112,4.1168,4.1132,4.1156,4.1204,4.0601,4.0174,4.0174,4.019,4.019,4.019,4.0956,4.1422,4.1471,4.2284,4.2739,4.2854,4.3454,4.3787,4.3897,4.3779,4.3787,3.9799,4.0902,4.1541,4.067,3.9479,3.7854,3.5328,3.2919,3.0466,2.7707,2.6691,2.5749,2.3925,2.6013,2.8478,2.9871,3.2857,3.605,3.9165,4.0867,4.2342,4.3656,4.4992,4.5903,4.6205,4.6965,0.0,0.0,4.7688,4.7638,4.7488,4.777,4.7968,4.8001,4.8001,4.7934,4.7802,4.7206,4.6841,4.6709,4.6079,4.5715,4.5647,4.6129,4.607,4.5591,4.6879,0.0,4.7591,4.8322,4.905,4.9756,4.9874,5.0061,5.0283,5.0287,5.0285,5.0248,5.0137,4.9919,4.9449,4.8134,4.7145,4.6504,4.6504,4.6757,4.6928,4.6287,4.549,4.4874,4.4874,4.399,4.3222,4.3895,4.3596,4.3205,4.3332,4.3402,4.3489,4.3506,4.3506,4.3506,4.3506,4.3714,4.39,4.39,4.399,4.4047,4.4047,4.2318,4.118,4.1401,4.143,4.1541,4.1802,4.1777,4.1704,4.1704,4.1718,4.1713,4.1713,4.249,4.2941,4.2954,4.3775,4.4226,4.424,4.4377,4.4445,4.4459,4.4445,4.4445,3.9944,4.1076,4.1773,4.0437,3.8899,3.6809,3.3238,3.0684,2.8187,2.4977,2.4048,2.3543,2.2603,2.4476,2.6825,2.8826,3.1351,3.4451,3.8484,4.012,4.1846,4.4377,4.5752,4.6709,4.7236,4.7638,4.7902,4.7984,4.8001,4.7952,4.7836,4.7952,4.8001,4.8001,4.8001,4.8001,4.8001,4.7636,4.7471,4.7471,4.7438,4.727,4.6974,4.7578,4.7505,4.6941,4.7509,0.0,4.782,4.8045,4.8618,4.9375,4.9375,4.9672,5.0064,4.9619,4.9474,4.9438,4.9003,4.8858,4.8713,4.7942,4.7725,4.7761,4.7761,4.7477,4.7093,4.6694,4.6045,4.5477,4.5477,4.4933,4.4498,4.4862,4.4427,4.3971,4.407,4.3911,4.3747,4.3747,4.3855,4.398,4.398,4.4102,4.4206,4.4206,4.4336,4.439,4.439,4.3504,4.2902,4.3018,4.303,4.3113,4.3286,4.2957,4.2737,4.2737,4.2731,4.2705,4.2705,4.353,4.3989,4.4021,4.443,4.4669,4.4707,4.4669,4.4669,4.4707,4.4669,4.4903,3.9886,4.1076,4.1715,4.0089,3.8376,3.5909,3.1425,2.8797,2.6287,2.273,2.1888,2.1772,2.1772,2.32,2.5259,2.7882,2.9774,3.2676,3.7577,3.9332,4.1461,4.5034,4.6408,0.0,4.7952,4.8001,0.0,4.8001,4.8001,4.8001,4.8001,4.8001,4.8001,4.8001,4.8001,4.8001,4.8001,4.8147,4.8243,4.8243,4.8868,4.8937,4.8504,4.9132,4.9049,4.8465,4.8266,0.0,0.0,4.7698,4.7965,4.863,4.863,4.9039,4.9521,4.8884,4.863,4.8558,4.7906,4.771,4.7731,4.7731,4.831,4.8927,4.8927,4.8275,4.746,4.7278,4.6693,4.6095,4.6095,4.5896,4.5651,4.5754,4.5361,4.5019,4.5139,4.4761,4.4362,4.4362,4.4377,4.439,4.439,4.4445,4.4479,4.4479,4.4539,4.4579,4.4599,4.465,4.4669,4.4624,4.4618,4.4637,4.4701,4.4132,4.3757,4.3757,4.3769,4.378,4.378,4.4451,4.4843,4.4884,4.4884,4.4908,4.496,4.4908,4.5028,4.5264,4.5212,4.5641,3.977,4.1076,4.1482,3.9015,3.7389,3.5224,3.0727,2.7767,2.521,2.2567,2.1521,2.1075,2.1075,2.2185,2.3925,2.6546,2.8205,3.1026,3.6382,3.904,4.1771,4.5269,4.6962,4.7919,4.7984,4.8001,4.8001,4.8001,4.8001,4.8001,4.8001,4.8001,4.8001,4.8001,4.8001,4.8001,4.8001,4.8668,4.9006,4.9021,4.9726,5.0028,5.0035,5.0686,5.0626,4.9985,4.9792,0.0,0.0,4.7983,4.7714,4.7797,4.7797,4.787,4.7906,4.7833,4.7797,4.7797,4.7725,4.7788,4.7871,4.7871,4.8437,4.9091,4.9091,4.9528,4.9893,4.9175,4.8393,4.7783,4.7783,4.6793,4.5883,4.6251,4.6286,4.6301,4.663,4.6074,4.5533,4.5533,4.4909,4.439,4.439,4.4599,4.4757,4.4757,4.5042,4.524,4.5293,4.5304,4.5324,4.5326,4.5115,4.5039,4.5283,4.5314,4.5309,4.5309,4.5351,4.5378,4.5378,4.5451,4.5528,4.5532,4.5532,4.5537,4.5541,4.5537,4.5916,4.6719,4.6714,4.7141,3.7476,3.8754,3.9421,3.7999,3.6402,3.4109,2.9987,2.7359,2.4948,2.2015,2.1191,2.0988,2.0988,2.1732,2.3194,2.579,2.6663,2.8785,3.3837,3.6058,3.8832,4.3261,4.5114,4.6543,0.0,0.0,4.8001,4.8001,4.8082,4.8098,4.8098,4.8098,4.8098,4.8098,4.8576,4.8842,4.8842,4.9453,4.9755,4.9769,5.0459,5.0832,5.0889,5.1563,5.1765,5.155,5.0981,0.0,0.0,4.8739,4.8123,4.7689,4.7689,4.7689,4.7689,4.7689,4.7767,4.7829,4.7829,4.7866,4.7968,4.7968,4.8227,4.8533,4.8462,4.8741,4.8995,4.8676,4.8536,4.8467,4.8467,4.8203,4.7938,4.8109,4.7782,4.7446,4.7575,4.7153,4.6559,4.6023,4.5811,4.5492,4.5036,4.5042,4.5115,4.5154,4.5277,4.5355,4.5404,4.5443,4.5467,4.5448,4.5376,4.5323,4.5443,4.5537,4.5564,4.5564,4.5581,4.5594,4.5594,4.5594,4.5594,4.5594,4.5594,4.5859,4.6394,4.6394,4.6817,4.762,4.762,4.8082,3.559,3.6954,3.7738,3.6925,3.5415,3.3122,2.9261,2.6881,2.4704,2.1899,2.1144,2.1056,2.126,2.1695,2.2723,2.4939,2.5717,2.7612,3.2076,3.4199,3.6931,4.1371,4.3164,4.4821,4.6841,4.7652,4.8066,4.8066,4.8195,4.8372,4.8545,4.8592,4.8608,4.8545,4.9282,4.9634,4.9634,5.0223,5.054,5.0519,5.1247,5.1613,5.1665,5.2138,5.2399,5.2444,5.1658,0.0,0.0,4.9209,4.8413,4.7689,4.7689,4.771,4.7777,4.7777,4.785,4.7943,4.7943,4.8032,4.8192,4.8192,4.8345,4.8514,4.8403,4.8383,4.8411,4.8495,4.8729,4.8932,4.8932,4.9121,4.9333,4.9431,4.9009,4.8623,4.8716,4.8294,4.7718,4.7122,4.6952,4.6723,4.6171,4.6099,4.6033,4.5806,4.5773,4.5711,4.5458,4.5462,4.5528,4.5541,4.5541,4.5541,4.5541,4.5573,4.5594,4.5594,4.5594,4.5594,4.5594,4.5594,4.5706,4.5975,4.5975,4.6394,4.7235,4.7235,4.7697,4.8471,4.8471,4.8933,3.4695,3.6333,3.7012,3.5741,3.4462,3.247,2.8609,2.6216,2.4273,2.2381,2.1452,2.1191,2.187,2.2004,2.2454,2.3891,2.5586,2.7978,3.1684,3.4379,3.7072,4.0062,4.1674,4.3116,4.4604,4.6818,4.8195,4.8195,4.8388,0.0,4.9357,4.9502,4.9517,4.9387,4.9919,5.0209,5.0209,5.0929,5.1279,5.1315,5.2102,5.2468,5.248,5.248,5.248,0.0,0.0,0.0,0.0,4.9209,4.8413,4.7689,4.7689,4.7788,4.7892,4.7892,4.7927,4.8002,4.8002,4.8298,4.8704,4.8704,4.8949,4.9302,4.9302,4.9056,4.8876,4.9201,4.9302,4.9302,4.9302,4.931,4.9394,4.9735,4.9803,4.9884,5.0224,4.9633,4.9083,4.9056,4.8422,4.7912,4.7964,4.7974,4.7662,4.6814,4.6699,4.6412,4.5591,4.548,4.5537,4.5586,4.559,4.559,4.559,4.5594,4.5594,4.5594,4.5594,4.5594,4.5594,4.5594,4.6013,4.6889,4.6889,4.7274,4.8082,4.8082,4.8548,4.9394,4.9394,4.9861,3.0466,3.1409,3.1945,3.1555,3.0815,2.9537,2.6997,2.5923,2.482,2.2468,2.2167,2.2243,2.2033,2.2407,2.3635,2.6327,2.7328,2.8872,3.2217,3.4659,3.714,4.0062,4.386,4.6475,0.0,0.0,4.826,4.8388,4.8932,4.9323,4.9531,5.0439,5.0733,5.0167,5.0827,5.117,5.117,5.1799,5.2114,5.2114,5.2387,5.248,5.248,5.248,5.248,0.0,0.0,0.0,0.0,5.0094,4.9339,4.8623,4.8115,4.8055,4.8326,4.8326,4.8532,4.8833,4.8833,4.894,4.9105,4.9105,4.9201,4.9356,4.957,4.9409,4.9216,4.9549,4.9627,4.9676,4.991,5.0,5.0019,5.0107,5.0125,5.0182,5.0265,5.0121,4.981,4.922,4.8919,4.8611,4.8089,4.8013,4.7908,4.7674,4.764,4.7545,4.7328,4.7294,4.7299,4.7317,4.7317,4.6855,4.571,4.5594,4.5594,4.5594,4.6163,4.6509,4.6509,4.7009,4.7432,4.7697,4.7735,4.812,4.8971,4.8971,4.9433,5.0284,5.0284,5.0438,2.7417,2.8419,2.8884,2.8884,2.8419,2.7475,2.5529,2.4878,2.4123,2.2062,2.2142,2.2524,2.2138,2.2793,2.4183,2.6572,2.7732,2.9343,3.2192,3.4829,3.7662,4.0934,4.4595,0.0,0.0,4.8241,4.8778,4.8901,4.9585,5.0118,5.0342,5.1144,5.15,5.1283,5.1712,5.1933,5.1933,5.2328,5.248,5.248,5.248,5.248,5.248,5.248,5.2515,0.0,0.0,0.0,0.0,5.0915,5.011,4.9102,4.8628,4.8436,4.8384,4.8532,4.879,4.9077,4.9177,4.9348,4.949,4.949,4.957,4.9735,4.9916,4.9844,4.9742,4.9916,5.0,5.0038,5.0242,5.0283,5.0283,5.0283,5.0283,5.0327,5.0344,5.0379,5.0265,4.9778,4.9705,4.9588,4.9109,4.9037,4.8932,4.8616,4.8582,4.8476,4.8159,4.8082,4.8082,4.8082,4.8082,4.7663,4.6629,4.6552,4.6552,4.6552,4.7048,4.7351,4.7351,4.7812,4.8235,4.8586,4.8586,4.9009,4.9899,4.9899,5.0168,5.0707,5.0707,5.0707,0.0,2.6694,2.7231,2.7231,2.6852,2.5965,2.4106,2.3241,0.0,2.126,2.1656,2.2227,2.2325,2.3219,2.4289,2.5442,2.7379,2.9621,3.2052,3.5325,3.8891,4.2651,4.436,0.0,4.6435,4.8405,4.96,4.9658,5.0356,5.0991,5.1563,5.1626,5.1909,5.2468,5.248,5.248,5.248,5.248,5.248,5.248,5.248,5.248,5.248,5.2491,5.2524,0.0,0.0,0.0,0.0,5.1613,5.0759,4.9403,4.9293,4.8929,4.8427,4.8677,4.8833,4.8932,4.9271,4.957,4.9837,4.9837,5.0051,5.0283,5.0283,5.0283,5.0283,5.0283,5.0283,5.0283,5.0283,5.0283,5.0283,5.0321,5.0327,5.0338,5.0401,5.0412,5.0451,5.0596,5.0584,5.0642,5.0697,5.0707,5.0438,4.963,4.9471,4.9202,4.8394,4.8274,4.8274,4.8274,4.8274,4.8274,4.8274,4.8159,4.8082,4.8082,4.8159,4.8197,4.8197,4.8235,4.8663,4.9471,4.9471,4.9899,5.0707,5.0707,5.0707,5.0707,5.0707,5.0707,1.9798,0.0,2.2585,2.2585,2.2846,2.2886,0.0,2.1946,2.2015,2.1314,2.1716,2.2541,2.3599,2.3925,2.529,2.9108,3.011,3.15,3.4637,3.8778,4.2561,4.5578,4.6991,4.7918,4.8621,4.9237,4.9833,5.0411,5.1039,5.1462,5.1588,5.2054,5.2364,5.2516,5.248,5.248,5.248,5.248,5.248,5.248,5.248,5.248,5.2491,5.2547,5.2568,0.0,0.0,0.0,5.2477,5.1944,5.1673,5.143,5.0278,5.0059,5.0342,4.9769,4.9728,4.9974,5.0038,5.0107,5.0194,5.0194,5.0236,5.0283,5.0283,5.0283,5.0283,5.0283,5.0283,5.0283,5.0283,5.0283,5.0294,5.0373,5.0384,5.0401,5.0468,5.0511,5.0548,5.0573,5.0658,5.0692,5.0707,5.0707,5.063,5.0438,5.0399,5.0322,5.013,5.0091,5.0091,5.0091,5.0091,5.0091,5.0091,4.8856,4.8082,4.8082,4.874,4.9086,4.9086,4.9745,5.0207,5.0399,5.0399,5.0515,5.0707,5.0707,5.0707,5.0707,5.0707,5.0707,1.7169,1.9409,2.1547,2.1547,2.2043,2.2345,2.1745,2.1637,2.148,2.0939,2.1772,2.2962,2.4056,2.5079,2.6799,3.0041,3.1572,3.3947,3.8426,4.1734,4.4775,4.7701,4.8575,4.9192,0.0,5.03,5.067,5.1091,5.1663,5.1994,5.1994,5.234,5.248,5.248,5.248,5.248,5.248,5.248,5.248,5.248,5.2549,5.2536,5.2536,5.2649,5.2739,0.0,0.0,0.0,5.3193,5.2813,5.2657,5.2592,5.1749,5.1214,5.0838,5.052,5.0245,5.0082,5.0242,5.0283,5.0283,5.0283,5.0283,5.0283,5.0283,5.0283,5.0283,5.0283,5.0283,5.0283,5.0283,5.0338,5.0367,5.0396,5.0429,5.0468,5.0527,5.0558,5.0627,5.0653,5.0687,5.0707,5.0707,5.0707,5.0707,5.0707,5.0707,5.0707,5.0707,5.0707,5.0707,5.0707,5.0707,5.0707,5.0707,4.9822,4.9279,4.9279,4.9745,5.0014,5.0014,5.0438,5.0707,5.0707,5.0707,5.0707,5.0707,5.0707,5.0707,5.0707,5.1087,5.1241,1.6588,1.9502,2.2163,2.1838,2.2395,2.2867,2.2296,2.1727,2.1187,2.0763,2.2122,2.366,2.4606,2.6565,2.8615,3.0411,3.31,3.6861,4.216,4.416,4.6178,4.9074,4.9521,0.0,5.0724,5.1273,5.1626,5.1749,5.2198,5.248,5.248,5.248,5.248,5.248,5.248,5.248,5.248,5.248,5.2491,5.2515,5.2581,5.2602,5.2624,5.2813,5.2955,5.3098,0.0,0.0,5.3795,5.3795,5.3632,5.3352,5.3201,5.2255,5.0938,5.1116,5.0636,4.9903,5.0206,5.0283,5.0283,5.0283,5.0327,5.0333,5.0333,5.03,5.035,5.035,5.03,5.0333,5.0344,5.0384,5.0424,5.0429,5.0473,5.0532,5.0584,5.0632,5.0648,5.0697,5.0707,5.0707,5.0707,5.0707,5.0707,5.0707,5.0707,5.0707,5.0707,5.0707,5.0707,5.0707,5.0707,5.0707,5.0707,5.0707,5.0707,5.0707,5.0707,5.0707,5.0707,5.0707,5.0707,5.0707,5.0707,5.0707,5.0707,5.0822,5.0899,5.0899,5.1736,5.2115,1.8285,2.0675,2.2039,2.0283,2.1187,2.2328,2.168,2.1715,2.1889,2.1913,2.3375,2.5213,2.7145,2.8629,3.0594,3.3789,3.7274,4.0601,4.3471,0.0,4.7586,4.9197,0.0,5.0697,5.1151,5.1439,5.1811,5.234,5.2445,5.248,5.248,5.248,5.248,5.248,5.248,5.248,5.248,5.248,5.2538,5.2568,5.259,5.2647,5.2783,5.3187,5.342,5.346,0.0,5.4141,5.4202,5.4202,5.4346,5.4466,5.3785,5.3079,5.2387,5.1776,5.0987,5.023,5.0265,5.0283,5.0283,5.0283,5.035,5.039,5.039,5.0429,5.0478,5.0478,5.0435,5.0401,5.0462,5.0484,5.05,5.0542,5.0563,5.0584,5.0682,5.0697,5.0697,5.0707,5.0707,5.0707,5.0707,5.0707,5.0707,5.0707,5.0707,5.0707,5.0707,5.0707,5.0707,5.0707,5.0707,5.0707,5.0707,5.0707,5.0707,5.0707,5.0707,5.0707,5.0707,5.0707,5.0707,5.0707,5.0707,5.0707,5.0707,5.1395,5.1736,5.1736,5.2582,5.3005,1.744,1.9645,2.1515,2.1606,2.3617,2.55,2.5139,2.5196,2.5342,2.5477,2.6607,2.8062,2.9522,3.1372,3.4049,3.8208,4.0567,4.2822,4.5513,4.7051,4.8526,0.0,0.0,5.1263,5.1885,5.203,5.2198,5.2468,5.248,5.248,5.248,5.248,5.248,5.248,5.2549,5.2547,5.2547,5.264,5.2638,5.2602,5.2761,5.2944,5.3203,5.3469,5.373,5.3943,0.0,5.4397,5.4576,5.4576,5.4807,5.5088,5.4708,5.3836,5.2658,5.1391,5.0621,5.0283,5.0283,5.0283,5.0321,5.0356,5.0384,5.0412,5.0446,5.0478,5.0511,5.0537,5.0505,5.0468,5.0495,5.0527,5.0553,5.0573,5.0642,5.0678,5.0702,5.0707,5.0707,5.0707,5.0707,5.0707,5.0707,5.0707,5.0707,5.0707,5.0707,5.0707,5.0707,5.0707,5.0707,5.0707,5.0707,5.0707,5.0707,5.0707,5.0716,5.0786,5.073,5.0721,5.0825,5.0791,5.0791,5.0791,5.0791,5.1018,5.1477,5.1751,5.2159,5.262,5.351,5.3895,1.7174,1.9165,2.1403,2.3748,2.5979,2.7783,2.853,2.8486,2.8445,2.9066,3.0075,3.1122,3.1911,3.443,3.7707,4.1681,4.3291,4.4894,4.736,4.8493,4.9638,5.1192,5.1479,5.1836,5.2434,5.248,5.248,5.248,5.248,5.248,5.248,5.2515,5.2526,5.2526,5.2604,5.2635,5.2635,5.2857,5.2868,5.268,5.2976,5.3265,5.3567,5.3833,5.4149,5.4413,5.4503,5.4685,5.4947,5.4947,5.512,5.5396,5.5167,5.4027,5.2346,5.0856,5.0283,5.0283,5.0283,5.0327,5.0344,5.039,5.0424,5.0457,5.0505,5.0532,5.0553,5.0589,5.0573,5.0542,5.0542,5.0573,5.0599,5.0599,5.0678,5.0707,5.0707,5.0707,5.0707,5.0707,5.0707,5.0707,5.0707,5.0707,5.0707,5.0707,5.0707,5.0707,5.0707,5.0707,5.0707,5.0707,5.0707,5.0707,5.0707,5.0716,5.0807,5.0906,5.0825,5.0829,5.0924,5.0928,5.0928,5.0928,5.1125,5.1529,5.2093,5.2423,5.2868,5.3549,5.4395,5.478,1.9453,2.0949,2.2435,2.5884,2.6121,2.6342,2.9518,2.9476,2.934,3.1386,3.2823,3.3893,3.4518,3.7693,4.0782,4.2638,4.5272,4.745,4.8548,0.0,5.1416,5.1563,5.2054,5.2434,5.248,5.248,5.248,5.248,5.248,5.248,5.248,5.2559,5.2579,5.2579,5.2728,5.2783,5.2783,5.3218,5.3306,5.297,5.3326,5.3548,5.372,5.4401,5.4739,5.4776,5.5147,5.5313,5.537,5.537,5.5377,5.532,5.4524,5.3187,5.1576,5.0621,5.0283,5.0283,5.0283,5.0356,5.0396,5.0401,5.0478,5.0607,5.0573,5.0653,5.0697,5.0702,5.0702,5.0697,5.0697,5.0702,5.0702,5.0702,5.0707,5.0707,5.0707,5.0707,5.0707,5.0707,5.0707,5.0707,5.0707,5.0707,5.0707,5.0707,5.0707,5.0707,5.0707,5.0707,5.0707,5.0707,5.0707,5.0707,5.0707,5.0799,5.0902,5.0914,5.0952,5.0981,5.099,5.099,5.099,5.099,5.1776,5.2178,5.2093,5.3721,5.448,5.4434,5.5247,5.5593,1.7693,2.0143,2.2782,2.5258,2.702,2.881,3.1282,3.2577,3.3766,3.5523,3.7061,3.834,3.9113,4.0476,4.224,4.4647,4.6706,4.8601,5.0295,5.117,5.1749,5.2126,5.2364,5.248,5.248,5.248,5.248,5.248,5.248,5.2515,5.2559,5.2568,5.2624,5.2728,5.3057,5.3255,5.3255,5.3749,5.3915,5.3805,5.3962,5.4129,5.4384,5.4685,5.494,5.5168,5.5313,5.5091,5.46,5.46,5.4256,5.3683,5.2881,5.2149,5.1499,5.0627,5.0283,5.0321,5.0361,5.0384,5.0418,5.0489,5.0542,5.0627,5.0663,5.0692,5.0707,5.0707,5.0707,5.0707,5.0707,5.0707,5.0707,5.0707,5.0707,5.0707,5.0707,5.0707,5.0707,5.0707,5.0707,5.0707,5.0707,5.0707,5.0707,5.0707,5.0707,5.0707,5.0707,5.0707,5.0707,5.0707,5.0707,5.0707,5.0707,5.0812,5.0914,5.0914,5.0972,5.0969,5.0925,5.0962,5.0969,5.0921,5.1731,5.2434,5.2905,5.4037,5.4828,5.5247,5.5555,5.5708,1.7682,2.0363,2.3456,2.5509,2.8002,3.0653,3.3226,3.5153,3.6925,3.8644,3.9854,4.0895,4.1774,4.2291,4.3429,0.0,4.7854,4.967,5.136,5.1774,5.2054,5.2445,5.248,5.248,5.248,5.248,5.248,5.248,5.2526,5.2547,5.259,5.2669,5.2783,5.285,5.324,5.3477,5.3567,5.4033,5.4347,5.4455,5.4605,5.4685,5.4799,5.494,5.4981,5.4976,5.4976,5.4486,5.3683,5.3683,5.3187,5.2384,5.1805,5.1423,5.1117,5.0512,5.0294,5.035,5.039,5.0429,5.0473,5.0553,5.0594,5.0658,5.0697,5.0707,5.0707,5.0707,5.0707,5.0707,5.0707,5.0707,5.0707,5.0707,5.0707,5.0707,5.0707,5.0707,5.0707,5.0707,5.0707,5.0707,5.0707,5.0707,5.0707,5.0707,5.0707,5.0707,5.0707,5.0707,5.0707,5.0707,5.0707,5.0707,5.0707,5.0812,5.089,5.0833,5.0959,5.1017,5.0911,5.0998,5.0962,5.0949,5.2027,5.2849,5.3408,5.4443,5.5194,5.5708,5.5708,5.5708,2.0228,2.2168,2.4642,2.7175,2.8976,3.1221,3.5291,3.6807,3.7999,4.0367,4.0722,4.0922,4.1964,4.3123,4.4477,4.6061,4.8684,5.077,5.1494,5.2126,5.248,5.248,5.248,5.248,5.248,5.248,5.248,5.248,5.2559,5.2602,5.2602,5.2861,5.298,5.298,5.3135,5.3359,5.371,5.4105,5.4479,5.4806,5.5226,5.5174,5.4814,5.5195,5.49,5.4104,5.4104,5.3569,5.2811,5.2772,5.2308,5.1576,5.1576,5.1041,5.0283,5.0283,5.0356,5.0401,5.0407,5.0484,5.0617,5.0617,5.0663,5.0707,5.0707,5.0707,5.0707,5.0707,5.0707,5.0707,5.0707,5.0707,5.0707,5.0707,5.0707,5.0707,5.0707,5.0707,5.0707,5.0707,5.0707,5.0707,5.0707,5.0707,5.0707,5.0707,5.0707,5.0707,5.0707,5.0707,5.0707,5.0707,5.0707,5.0707,5.0712,5.0812,5.0837,5.0721,5.0967,5.1075,5.1002,5.1002,5.1002,5.1002,5.2714,5.3539,5.3404,5.5075,5.5832,5.5708,5.5708,5.5708,1.9192,2.2107,2.5645,2.6929,3.0524,3.4384,3.6702,3.8488,4.0588,4.3968,4.3887,4.3575,4.4838,4.5727,0.0,4.8103,4.9853,5.1343,5.2113,5.2387,5.248,5.248,5.248,5.248,5.248,5.2524,5.2581,5.2581,5.2683,5.2783,5.2883,5.2948,5.306,5.3135,5.368,5.4007,5.4123,5.4761,5.5113,5.5233,5.5357,5.5351,5.5202,5.4715,5.4333,5.4065,5.3454,5.2728,5.192,5.1276,5.0894,5.0697,5.0697,5.055,5.0321,5.0361,5.039,5.0418,5.05,5.0553,5.0627,5.0668,5.0692,5.0707,5.0707,5.0707,5.0707,5.0707,5.0707,5.0707,5.0707,5.0707,5.0707,5.0707,5.0707,5.0707,5.0707,5.0707,5.0707,5.0707,5.0707,5.0707,5.0707,5.0707,5.0707,5.0707,5.0707,5.0707,5.0707,5.0707,5.0707,5.0707,5.0707,5.0683,5.0716,5.0733,5.076,5.0776,5.0854,5.0855,5.0807,5.0882,5.1156,5.1696,5.2816,5.364,5.4198,5.5278,5.5847,5.5855,5.5782,5.5766,2.2102,2.4851,2.7926,2.9811,3.2861,3.6246,3.956,4.105,4.2559,4.5465,4.5071,4.464,4.6116,4.7041,0.0,4.9483,5.0866,5.1948,5.2408,5.248,5.248,5.248,5.248,5.2503,5.2561,5.2593,5.2613,5.2694,5.2806,5.2904,5.298,5.306,5.3114,5.3214,5.3612,5.3831,5.3791,5.4209,5.4414,5.4371,5.4371,5.4371,5.4371,5.418,5.3913,5.3531,5.2308,5.1544,5.1041,5.0512,5.0283,5.0283,5.0344,5.0356,5.0361,5.0424,5.0457,5.0484,5.0558,5.0632,5.0663,5.0697,5.0707,5.0707,5.0707,5.0707,5.0707,5.0707,5.0707,5.0707,5.0707,5.0707,5.0707,5.0707,5.0707,5.0707,5.0707,5.0707,5.0707,5.0707,5.0707,5.0707,5.0707,5.0707,5.0707,5.0707,5.0707,5.0707,5.0707,5.0707,5.0717,5.0697,5.0697,5.0716,5.0729,5.1042,5.1287,5.1318,5.1644,5.1794,5.1763,5.1197,5.1232,5.201,5.2853,5.3702,5.455,5.5398,5.587,5.5895,5.587,5.585,2.6968,2.8943,3.0758,3.4343,3.5564,3.7352,4.2873,4.3855,4.3999,4.5452,4.4947,4.4698,4.6276,4.7485,4.8711,5.0211,5.1561,5.2383,5.2299,5.2263,5.2274,5.2274,5.2286,5.2331,5.2383,5.2406,5.2451,5.2587,5.2707,5.2819,5.2819,5.2904,5.2994,5.2994,5.2999,5.2998,5.2874,5.2915,5.2885,5.2811,5.2811,5.2811,5.2811,5.3531,5.3416,5.2505,5.0971,5.0283,5.0283,5.0283,5.0283,5.0327,5.0384,5.0401,5.0412,5.0484,5.0542,5.0617,5.0627,5.0663,5.0707,5.0707,5.0707,5.0707,5.0707,5.0707,5.0707,5.0707,5.0707,5.0707,5.0707,5.0707,5.0707,5.0707,5.0707,5.0707,5.0707,5.0707,5.0707,5.0707,5.0707,5.0707,5.0707,5.0707,5.0707,5.0707,5.0707,5.0707,5.0707,5.0712,5.0731,5.0812,5.0817,5.0883,5.1014,5.1751,5.2214,5.2223,5.2949,5.3396,5.3396,5.1889,5.1442,5.233,5.3063,5.3874,5.4723,5.5524,5.5909,5.5909,5.5905,5.5885,2.5202,2.8129,3.1446,3.3949,3.687,3.9737,4.2179,4.3883,4.5247,4.6152,4.6127,4.6206,4.6993,4.8641,4.9961,5.0141,5.0939,5.1332,5.0716,5.0608,5.0641,5.0682,5.0693,5.0737,5.0845,5.0988,5.1052,5.1073,5.1213,5.1275,5.1275,5.1295,5.1316,5.1316,5.157,5.1813,5.2064,5.2303,5.2586,0.0,5.2811,5.2811,5.2772,5.2346,5.1652,5.0818,5.0474,5.0283,5.0283,5.0283,5.0283,5.0327,5.0384,5.0401,5.0418,5.0527,5.0607,5.0627,5.0673,5.0697,5.0707,5.0707,5.0707,5.0707,5.0707,5.0707,5.0707,5.0707,5.0707,5.0707,5.0707,5.0707,5.0707,5.0707,5.0707,5.0707,5.0707,5.0707,5.0707,5.0707,5.0707,5.0707,5.0707,5.0707,5.0707,5.0707,5.0707,5.0707,5.0707,5.0702,5.0957,5.1664,5.1779,5.2094,5.2794,5.3026,5.3121,5.3202,5.3365,5.3485,5.3485,5.3052,5.3258,5.4108,5.431,5.4812,5.5691,5.5884,5.598,5.5977,5.5975,5.5952,2.6471,2.9135,3.1857,3.5228,3.836,4.0912,4.2029,4.3613,4.5047,4.578,4.6653,4.7483,4.8158,4.902,4.9775,5.0056,5.0463,5.0594,5.0203,5.0141,5.0174,5.0282,5.0292,5.0346,5.0498,5.0571,5.0633,5.0674,5.0772,5.0802,5.0802,5.0802,5.0802,5.0802,5.1138,5.126,5.1193,5.1525,5.1646,5.1582,5.1582,5.1582,5.1582,5.1614,5.1117,5.0283,5.0283,5.0283,5.0283,5.035,5.0361,5.0367,5.0457,5.0489,5.05,5.0594,5.0663,5.0668,5.0697,5.0707,5.0707,5.0707,5.0707,5.0707,5.0707,5.0707,5.0707,5.0707,5.0707,5.0707,5.0707,5.0707,5.0707,5.0707,5.0707,5.0707,5.0707,5.0707,5.0707,5.0707,5.0707,5.0832,5.1241,5.1693,5.1862,5.1438,5.1361,5.1207,5.0783,5.111,5.1556,5.2003,5.2455,5.2915,5.3421,5.3851,5.4091,5.4116,5.4465,5.4697,5.4697,5.4671,5.4697,5.4736,5.474,5.5165,5.6011,5.6011,5.5986,5.6008,5.5981,5.5998,2.7461,3.0003,3.2316,3.6952,3.9478,4.106,4.2012,4.3216,4.4394,4.5199,4.6809,4.8294,4.8972,4.9091,4.9282,4.9811,4.9905,4.9913,4.9807,4.9802,4.9856,4.9997,5.0008,5.006,5.0183,5.0194,5.0271,5.0352,5.0362,5.0362,5.0362,5.0362,5.0391,5.0461,5.0713,5.0718,5.0371,5.0633,5.0645,5.0283,5.0283,5.0283,5.0321,5.1053,5.0976,5.0283,5.0283,5.0327,5.0338,5.0384,5.0412,5.0429,5.0537,5.0617,5.0627,5.0687,5.0707,5.0707,5.0707,5.0707,5.0707,5.0707,5.0707,5.0707,5.0707,5.0707,5.0707,5.0707,5.0707,5.0707,5.0707,5.0707,5.0707,5.0707,5.0707,5.0707,5.0707,5.0707,5.0707,5.0707,5.0832,5.1159,5.1891,5.279,5.3174,5.2441,5.221,5.1824,5.1129,5.1635,5.2155,5.2305,5.3125,5.3726,5.3923,5.4581,5.5006,5.5006,5.5621,5.6008,5.6008,5.6008,5.5698,5.5006,5.5006,5.5316,5.6008,5.5853,5.5776,5.5776,5.5621,5.5638,2.3466,2.8039,3.322,3.7719,3.9073,3.9772,4.156,4.2971,4.4249,4.542,4.6977,4.8151,4.8258,4.9163,4.9738,4.9173,4.9161,4.8982,4.8291,4.8275,4.834,4.8487,4.8497,4.8536,4.8598,4.8607,4.8617,4.8627,4.8627,4.8627,4.8627,4.8627,4.8752,4.9053,4.9115,4.9388,4.9886,4.9935,5.0056,5.0283,5.0283,5.0283,5.0321,5.0482,5.0482,5.0283,5.0283,5.0344,5.0396,5.0401,5.044,5.0495,5.0558,5.0617,5.0627,5.0687,5.0707,5.0707,5.0707,5.0707,5.0707,5.0707,5.0707,5.0707,5.0707,5.0707,5.0707,5.0707,5.0707,5.0707,5.0707,5.0707,5.0707,5.0707,5.0707,5.0707,5.0707,5.0707,5.0707,5.0707,5.1318,5.1852,5.1973,5.279,5.3367,5.3252,5.2596,5.2055,5.194,5.2048,5.2378,5.3155,5.4044,5.4882,5.5621,5.5776,5.5853,5.5853,5.593,5.6008,5.6008,5.6008,5.593,5.5853,5.5853,5.5892,5.6008,5.5316,5.4967,5.4929,5.4194,5.4228,2.5196,2.9574,3.3704,3.6953,3.859,3.9601,4.0479,4.2205,4.3784,4.4314,4.5885,4.7352,4.7784,4.8782,4.9292,4.8472,4.8795,4.8889,4.8184,4.8088,4.8158,4.8229,4.8275,4.8258,4.8296,4.8296,4.8296,4.8296,4.8296,4.8296,4.8296,4.8296,4.8382,4.8514,4.8693,4.9023,4.952,4.9728,4.9987,5.0283,5.035,5.0367,5.0367,5.0429,5.0424,5.0367,5.0407,5.044,5.0462,5.0495,5.0521,5.0553,5.0648,5.0668,5.0673,5.0697,5.0707,5.0707,5.0707,5.0707,5.0707,5.0707,5.0707,5.0707,5.0707,5.0707,5.0707,5.0707,5.0707,5.0707,5.0707,5.0707,5.0707,5.0707,5.0707,5.0707,5.0707,5.0707,5.0717,5.0702,5.1833,5.28,5.2784,5.3949,5.4718,5.4254,5.3868,5.325,5.2284,5.2996,5.3584,5.3468,5.4684,5.5621,5.5969,5.6008,5.6008,5.6008,5.6008,5.6008,5.6008,5.6008,5.6008,5.6008,5.6008,5.6008,5.6008,5.52,5.4813,5.4774,5.3923,5.3695,2.5916,2.9222,3.1931,3.5279,3.7317,3.8776,3.9553,4.1318,4.2818,4.2931,4.4529,4.611,4.6726,4.7923,4.8603,4.8031,4.8498,4.8756,4.826,4.8217,4.8256,4.8296,4.8296,4.8296,4.8296,4.8296,4.8296,4.8296,4.8296,4.8296,4.8296,4.8296,4.8344,4.8411,4.8658,4.8949,4.931,4.9641,5.0006,5.0344,5.0401,5.0429,5.0429,5.0495,5.0495,5.0451,5.0489,5.0511,5.0527,5.0563,5.0627,5.0648,5.0692,5.0707,5.0707,5.0707,5.0707,5.0707,5.0707,5.0707,5.0707,5.0707,5.0707,5.0707,5.0707,5.0707,5.0707,5.0707,5.0707,5.0745,5.0938,5.0861,5.0745,5.0976,5.0861,5.0712,5.0683,5.0688,5.0779,5.1019,5.2307,5.3472,5.3696,5.4976,5.5814,5.52,5.4929,5.431,5.3037,5.4,5.4542,5.3884,5.5122,5.6008,5.6008,5.6008,5.6008,5.6008,5.6008,5.5892,5.5698,5.5892,5.5892,5.5698,5.5892,5.6008,5.6008,5.4967,5.4465,5.4426,5.3343,5.2956,2.2524,2.4277,2.6442,3.262,3.4786,3.6206,3.9144,4.0479,4.1244,4.1702,4.3202,4.4422,4.4459,4.6375,4.7959,4.7978,4.8145,4.8224,4.8197,4.8238,4.8296,4.8296,4.8296,4.8296,4.8296,4.8296,4.8296,4.8296,4.8296,4.8296,4.8296,4.8296,4.8439,4.8764,4.879,4.8949,4.931,4.969,5.0076,5.0401,5.0468,5.05,5.05,5.0553,5.0573,5.0607,5.0521,5.0532,5.0617,5.0617,5.0653,5.0707,5.0707,5.0707,5.0707,5.0707,5.0707,5.0707,5.0707,5.0707,5.0707,5.0707,5.0707,5.0707,5.0707,5.0707,5.0707,5.0707,5.0707,5.0861,5.1659,5.1279,5.0899,5.1659,5.1241,5.0683,5.0687,5.0696,5.0942,5.1849,5.2777,5.3657,5.4482,5.5402,5.6008,5.593,5.5277,5.4774,5.4697,5.4735,5.4774,5.4735,5.5505,5.6008,5.6008,5.6008,5.6008,5.6008,5.6008,5.5659,5.489,5.5582,5.5621,5.489,5.5621,5.6008,5.6008,5.4349,5.3579,5.354,5.183,5.1482,2.1913,2.3564,2.5495,2.9753,3.2879,3.5381,3.693,3.9117,4.0989,4.1678,4.2368,4.3005,4.3616,4.5696,4.7166,4.6657,4.7109,4.7322,4.6782,4.6746,4.6764,4.6764,4.7232,4.7526,4.7526,4.8003,4.8296,4.8296,4.8296,4.8296,4.8296,4.8296,4.8363,4.8477,4.8477,4.8772,4.9341,4.9929,5.03,5.0468,5.0527,5.0553,5.0553,5.0614,5.0678,5.0678,5.0658,5.0624,5.0678,5.0678,5.0687,5.0707,5.0707,5.0707,5.0707,5.0707,5.0707,5.0707,5.0707,5.0707,5.0707,5.0707,5.0707,5.0707,5.0707,5.0707,5.0707,5.0707,5.0707,5.0784,5.1048,5.0938,5.0784,5.1048,5.0933,5.0744,5.0742,5.1214,5.169,5.2048,5.3267,5.4332,5.471,5.5458,5.6008,5.6008,5.5737,5.5393,5.4851,5.5238,5.5354,5.4851,5.5505,5.6008,5.6008,5.6008,5.6008,5.6008,5.6008,5.5853,5.5582,5.5853,5.5853,5.5582,5.5853,5.6008,5.6008,5.431,5.3502,5.3463,5.1714,5.1057,2.0663,2.2057,2.3928,2.7845,3.0404,3.2729,3.5746,3.7757,3.9357,4.0797,4.1393,4.1898,4.2837,4.4336,4.5416,4.5425,4.6131,4.6498,4.5993,4.5883,4.5883,4.5883,4.6351,4.6718,4.6718,4.7416,4.7893,4.7893,4.815,0.0,4.8296,4.8296,4.8316,4.839,4.8449,4.8796,4.9453,5.0006,5.0374,5.0532,5.0584,5.0609,5.0653,5.0692,5.0707,5.0707,5.0707,5.0707,5.0707,5.0707,5.0707,5.0707,5.0707,5.0707,5.0707,5.0707,5.0707,5.0707,5.0707,5.0707,5.0707,5.0707,5.0707,5.0707,5.0707,5.0707,5.0707,5.0707,5.0707,5.0745,5.1015,5.1087,5.1015,5.0765,5.0744,5.0799,5.0834,5.1494,5.2202,5.2515,5.3726,5.4822,5.5157,5.5659,5.6008,5.6008,5.6008,5.5814,5.5277,5.5659,5.5814,5.5277,5.5659,5.6008,5.6008,5.6008,5.6008,5.6008,5.6008,5.5892,5.5621,5.5853,5.5853,5.5582,5.5853,5.6008,5.6008,5.431,5.3502,5.3463,5.1714,5.1211,0.0,0.0,0.0,2.6872,2.7195,2.8064,3.5536,3.6242,3.6117,3.8874,4.016,4.1052,4.2004,4.2227,4.28,4.4333,4.5296,4.581,4.581,4.581,4.581,4.581,4.5847,4.5847,4.5847,4.6608,4.7076,4.7076,4.7783,4.8223,4.826,4.8306,4.8354,4.8504,4.8781,4.9145,4.9624,4.9955,5.0285,5.0584,5.0682,5.0707,5.0707,5.0707,5.0707,5.0707,5.0707,5.0707,5.0707,5.0707,5.0707,5.0707,5.0707,5.0707,5.0707,5.0707,5.0707,5.0707,5.0707,5.0707,5.0707,5.0707,5.0707,5.0707,5.0707,5.0707,5.0707,5.0707,5.0707,5.0899,5.1659,5.1851,5.1674,5.088,5.0742,5.0834,5.0872,5.1537,5.2361,5.3339,5.4233,5.5084,5.5853,5.6008,5.6008,5.6008,5.6008,5.6008,5.6008,5.6008,5.6008,5.6008,5.6008,5.6008,5.6008,5.6008,5.6008,5.6008,5.6008,5.5659,5.4851,5.5582,5.5621,5.4851,5.5582,5.6008,5.6008,5.431,5.3502,5.3463,5.1714,5.183,1.8499,0.0,0.0,0.0,0.0,0.0,2.9587,3.0884,3.2509,3.6908,3.7677,3.8311,4.0907,4.1417,4.158,4.2021,4.3277,4.4167,4.4167,4.4167,4.4167,4.4167,4.4672,4.503,4.503,4.5764,4.625,0.0,4.6434,4.6838,4.7406,4.8069,4.856,4.879,4.9169,4.9608,4.9974,5.0285,5.0542,5.0682,5.0702,5.0707,5.0707,5.0707,5.0707,5.0707,5.0707,5.0707,5.0707,5.0707,5.0707,5.0707,5.0707,5.0707,5.0707,5.0707,5.0707,5.0707,5.0707,5.0707,5.0707,5.0707,5.0707,5.0707,5.0707,5.0707,5.0707,5.0707,5.0707,5.0745,5.0976,5.1039,5.0986,5.0735,5.0803,5.0868,5.0919,5.1566,5.2441,5.3343,5.4658,5.5737,5.5969,5.6008,5.6008,5.6008,5.6008,5.6008,5.6008,5.6008,5.6008,5.6008,5.6008,5.6008,5.6008,5.6008,5.6008,5.6008,5.6008,5.5892,5.5659,5.5892,5.5892,5.5659,5.5892,5.6008,5.6008,5.431,5.3502,5.3463,5.1714,5.183,2.0122,0.0,0.0,0.0,0.0,0.0,2.873,2.9318,3.0375,3.525,3.593,3.6589,3.9554,4.0112,4.0333,4.0985,4.1874,4.2616,4.2947,4.3286,4.3506,4.3506,4.3901,4.4195,4.4195,4.4929,4.5406,4.5406,4.57,4.6269,4.715,4.7803,4.843,4.9015,4.9527,4.9923,5.0147,5.0467,5.0673,5.0707,5.0707,5.0707,5.0707,5.0707,5.0707,5.0707,5.0707,5.0707,5.0707,5.0707,5.0707,5.0707,5.0707,5.0707,5.0707,5.0707,5.0707,5.0707,5.0707,5.0707,5.0707,5.0707,5.0707,5.0707,5.0707,5.0707,5.0707,5.0707,5.0683,5.0697,5.0697,5.0735,5.0738,5.0794,5.0842,5.1004,5.1369,5.2132,5.2883,5.3386,5.4581,5.5621,5.593,5.6008,5.6008,5.6008,5.6008,5.6008,5.6008,5.6008,5.6008,5.6008,5.6008,5.6008,5.6008,5.6008,5.6008,5.6008,5.6008,5.6008,5.6008,5.6008,5.6008,5.6008,5.6008,5.5814,5.5505,5.4503,5.3656,5.2921,5.1521,5.183,2.2794,0.0,0.0,0.0,0.0,0.0,3.0162,2.9561,2.9009,3.3318,3.4209,3.4954,3.7543,3.8021,3.8534,4.0039,4.0516,4.103,4.2029,4.2763,4.3286,4.3359,4.3359,4.3396,4.3506,4.4158,4.4553,4.4553,4.5296,4.6186,4.7104,4.751,4.8173,4.9224,4.9812,5.0159,5.0241,5.0535,5.0707,5.0707,5.0707,5.0707,5.0707,5.0707,5.0707,5.0707,5.0707,5.0707,5.0707,5.0707,5.0707,5.0707,5.0707,5.0707,5.0707,5.0707,5.0707,5.0707,5.0707,5.0707,5.0707,5.0707,5.0707,5.0707,5.0707,5.0707,5.0712,5.0717,5.0707,5.0701,5.0706,5.0747,5.0834,5.0872,5.0884,5.1133,5.2024,5.2805,5.3424,5.3618,5.4271,5.5045,5.5853,5.593,5.5892,5.6008,5.6008,5.6008,5.6008,5.6008,5.6008,5.6008,5.6008,5.6008,5.6008,5.6008,5.6008,5.6008,5.6008,5.6008,5.6008,5.6008,5.6008,5.6008,5.6008,5.5659,5.4929,5.4851,5.3962,5.2341,5.1559,5.2062,2.4778,0.0,0.0,0.0,0.0,0.0,2.5729,2.586,2.6628,2.9415,2.9485,3.0039,3.3193,3.3793,3.4094,3.5055,3.689,3.8953,4.103,4.147,4.1801,4.247,4.2543,4.2808,4.3433,4.3653,4.3726,4.3726,4.4488,4.5332,4.6285,4.7309,4.8384,4.9487,4.9955,5.0325,5.0604,5.0687,5.0707,5.0707,5.0707,5.0707,5.0707,5.0707,5.0707,5.0707,5.0707,5.0707,5.0707,5.0707,5.0707,5.0707,5.0707,5.0707,5.0707,5.0707,5.0707,5.0707,5.0707,5.0707,5.0707,5.0707,5.0707,5.0707,5.0707,5.0707,5.0717,5.0716,5.0692,5.071,5.0756,5.0838,5.0872,5.0919,5.0905,5.1126,5.1989,5.2341,5.2883,5.4271,5.4697,5.5045,5.5853,5.5466,5.5238,5.5892,5.6008,5.6008,5.6008,5.6008,5.6008,5.6008,5.6008,5.6008,5.6008,5.6008,5.6008,5.6008,5.6008,5.6008,5.6008,5.6008,5.6008,5.6008,5.6008,5.593,5.5776,5.5122,5.4271,5.3231,5.3072,5.3536,0.0,0.0,0.0,2.6928,0.0,0.0,0.0,2.6646,2.704,3.0018,2.9058,2.8789,3.2503,3.2222,3.1928,3.355,3.5165,3.6663,3.7903,3.9811,4.125,4.1654,4.169,4.2021,4.2808,4.2919,4.3082,4.3521,4.3916,4.4614,4.5745,4.6892,4.8091,4.9258,5.0056,5.052,5.0707,5.0707,5.0707,5.0707,5.0707,5.0707,5.0707,5.0707,5.0707,5.0707,5.0707,5.0707,5.0707,5.0707,5.0707,5.0707,5.0707,5.0707,5.0707,5.0707,5.0707,5.0707,5.0707,5.0707,5.0707,5.0707,5.0707,5.0707,5.0707,5.0688,5.0707,5.0692,5.0733,5.0816,5.0842,5.088,5.0909,5.0909,5.0948,5.1347,5.2589,5.293,5.3453,5.5078,5.5118,5.4955,5.5328,5.5393,5.5393,5.5393,5.5737,5.6008,5.6008,5.6008,5.6008,5.6008,5.6008,5.6008,5.6008,5.6008,5.6008,5.6008,5.6008,5.6008,5.6008,5.6008,5.6008,5.6008,5.6008,5.6008,5.6008,5.5582,5.4967,5.4155,5.3695,5.3962,0.0,0.0,0.0,0.0,0.0,2.8459,0.0,0.0,0.0,0.0,0.0,0.0,3.1983,0.0,0.0,3.2302,0.0,0.0,0.0,3.7096,0.0,4.0112,4.0443,4.0956,4.1772,4.1699,4.2026,4.3057,4.2991,4.3606,4.5177,4.6351,4.7574,4.8961,4.9939,5.0515,5.0707,5.0707,5.0707,5.0707,5.0707,5.0707,5.0707,5.0707,5.0707,5.0707,5.0707,5.0707,5.0707,5.0707,5.0707,5.0707,5.0707,5.0707,5.0707,5.0707,5.0707,5.0707,5.0707,5.0707,5.0707,5.0707,5.0717,5.0683,5.0683,5.0716,5.0715,5.0724,5.0851,5.0933,5.0941,5.0948,5.0953,5.0953,5.1043,5.151,5.296,5.356,5.4181,5.5494,5.544,5.5081,5.485,5.5354,5.5543,5.489,5.5466,5.6008,5.6008,5.6008,5.6008,5.6008,5.6008,5.6008,5.6008,5.6008,5.6008,5.6008,5.6008,5.6008,5.6008,5.6008,5.6008,5.6008,5.6008,5.6008,5.6008,5.6008,5.5659,5.5006,5.431,5.4349,0.0,0.0,0.0,0.0,3.1145,0.0,0.0,0.0,2.8644,2.7272,0.0,0.0,0.0,0.0,0.0,0.0,0.0,0.0,2.9794,3.1922,3.4387,3.6597,3.8094,3.9276,4.0084,3.9533,3.9785,4.1343,4.0806,4.1593,4.4286,4.5515,4.703,4.8955,4.9358,4.9938,5.0707,5.0707,5.0707,5.0707,5.0707,5.0707,5.0707,5.0707,5.0707,5.0707,5.0707,5.0707,5.0707,5.0707,5.0707,5.0707,5.0707,5.0707,5.0707,5.0707,5.0707,5.0707,5.0707,5.0707,5.0707,5.0707,5.0697,5.0692,5.0692,5.0729,5.0816,5.0855,5.0944,5.0982,5.1049,5.1139,5.1172,5.1172,5.1178,5.1433,5.2257,5.3151,5.4025,5.48,5.5602,5.5844,5.4947,5.489,5.4929,5.4813,5.5466,5.6008,5.6008,5.6008,5.6008,5.6008,5.6008,5.6008,5.6008,5.6008,5.6008,5.6008,5.6008,5.6008,5.6008,5.6008,5.6008,5.6008,5.6008,5.6008,5.6008,5.6008,5.593,5.5853,5.5776,5.5776,0.0,0.0,0.0,0.0,0.0,0.0,2.9382,0.0,2.8947,0.0,0.0,0.0,0.0,0.0,0.0,0.0,2.838,0.0,0.0,0.0,3.0723,0.0,0.0,0.0,3.83,3.8615,3.9197,4.0394,3.9784,4.0471,4.2988,4.4562,4.6315,4.8396,4.9077,4.9822,5.0707,5.0707,5.0707,5.0707,5.0707,5.0707,5.0707,5.0707,5.0707,5.0707,5.0707,5.0707,5.0707,5.0707,5.0707,5.0707,5.0707,5.0707,5.0707,5.0707,5.0707,5.0707,5.0707,5.0707,5.0712,5.0702,5.0682,5.0724,5.0781,5.0852,5.0946,5.1008,5.1042,5.113,5.114,5.1174,5.1201,5.1201,5.1236,5.1479,5.2251,5.2807,5.3346,5.4027,5.4534,5.4512,5.3517,5.4185,5.4505,5.344,5.4426,5.5316,5.5316,5.5698,5.5814,5.5354,5.5316,5.5084,5.4581,5.5006,5.5316,5.5316,5.5737,5.6008,5.6008,5.6008,5.6008,5.6008,5.6008,5.6008,5.6008,5.6008,5.6008,5.6008,5.6008,5.6008,3.4971,0.0,0.0,0.0,0.0,0.0,0.0,0.0,0.0,0.0,0.0,0.0,0.0,0.0,0.0,0.0,0.0,2.7677,0.0,2.6764,0.0,0.0,0.0,0.0,0.0,3.6604,3.7257,3.8567,3.8014,3.8745,4.1472,4.3258,4.5219,4.7346,4.8471,4.9471,5.0322,5.0592,5.0707,5.0707,5.0707,5.0707,5.0707,5.0707,5.0707,5.0707,5.0707,5.0707,5.0707,5.0707,5.0707,5.0707,5.0707,5.0707,5.0707,5.0707,5.0707,5.0707,5.0707,5.0717,5.0693,5.0687,5.072,5.0782,5.0903,5.0982,5.1038,5.1115,5.1168,5.1234,5.1234,5.1249,5.1262,5.1262,5.1292,5.1497,5.2063,5.2438,5.2846,5.3291,5.3611,5.3534,5.2518,5.3566,5.3991,5.2438,5.3463,5.4426,5.4426,5.4967,5.5084,5.4503,5.4426,5.4194,5.354,5.4078,5.4426,5.4426,5.5238,5.5659,5.5659,5.5892,5.6008,5.6008,5.6008,5.6008,5.6008,5.6008,5.6008,5.6008,5.6008,5.6008,0.0,0.0,0.0,3.3292,0.0,0.0,0.0,0.0,3.0787,0.0,0.0,0.0,0.0,0.0,0.0,0.0,0.0,0.0,0.0,0.0,0.0,0.0,0.0,0.0,0.0,3.2529,3.2671,3.5178,3.4675,3.5907,3.9694,4.1514,4.3465,4.562,4.7278,4.8548,4.9433,5.0284,5.0707,5.0707,5.0707,5.0707,5.0707,5.0707,5.0707,5.0707,5.0707,5.0707,5.0707,5.0707,5.0707,5.0707,5.0707,5.0707,5.0707,5.0707,5.0707,5.0707,5.0707,5.0697,5.0696,5.0696,5.0803,5.0909,5.0994,5.1059,5.1106,5.1176,5.1253,5.1295,5.1295,5.1358,5.1406,5.1406,5.1406,5.1405,5.1342,5.2063,5.2651,5.2553,5.3329,5.3664,5.2662,5.3078,5.3235,5.2341,5.296,5.354,5.354,5.3579,5.3579,5.354,5.354,5.354,5.3502,5.354,5.354,5.354,5.4349,5.4851,5.4851,5.5582,5.6008,5.6008,5.6008,5.6008,5.6008,5.6008,5.6008,5.6008,5.6008,5.6008,0.0,0.0,3.9615,3.6345,0.0,0.0,0.0,0.0,0.0,0.0,0.0,0.0,0.0,0.0,0.0,0.0,0.0,0.0,0.0,0.0,0.0,0.0,0.0,0.0,0.0,0.0,0.0,3.261,3.319,3.5094,3.8758,4.0722,4.291,4.5509,4.724,4.8509,4.9394,5.0245,5.0707,5.0707,5.0707,5.0707,5.0707,5.0707,5.0707,5.0707,5.0707,5.0707,5.0707,5.0707,5.0707,5.0707,5.0707,5.0707,5.0707,5.0707,5.0707,5.0712,5.0707,5.0749,5.076,5.0825,5.0894,5.0998,5.1108,5.1193,5.1253,5.1304,5.1359,5.1363,5.1363,5.1366,5.1406,5.1406,5.1406,5.1406,5.1364,5.1601,5.1835,5.1784,5.2017,5.2127,5.1745,5.1836,5.179,5.1522,5.2181,5.269,5.2667,5.3153,5.327,5.2689,5.2651,5.2418,5.183,5.2298,5.2883,5.3463,5.3772,5.3923,5.3923,5.4735,5.52,5.52,5.5737,5.6008,5.6008,5.6008,5.6008,5.6008,5.6008,5.6008,4.0483,4.1098,0.0,3.832,3.7303,0.0,3.2826,0.0,0.0,0.0,0.0,0.0,0.0,0.0,0.0,0.0,0.0,0.0,0.0,2.2795,0.0,0.0,0.0,0.0,0.0,0.0,2.9738,3.0876,3.1558,3.3419,0.0,3.957,4.1981,4.4197,4.6471,4.8082,4.8933,4.9784,5.0399,5.0707,5.0707,5.0707,5.0707,5.0707,5.0707,5.0707,5.0707,5.0707,5.0707,5.0707,5.0707,5.0707,5.0707,5.0707,5.0707,5.0707,5.0721,5.0702,5.071,5.076,5.0855,5.0906,5.097,5.1053,5.1209,5.1272,5.1305,5.1366,5.1406,5.1406,5.1406,5.1406,5.1406,5.1406,5.1406,5.1484,5.1797,5.1875,5.1875,5.1875,5.2066,5.2132,5.1805,5.1702,5.149,5.1136,5.1509,5.1795,5.1734,5.2221,5.2376,5.1796,5.1757,5.1525,5.0937,5.1405,5.1989,5.2531,5.2879,5.3037,5.3037,5.3884,5.4349,5.4349,5.4851,5.5122,5.5122,5.5427,5.5582,5.5582,5.5853,5.6008]}]]